[[{"header":{"parameterUnit":"m.s-1","parameterCategory":1,"la1":30.6,"la2":29.2853,"lo1":-89.7004,"lo2":-87.6739,"dy":0.0162,"dx":0.0183,"nx":112,"ny":82,"refTime":"2024-03-06T06:00:00:Z","depth":0,"parameterNumber":2,"parameterNumberName":"U-component_of_WINDS"},"data":[0.0,0.0,0.0,0.0,0.0,0.0,0.0,0.0,0.0,0.0,0.0,0.0,0.0,0.0,0.0,0.0,0.0,0.0,0.0,0.0,0.0,0.0,0.0,0.0,0.0,0.0,0.0,0.0,0.0,0.0,0.0,0.0,0.0,0.0,0.0,0.0,0.0,0.0,0.0,0.0,0.0,0.0,0.0,0.0,0.0,0.0,0.0,0.0,0.0,0.0,0.0,0.0,0.0,0.0,0.0,0.0,0.0,0.0,0.0,0.0,0.0,0.0,0.0,0.0,0.0,0.0,0.0,0.0,0.0,0.0,0.0,0.0,0.0,0.0,0.0,0.0,0.0,0.0,0.0,0.0,0.0,0.0,0.0,0.0,0.0,0.0,0.0,0.0,0.0,0.0,-2.7287,-3.005,-3.356,-3.467,-3.2198,-2.9699,-2.6971,-2.3976,0.0,0.0,0.0,0.0,0.0,0.0,0.0,0.0,0.0,0.0,0.0,0.0,0.0,0.0,0.0,0.0,0.0,0.0,0.0,0.0,0.0,0.0,0.0,0.0,0.0,0.0,0.0,0.0,0.0,0.0,0.0,0.0,0.0,0.0,0.0,0.0,0.0,0.0,0.0,0.0,0.0,0.0,0.0,0.0,0.0,0.0,0.0,0.0,0.0,0.0,0.0,0.0,0.0,0.0,0.0,0.0,0.0,0.0,0.0,0.0,0.0,0.0,0.0,0.0,0.0,0.0,0.0,0.0,0.0,0.0,0.0,0.0,0.0,0.0,0.0,0.0,0.0,0.0,0.0,0.0,0.0,0.0,0.0,0.0,0.0,0.0,0.0,0.0,0.0,0.0,0.0,0.0,0.0,0.0,0.0,0.0,0.0,0.0,0.0,0.0,0.0,0.0,0.0,0.0,-2.7118,-3.142,-3.3812,-3.4036,-3.1406,-2.8323,-2.5787,-2.3914,0.0,0.0,0.0,0.0,0.0,0.0,0.0,0.0,0.0,0.0,0.0,0.0,0.0,0.0,0.0,0.0,0.0,0.0,0.0,0.0,0.0,0.0,0.0,0.0,0.0,0.0,0.0,0.0,0.0,0.0,0.0,0.0,0.0,0.0,0.0,0.0,0.0,0.0,0.0,0.0,0.0,0.0,0.0,0.0,0.0,0.0,0.0,0.0,0.0,0.0,0.0,0.0,0.0,0.0,0.0,0.0,0.0,0.0,0.0,0.0,0.0,0.0,0.0,0.0,0.0,0.0,0.0,0.0,0.0,0.0,0.0,0.0,0.0,0.0,0.0,0.0,0.0,0.0,0.0,0.0,0.0,0.0,0.0,0.0,0.0,0.0,0.0,0.0,0.0,0.0,0.0,0.0,0.0,0.0,0.0,0.0,0.0,0.0,0.0,0.0,0.0,0.0,0.0,-2.6558,-2.8554,-3.2429,-3.3611,-3.3276,-3.1175,-2.7634,-2.5063,-2.3868,-2.1532,0.0,0.0,0.0,0.0,0.0,0.0,0.0,0.0,0.0,0.0,0.0,0.0,0.0,0.0,0.0,0.0,0.0,0.0,0.0,0.0,0.0,0.0,0.0,0.0,0.0,0.0,0.0,0.0,0.0,0.0,0.0,0.0,0.0,0.0,0.0,0.0,0.0,0.0,0.0,0.0,0.0,0.0,0.0,0.0,0.0,0.0,0.0,0.0,0.0,0.0,0.0,0.0,0.0,0.0,0.0,0.0,0.0,0.0,0.0,0.0,0.0,0.0,0.0,0.0,0.0,0.0,0.0,0.0,0.0,0.0,0.0,0.0,0.0,0.0,0.0,0.0,0.0,0.0,0.0,0.0,0.0,0.0,0.0,0.0,0.0,0.0,0.0,0.0,0.0,0.0,0.0,0.0,0.0,0.0,0.0,0.0,0.0,0.0,0.0,0.0,0.0,0.0,-2.8489,-2.9962,-3.2814,-3.3103,-3.2379,-3.0604,-2.6934,-2.4364,-2.3578,-2.0563,0.0,0.0,0.0,0.0,0.0,0.0,0.0,0.0,0.0,0.0,0.0,0.0,0.0,0.0,0.0,0.0,0.0,0.0,0.0,0.0,0.0,0.0,0.0,0.0,0.0,0.0,0.0,0.0,0.0,0.0,0.0,0.0,0.0,0.0,0.0,0.0,0.0,0.0,0.0,0.0,0.0,0.0,0.0,0.0,0.0,0.0,0.0,0.0,0.0,0.0,0.0,0.0,0.0,0.0,0.0,0.0,0.0,0.0,0.0,0.0,0.0,0.0,0.0,0.0,0.0,0.0,0.0,0.0,0.0,0.0,0.0,0.0,0.0,0.0,0.0,0.0,0.0,0.0,0.0,0.0,0.0,0.0,0.0,0.0,0.0,0.0,0.0,0.0,0.0,0.0,0.0,0.0,0.0,0.0,0.0,0.0,0.0,0.0,0.0,0.0,0.0,0.0,-2.826,-3.032,-3.2089,-3.227,-3.1329,-2.8962,-2.5778,-2.3572,-2.2807,-1.9695,0.0,0.0,0.0,0.0,0.0,0.0,0.0,0.0,0.0,0.0,0.0,0.0,0.0,0.0,0.0,0.0,0.0,0.0,0.0,0.0,0.0,0.0,0.0,0.0,0.0,0.0,0.0,0.0,0.0,0.0,0.0,0.0,0.0,0.0,0.0,0.0,0.0,0.0,0.0,0.0,0.0,0.0,0.0,0.0,0.0,0.0,0.0,0.0,0.0,0.0,0.0,0.0,0.0,0.0,0.0,0.0,0.0,0.0,0.0,0.0,0.0,0.0,0.0,0.0,0.0,0.0,0.0,0.0,0.0,0.0,0.0,0.0,0.0,0.0,0.0,0.0,0.0,0.0,0.0,0.0,0.0,0.0,0.0,0.0,0.0,0.0,0.0,0.0,0.0,0.0,0.0,0.0,0.0,0.0,0.0,0.0,0.0,0.0,0.0,0.0,0.0,0.0,-2.7223,-2.8657,-3.1872,-3.1251,-3.0067,-2.8657,-2.5026,-2.2765,-2.2638,0.0,0.0,0.0,0.0,0.0,0.0,0.0,0.0,0.0,0.0,0.0,0.0,0.0,0.0,0.0,0.0,0.0,0.0,0.0,0.0,0.0,0.0,0.0,0.0,0.0,0.0,0.0,0.0,0.0,0.0,0.0,0.0,0.0,0.0,0.0,0.0,0.0,0.0,0.0,0.0,0.0,0.0,0.0,0.0,0.0,0.0,0.0,0.0,0.0,0.0,0.0,0.0,0.0,0.0,0.0,0.0,0.0,0.0,0.0,0.0,0.0,0.0,0.0,0.0,0.0,0.0,0.0,0.0,0.0,0.0,0.0,0.0,0.0,0.0,0.0,0.0,0.0,0.0,0.0,0.0,0.0,0.0,0.0,0.0,0.0,0.0,0.0,0.0,0.0,0.0,0.0,0.0,0.0,0.0,0.0,0.0,0.0,0.0,0.0,0.0,0.0,0.0,-2.6453,-2.6621,-2.7691,-3.1006,-3.0098,-2.8711,-2.7351,-2.3658,-2.1487,-2.1621,0.0,0.0,0.0,0.0,0.0,0.0,0.0,0.0,0.0,0.0,0.0,0.0,0.0,0.0,0.0,0.0,0.0,0.0,0.0,0.0,0.0,0.0,0.0,0.0,0.0,0.0,0.0,0.0,0.0,0.0,0.0,0.0,0.0,0.0,0.0,0.0,0.0,0.0,0.0,0.0,0.0,0.0,0.0,0.0,0.0,0.0,0.0,0.0,0.0,0.0,0.0,0.0,0.0,0.0,0.0,0.0,0.0,0.0,0.0,0.0,0.0,0.0,0.0,0.0,0.0,0.0,0.0,0.0,0.0,0.0,0.0,0.0,0.0,0.0,0.0,0.0,0.0,0.0,0.0,0.0,0.0,0.0,0.0,0.0,0.0,0.0,0.0,0.0,0.0,0.0,0.0,0.0,0.0,0.0,0.0,0.0,0.0,0.0,0.0,0.0,0.0,0.0,-2.5721,-2.6631,-2.7707,-2.9391,-2.8851,-2.73,-2.4704,-2.1615,-1.9704,0.0,0.0,0.0,0.0,0.0,0.0,0.0,0.0,0.0,0.0,0.0,0.0,0.0,0.0,0.0,0.0,0.0,0.0,0.0,0.0,0.0,0.0,0.0,0.0,0.0,0.0,0.0,0.0,0.0,0.0,0.0,0.0,0.0,0.0,0.0,0.0,0.0,0.0,0.0,0.0,0.0,0.0,0.0,0.0,0.0,0.0,0.0,0.0,0.0,0.0,0.0,0.0,0.0,0.0,0.0,0.0,0.0,0.0,0.0,0.0,0.0,0.0,0.0,0.0,0.0,0.0,0.0,0.0,0.0,0.0,0.0,0.0,0.0,0.0,0.0,0.0,0.0,0.0,0.0,0.0,0.0,0.0,0.0,0.0,0.0,0.0,0.0,0.0,0.0,0.0,0.0,0.0,0.0,0.0,0.0,0.0,0.0,0.0,0.0,0.0,0.0,0.0,0.0,-2.6475,-2.6008,-2.6245,-2.8263,-2.7219,-2.5525,-2.3498,-2.0778,-1.9277,-1.9434,0.0,0.0,0.0,0.0,0.0,0.0,0.0,0.0,0.0,0.0,0.0,0.0,0.0,0.0,0.0,0.0,0.0,0.0,0.0,0.0,0.0,0.0,0.0,0.0,0.0,0.0,0.0,0.0,0.0,0.0,0.0,0.0,0.0,0.0,0.0,0.0,0.0,0.0,0.0,0.0,0.0,0.0,0.0,0.0,0.0,0.0,0.0,0.0,0.0,0.0,0.0,0.0,0.0,0.0,0.0,0.0,0.0,0.0,0.0,0.0,0.0,0.0,0.0,0.0,0.0,0.0,0.0,0.0,0.0,0.0,0.0,0.0,0.0,0.0,0.0,0.0,0.0,0.0,0.0,0.0,0.0,0.0,0.0,0.0,0.0,0.0,0.0,0.0,0.0,0.0,0.0,0.0,0.0,0.0,0.0,0.0,0.0,0.0,0.0,0.0,0.0,0.0,-2.5773,-2.5155,-2.5151,-2.6662,-2.5602,-2.4103,-2.2306,-1.9944,-1.845,-1.821,0.0,0.0,0.0,0.0,0.0,0.0,0.0,0.0,0.0,0.0,0.0,0.0,0.0,0.0,0.0,0.0,0.0,0.0,0.0,0.0,0.0,0.0,0.0,0.0,0.0,0.0,0.0,0.0,0.0,0.0,0.0,0.0,0.0,0.0,0.0,0.0,0.0,0.0,0.0,0.0,0.0,0.0,0.0,0.0,0.0,0.0,0.0,0.0,0.0,0.0,0.0,0.0,0.0,0.0,0.0,0.0,0.0,0.0,0.0,0.0,0.0,0.0,0.0,0.0,0.0,0.0,0.0,0.0,0.0,0.0,0.0,0.0,0.0,0.0,0.0,0.0,0.0,0.0,0.0,0.0,0.0,0.0,0.0,0.0,0.0,0.0,0.0,0.0,0.0,0.0,0.0,0.0,0.0,0.0,0.0,0.0,0.0,0.0,0.0,0.0,0.0,0.0,-2.4229,-2.4225,-2.4318,-2.4801,-2.4109,-2.2966,-2.1291,-1.9207,-1.7535,-1.6575,0.0,0.0,0.0,0.0,0.0,0.0,0.0,0.0,0.0,0.0,0.0,0.0,0.0,0.0,0.0,0.0,0.0,0.0,0.0,0.0,0.0,0.0,0.0,0.0,0.0,0.0,0.0,0.0,0.0,0.0,0.0,0.0,0.0,0.0,0.0,0.0,0.0,0.0,0.0,0.0,0.0,0.0,0.0,0.0,0.0,0.0,0.0,0.0,0.0,0.0,0.0,0.0,0.0,0.0,0.0,0.0,0.0,0.0,0.0,0.0,-1.9481,-1.9265,0.0,0.0,0.0,0.0,0.0,0.0,0.0,0.0,0.0,0.0,0.0,0.0,0.0,0.0,0.0,0.0,0.0,0.0,0.0,0.0,0.0,0.0,0.0,0.0,0.0,0.0,0.0,0.0,0.0,0.0,0.0,0.0,0.0,0.0,0.0,0.0,0.0,0.0,0.0,0.0,-2.419,-2.358,-2.3225,-2.3701,-2.3031,-2.2057,-2.0891,-1.9318,-1.8061,-1.7316,-1.6022,0.0,0.0,0.0,0.0,0.0,0.0,0.0,0.0,0.0,0.0,0.0,0.0,0.0,0.0,0.0,0.0,0.0,0.0,0.0,0.0,0.0,0.0,0.0,0.0,0.0,0.0,0.0,0.0,0.0,0.0,0.0,0.0,0.0,0.0,0.0,0.0,0.0,0.0,0.0,0.0,0.0,0.0,0.0,0.0,0.0,0.0,0.0,0.0,0.0,0.0,0.0,0.0,0.0,0.0,0.0,0.0,0.0,0.0,0.0,-2.0553,-1.968,0.0,0.0,0.0,0.0,0.0,0.0,0.0,0.0,0.0,0.0,0.0,0.0,0.0,0.0,0.0,0.0,0.0,0.0,0.0,0.0,0.0,0.0,0.0,0.0,0.0,0.0,0.0,0.0,0.0,0.0,0.0,0.0,0.0,0.0,0.0,0.0,0.0,0.0,0.0,0.0,-2.3722,-2.3014,-2.2637,-2.3111,-2.2463,-2.1654,-2.0766,-1.9346,-1.8042,-1.7039,-1.5923,0.0,0.0,0.0,0.0,0.0,0.0,0.0,0.0,0.0,0.0,0.0,0.0,0.0,0.0,0.0,0.0,0.0,0.0,0.0,0.0,0.0,0.0,0.0,0.0,0.0,0.0,0.0,0.0,0.0,0.0,0.0,0.0,0.0,0.0,0.0,0.0,0.0,0.0,0.0,0.0,0.0,0.0,0.0,0.0,0.0,0.0,0.0,0.0,0.0,0.0,0.0,0.0,0.0,-2.5092,-2.5563,-2.5793,-2.5897,-2.572,-2.5153,-2.2538,-2.1171,-2.0704,-2.0731,0.0,0.0,0.0,0.0,0.0,0.0,0.0,0.0,0.0,0.0,0.0,0.0,0.0,0.0,0.0,0.0,0.0,0.0,0.0,0.0,0.0,0.0,-2.1913,-2.2056,-2.2456,-2.2642,-2.1947,0.0,0.0,0.0,0.0,0.0,0.0,0.0,0.0,0.0,0.0,0.0,-2.3211,-2.2594,-2.231,-2.284,-2.2228,-2.1547,-2.095,-1.9545,-1.8141,-1.6828,-1.5845,-1.4996,0.0,0.0,0.0,0.0,0.0,0.0,0.0,0.0,0.0,0.0,0.0,0.0,0.0,0.0,0.0,0.0,0.0,0.0,0.0,0.0,0.0,0.0,0.0,0.0,0.0,0.0,0.0,0.0,0.0,0.0,0.0,0.0,-1.9934,-2.1069,0.0,0.0,0.0,0.0,0.0,0.0,0.0,0.0,0.0,0.0,0.0,0.0,0.0,-2.3756,-2.4699,-2.5556,-2.5722,-2.534,-2.659,-2.6681,-2.5819,-2.6321,-2.6562,-2.6431,-2.5494,0.0,-2.2743,-2.2007,0.0,0.0,0.0,0.0,0.0,0.0,0.0,0.0,0.0,0.0,0.0,0.0,0.0,0.0,0.0,0.0,0.0,0.0,0.0,0.0,0.0,0.0,-2.2316,-2.3037,-2.3109,-2.3195,-2.3723,-2.2896,-2.1919,-2.1247,-2.1295,-2.1438,0.0,0.0,0.0,0.0,0.0,0.0,-2.3003,-2.2319,-2.205,-2.2731,-2.2198,-2.1779,-2.168,-2.0293,-1.9075,-1.8178,-1.6286,-1.5144,-1.4993,-1.5134,0.0,0.0,0.0,0.0,0.0,0.0,0.0,0.0,0.0,0.0,0.0,0.0,0.0,0.0,0.0,0.0,0.0,0.0,0.0,0.0,0.0,0.0,0.0,0.0,0.0,0.0,0.0,0.0,0.0,-2.0931,-2.1568,-2.1361,-2.1975,-2.2359,0.0,0.0,0.0,0.0,0.0,0.0,0.0,0.0,0.0,-2.4489,-2.5065,-2.5593,-2.6143,-2.7378,-2.8052,-2.8209,-2.8902,-2.9165,-2.9009,-2.9108,-2.9127,-2.9127,-2.883,-2.7915,-2.6452,-2.4481,-2.3064,-2.2168,0.0,0.0,0.0,0.0,-2.2226,-2.2417,-2.1819,-2.1561,-2.1533,-2.1442,0.0,0.0,0.0,0.0,0.0,0.0,0.0,-2.1498,-2.2123,-2.2768,-2.3377,-2.3687,-2.4017,-2.421,-2.4142,-2.3926,-2.3561,-2.2964,-2.2663,-2.241,-2.1989,-2.1631,0.0,0.0,0.0,-2.2456,-2.3324,-2.3094,-2.2948,-2.326,-2.2652,-2.2091,-2.1711,-2.0346,-1.9167,-1.8398,-1.671,-1.5561,-1.5103,-1.5518,-1.5901,0.0,0.0,0.0,0.0,0.0,0.0,0.0,0.0,0.0,0.0,0.0,0.0,0.0,0.0,0.0,0.0,0.0,0.0,0.0,0.0,0.0,0.0,0.0,0.0,0.0,0.0,0.0,0.0,-2.1908,-2.2719,-2.1647,-2.2841,-2.3482,0.0,0.0,0.0,0.0,0.0,0.0,-2.4498,-2.5052,-2.5663,-2.6367,-2.711,-2.7668,-2.8053,-2.9225,-3.0101,-3.0649,-3.0855,-3.1126,-3.1409,-3.1201,-3.1055,-3.0924,-3.0924,-3.0388,-2.9301,-2.6719,-2.4809,-2.3529,-2.3672,-2.3597,-2.3334,-2.3178,-2.342,-2.3687,-2.3125,-2.2857,-2.2641,-2.1966,-2.1097,-2.0243,-1.9915,0.0,0.0,0.0,0.0,-2.2562,-2.3178,-2.3838,-2.436,-2.4534,-2.4965,-2.5193,-2.4825,-2.4868,-2.4763,-2.4026,-2.377,-2.3442,-2.2714,-2.2232,0.0,-2.1939,-2.2459,-2.3096,-2.3814,-2.3603,-2.3489,-2.3652,-2.2883,-2.2146,-2.1637,-2.0246,-1.9151,-1.8601,-1.7044,-1.5932,-1.5354,-1.5866,-1.6172,-1.6172,0.0,0.0,0.0,0.0,0.0,0.0,0.0,0.0,0.0,0.0,0.0,0.0,0.0,0.0,0.0,0.0,0.0,0.0,0.0,0.0,0.0,0.0,0.0,0.0,0.0,0.0,0.0,0.0,0.0,-2.1568,-2.3401,0.0,0.0,0.0,0.0,-2.5418,-2.6424,-2.7052,-2.7102,-2.763,-2.8435,-2.9541,-2.9642,-3.0145,-3.1175,-3.1438,-3.1595,-3.162,-3.1837,-3.1701,-3.1214,-3.1384,-3.1216,-3.0736,-3.0736,-3.0474,-2.9918,-2.8116,-2.7027,-2.6327,-2.47,-2.4416,-2.476,-2.3605,-2.3212,-2.316,-2.2612,-2.2194,-2.1954,-2.2538,-2.2479,-2.2144,-2.2067,-2.1885,0.0,0.0,-2.2369,-2.3202,-2.3875,-2.4495,-2.5115,-2.5652,-2.5821,-2.5957,-2.6301,-2.5604,-2.4534,-2.3283,-2.3662,-2.3916,-2.3195,0.0,-2.3383,-2.3383,-2.3416,-2.3708,-2.4371,-2.3337,-2.2834,-2.3535,-2.2426,-2.1637,-2.1604,-2.0246,-1.9367,-1.9251,-1.7276,-1.6059,-1.5977,-1.6047,-1.6126,-1.6126,-1.6892,0.0,0.0,0.0,0.0,0.0,0.0,0.0,0.0,0.0,0.0,0.0,0.0,0.0,0.0,0.0,0.0,0.0,0.0,0.0,0.0,0.0,0.0,0.0,0.0,0.0,0.0,0.0,0.0,-2.4564,-2.523,0.0,-2.4948,-2.5385,-2.5875,-2.6275,-2.7246,-2.8122,-2.885,-2.9729,-3.0407,-3.0809,-3.1537,-3.1913,-3.1913,-3.2374,-3.2617,-3.2592,-3.2051,-3.1716,-3.1487,-3.1009,-3.0688,-3.0482,-3.0482,-3.0493,-3.041,-2.9678,-2.875,-2.774,-2.7105,-2.6765,-2.653,-2.572,-2.5667,-2.5819,-2.4909,-2.476,-2.4741,-2.3456,-2.2565,-2.1922,-2.1547,-2.1992,-2.271,-2.3117,-2.4146,-2.5217,-2.5466,-2.5827,-2.6104,-2.5936,-2.5907,-2.5934,-2.6069,-2.6019,-2.5669,-2.4785,-2.4104,-2.3714,-2.3779,-2.3472,-2.329,-2.3479,-2.3885,-2.4241,-2.4468,-2.45,-2.4244,-2.3612,-2.311,-2.2443,-2.1484,-2.0101,-1.9256,-1.9228,-1.7201,-1.6248,-1.669,-1.6293,-1.6272,-1.6727,-1.7011,-1.682,0.0,0.0,0.0,0.0,0.0,0.0,0.0,0.0,0.0,0.0,0.0,0.0,0.0,0.0,0.0,0.0,0.0,0.0,0.0,0.0,0.0,0.0,0.0,0.0,0.0,-2.419,-2.4958,-2.6155,-2.6714,-2.6866,-2.6467,-2.6691,-2.7199,-2.7949,-2.8626,-2.964,-3.1094,-3.1722,-3.2152,-3.2516,-3.3068,-3.3169,-3.2792,-3.2968,-3.3111,-3.3111,-3.2466,-3.1994,-3.159,-3.1069,-3.065,-3.0292,-3.0292,-3.0406,-3.0584,-3.0368,-2.9814,-2.9045,-2.8933,-2.8656,-2.8299,-2.7758,-2.7654,-2.7654,-2.6504,-2.6112,-2.5882,-2.4308,-2.3111,-2.23,-2.2326,-2.3071,-2.3984,-2.436,-2.5347,-2.6238,-2.5931,-2.6189,-2.6357,-2.5854,-2.5853,-2.5907,-2.5907,-2.5926,-2.5824,-2.5296,-2.4624,-2.4174,-2.4453,-2.396,-2.3655,-2.4048,-2.4489,-2.4798,-2.4871,-2.4871,-2.4515,-2.3593,-2.3042,-2.228,-2.1067,-2.0111,-1.9348,-1.8861,-1.7487,-1.684,-1.7079,-1.6852,-1.6937,-1.7436,-1.6982,-1.7104,-1.7903,0.0,0.0,0.0,0.0,0.0,0.0,0.0,0.0,0.0,0.0,0.0,0.0,0.0,0.0,0.0,0.0,0.0,0.0,0.0,0.0,0.0,0.0,0.0,-2.3067,-2.5315,-2.664,-2.6089,-2.7753,-2.8608,-2.7554,-2.8428,-2.9458,-3.049,-3.0695,-3.1689,-3.3745,-3.3381,-3.3603,-3.4655,-3.4129,-3.3853,-3.3872,-3.3345,-3.3111,-3.3111,-3.3068,-3.2466,-3.1411,-3.1615,-3.1113,-3.0113,-3.0113,-3.0241,-3.0368,-3.0177,-3.0216,-3.0355,-2.9977,-2.9954,-3.0048,-2.951,-2.8917,-2.8203,-2.7112,-2.5986,-2.5044,-2.5044,-2.423,-2.3498,-2.4678,-2.5199,-2.5465,-2.5409,-2.5853,-2.6124,-2.5238,-2.5439,-2.5853,-2.555,-2.5688,-2.5907,-2.5907,-2.543,-2.4942,-2.4672,-2.5086,-2.5368,-2.5036,-2.4666,-2.4603,-2.5201,-2.5278,0.0,-2.5559,-2.4385,-2.3528,-2.3528,-2.2248,-2.1099,-2.0434,-2.0337,-1.969,-1.8246,-1.807,-1.7747,-1.7144,-1.7727,-1.807,-1.8103,-1.6775,-1.7156,-1.9302,0.0,0.0,0.0,0.0,0.0,0.0,0.0,0.0,0.0,0.0,0.0,0.0,0.0,0.0,0.0,0.0,0.0,0.0,0.0,0.0,0.0,-2.2372,-2.3534,-2.5072,-2.5334,-2.6142,-2.8247,-2.8609,-2.8731,-2.8788,-2.938,-2.9888,-3.0242,-3.1623,-3.2717,-3.3293,-3.3276,-3.3524,-3.4079,-3.3256,-3.2985,-3.3294,-3.3144,-3.3111,-3.3111,-3.2641,-3.229,-3.1964,-3.1603,-3.1115,-3.0461,-3.0461,-3.0351,-3.0177,-2.9972,-3.0088,-3.0381,-3.0441,-3.0401,-3.0235,-2.9532,-2.8647,-2.7673,-2.7392,-2.6817,-2.6248,-2.6248,-2.5694,-2.514,-2.5484,-2.5939,-2.6238,-2.5818,-2.6312,-2.6701,-2.556,-2.5585,-2.5764,-2.5269,-2.5383,-2.5605,-2.5605,-2.5631,-2.5511,-2.4996,-2.4665,-2.4471,-2.4364,-2.4284,-2.441,-2.4985,-2.5084,-2.5143,-2.5368,-2.4585,-2.4062,-2.4223,-2.3431,-2.2604,-2.1892,-2.0888,-1.9884,-1.8959,-1.7423,-1.6937,-1.7792,-1.7034,-1.7066,-1.807,-1.8246,-1.8616,0.0,0.0,0.0,0.0,0.0,0.0,0.0,0.0,0.0,0.0,0.0,0.0,0.0,0.0,0.0,0.0,0.0,0.0,0.0,0.0,0.0,0.0,-2.3213,-2.4706,-2.6514,-2.6372,-2.6928,-2.9212,-2.9217,-2.9188,-2.9559,-3.0032,-3.0442,-3.0728,-3.1577,-3.2414,-3.3076,-3.2788,-3.2887,-3.3615,-3.2792,-3.2435,-3.2523,-3.2661,-3.2484,-3.1889,-3.192,-3.1608,-3.0955,-3.0465,-3.0162,-2.9958,-2.9776,-2.982,-2.9972,-2.9856,-2.9934,-3.0164,0.0,0.0,0.0,0.0,-2.8716,-2.8066,-2.7639,-2.7157,-2.6693,-2.6693,-2.6295,-2.5845,-2.6112,-2.6399,-2.6588,-2.5981,-2.6311,-2.6534,-2.5183,-2.5186,-2.5397,-2.4902,-2.5047,-2.5327,-2.5467,-2.5633,-2.5519,-2.4783,-2.4331,0.0,-2.36,-2.3515,-2.3709,-2.4328,-2.4533,-2.4695,-2.4895,-2.443,-2.4021,-2.3933,-2.3293,-2.2537,-2.16,-2.0988,0.0,0.0,0.0,-1.7919,-1.8733,-1.8065,0.0,0.0,0.0,-2.0078,-2.0078,-2.0078,0.0,0.0,-2.0101,-2.004,0.0,0.0,0.0,0.0,0.0,0.0,0.0,0.0,0.0,0.0,0.0,0.0,0.0,0.0,0.0,0.0,-2.4075,-2.5469,-2.7513,-2.7855,-2.8327,-2.9343,-2.9542,-2.9659,-2.9942,-3.0314,-3.0832,-3.1373,-3.1032,-3.1441,-3.2924,-3.2079,0.0,0.0,0.0,-3.1885,-3.1525,-3.1876,-3.1451,-3.0215,-3.1024,-3.0744,-2.9414,-2.9022,-2.8966,-2.9117,-2.8891,-2.9129,-2.9724,-2.9841,-2.9854,-2.9818,-3.0011,-3.0152,-3.0201,-2.9346,-2.898,-2.8757,-2.7892,0.0,0.0,-2.6798,-2.6425,-2.608,-2.6608,-2.6798,-2.6634,-2.6007,-2.6011,-2.5906,-2.4472,-2.4505,-2.4821,-2.4536,-2.4708,-2.5047,-2.53,-2.5411,-2.519,-2.4313,-2.4084,-2.3787,-2.2896,-2.2729,-2.2897,-2.3501,-2.3824,-2.409,-2.4328,-2.403,-2.3664,-2.3347,-2.2635,0.0,-2.0682,-2.0862,-2.0463,-1.9076,-1.945,-1.9673,-1.9578,-1.9908,-2.0367,-2.0927,-2.1166,-2.1277,-2.1277,-2.1293,-2.1293,-2.1261,-2.0072,-1.9941,0.0,0.0,0.0,0.0,0.0,0.0,0.0,0.0,0.0,0.0,0.0,0.0,0.0,0.0,0.0,-2.4004,-2.5781,-2.7305,-2.8066,-2.8486,-2.8883,-2.9351,-2.93,-2.9343,-2.9659,-2.9741,-2.9972,-3.0308,-3.1025,-3.157,-3.1891,-3.1344,-3.1318,-3.1984,-3.0692,-3.0153,-3.0468,-3.0559,-3.0443,-3.0215,-3.0396,0.0,-3.0009,-2.9962,-2.9685,-2.9309,-3.0015,-2.9935,-2.9302,-3.0114,-3.0206,-2.9804,-2.9818,-2.977,-2.9613,-2.9298,-2.8779,-2.8265,-2.8032,-2.7702,-2.7333,-2.7333,-2.7255,-2.7177,-2.7307,-2.7333,0.0,-2.608,-2.5855,-2.5625,-2.4413,-2.4213,-2.4245,-2.4187,-2.4392,-2.4595,-2.4679,-2.4907,-2.4969,-2.4528,-2.4028,-2.3548,-2.309,-2.2831,-2.283,-2.3282,-2.3414,-2.3631,-2.409,-2.357,-2.3544,-2.4543,-2.3491,-2.2635,-2.2417,-2.1447,-2.0495,-1.9609,-1.9625,-1.9452,-1.8916,-2.002,-2.0432,-1.9973,-2.0735,-2.1135,-2.1135,-2.1246,-2.1293,-2.1293,-2.1079,-2.1153,0.0,0.0,0.0,0.0,0.0,0.0,0.0,0.0,0.0,0.0,0.0,-2.1406,-2.207,0.0,-2.5039,-2.5898,-2.7129,-2.8203,-2.8848,-2.875,-2.88,-2.9362,-2.9092,-2.9026,-2.9343,-2.9546,-2.9639,-2.9574,-3.0265,-3.0601,-3.037,-3.0294,-3.0368,-3.0615,-2.9785,-2.9364,-2.9375,-2.9653,-2.9455,-2.8771,-2.9211,-2.9211,-2.8749,-2.8508,-2.8495,-2.8634,-2.9398,-2.9645,-2.9605,-3.0307,-3.0457,-3.0181,-2.9905,-2.9719,-2.9593,-2.9327,-2.8955,-2.86,-2.8081,-2.7825,-2.761,-2.7325,-2.7315,-2.739,-2.739,-2.7456,-2.7333,-2.6478,-2.6033,-2.5662,-2.5088,-2.4514,-2.4227,-2.4801,-2.4606,-2.4414,-2.4851,-2.4865,-2.4661,-2.4368,-2.4286,-2.3957,-2.3078,-2.3024,-2.3017,-2.2764,-2.2904,-2.3105,-2.3363,-2.3246,-2.329,-2.3703,-2.3277,-2.273,-2.2155,-2.1224,-2.0405,-1.9781,-1.9915,-1.9856,-1.9497,-2.0219,-2.0488,-2.0127,-2.0653,-2.099,-2.1087,-2.1167,-2.123,-2.1293,-2.134,-2.1402,0.0,0.0,0.0,0.0,0.0,0.0,0.0,-1.9884,-2.0566,-2.1134,-2.2168,-2.3242,-2.4023,-2.5449,-2.6758,-2.7591,-2.8086,-2.8633,-2.9238,-2.8789,-2.8604,-2.9016,-2.8779,-2.8727,-2.8973,-2.9367,-2.946,-2.9099,-2.9474,-2.9514,-2.9099,-2.9343,-2.942,-2.9257,-2.9096,-2.8766,-2.826,-2.8694,-2.8381,-2.7309,-2.8092,-2.8045,-2.7289,-2.6915,-2.7121,-2.7815,-2.832,-2.916,-3.0158,-3.0392,-3.0548,-3.0583,-3.0131,-2.988,-2.9767,-2.9441,-2.9264,-2.9073,-2.8339,-2.8027,-2.7873,-2.7438,-2.737,-2.7403,-2.7403,-2.7393,-2.7319,-2.6811,-2.6283,-2.5892,-2.5819,-2.5192,-2.4779,-2.5484,-2.501,-2.4577,-2.5024,-2.4766,-2.4348,-2.4202,-2.4445,-2.4285,-2.3161,-2.3214,-2.3179,-2.2488,-2.2596,-2.2827,-2.2896,-2.3169,-2.3179,-2.2723,-2.2765,-2.2404,-2.1204,-2.0606,-2.0137,-1.9839,-2.0032,-2.022,-2.032,-2.0392,-2.046,-2.046,-2.0645,-2.0827,-2.0974,-2.1023,-2.1103,-2.1246,-2.1246,-2.1309,-2.0274,-1.9501,-1.8854,-1.9385,-1.944,-1.9844,0.0,-2.2148,-2.2441,-2.3262,-2.416,-2.4941,-2.5382,-2.6309,-2.7109,-2.765,-2.834,-2.875,-2.8476,-2.8672,-2.8594,-2.7943,-2.8158,-2.8461,-2.8727,-2.8767,-2.8874,-2.9079,-2.9119,-2.9192,-2.9079,-2.9132,-2.8822,-2.8036,-2.7975,-2.7702,-2.7112,-2.7147,-2.7228,-2.7309,-2.7404,-2.7404,-2.7309,-2.7247,-2.7274,-2.7395,-2.7815,-2.9034,-3.0668,-3.0224,-3.0278,-3.0608,-3.0557,-3.0231,-2.9779,-2.9767,-2.9505,-2.92,-2.911,-2.8802,-2.8513,-2.8462,-2.8139,-2.7763,-2.7763,-2.743,-2.6976,-2.655,-2.6375,-2.6252,-2.5892,-2.6112,-2.6196,-2.5306,-2.5354,-2.538,-2.4442,-2.4181,-2.4189,-2.4401,-2.4084,-2.3766,-2.3933,-2.3499,-2.3111,-2.3024,-2.3033,-2.3178,-2.354,-2.3634,-2.3537,-2.3231,-2.2706,-2.1839,-2.0527,-1.9864,-1.9599,-1.9803,-1.9856,-1.998,-2.0272,-2.0289,-2.0306,-2.0306,-2.046,-2.0544,-2.0578,-2.0745,-2.0925,-2.1103,-2.1103,-2.1214,-1.9868,-1.9812,-1.9869,-1.9564,-2.0507,-2.1678,-2.2152,-2.2955,-2.3789,-2.446,-2.543,-2.6328,-2.6777,-2.7559,-2.8184,-2.8359,-2.8691,-2.8848,-2.8672,-2.8164,-2.7676,-2.7324,-2.6992,-2.7161,-2.8029,-2.8088,-2.8239,-2.8581,-2.8601,-2.8601,-2.8601,-2.8575,-2.8361,-2.8001,-2.7653,-2.731,-2.7094,-2.6782,-2.6736,-2.6832,-2.6976,-2.7071,-2.7071,-2.7214,-2.7573,-2.8117,-2.8296,-2.9149,-3.0405,-2.9823,-2.9565,-2.9511,-2.9675,-2.9478,-2.9091,-2.9624,-2.9667,-2.9492,-2.9139,-2.8924,-2.8746,-2.8417,-2.8043,-2.7656,-2.7656,-2.7343,-2.696,-2.6796,-2.6488,-2.6297,-2.6596,-2.6343,-2.6011,-2.5981,-2.5672,-2.5275,-2.5114,-2.4857,-2.4655,-2.4774,-2.4853,-2.4648,-2.3927,-2.3848,-2.3851,-2.3708,-2.3529,-2.337,-2.3348,-2.3339,-2.3226,-2.2984,-2.2345,-2.159,-2.0729,-2.0196,-1.9744,-1.9306,-1.9624,-1.9874,-1.9997,-2.0202,-2.032,-2.032,-2.034,-2.0409,-2.051,-2.0578,-2.0728,-2.0925,-2.1039,-2.1151,-1.9465,-1.9886,-2.0501,-1.9981,-2.1444,-2.3076,-2.294,-2.3984,-2.5078,-2.5508,-2.6445,-2.7246,-2.7461,-2.7988,-2.8437,-2.8555,-2.8574,-2.8574,-2.8574,-2.7676,-2.6934,-2.6699,-2.5996,-2.5977,-2.7031,-2.7297,-2.748,-2.791,-2.8047,-2.8125,-2.8125,-2.814,-2.8028,-2.7791,-2.7381,-2.7072,-2.6881,-2.656,-2.6448,-2.6496,-2.6709,-2.6805,-2.6805,-2.7071,-2.7547,-2.8233,-2.8258,-2.8863,-2.9738,-2.9308,-2.8965,-2.8694,-2.8915,-2.862,-2.8171,-2.8831,-2.9365,-2.9729,-2.9302,-2.9139,-2.9076,-2.8524,-2.8044,-2.7708,-2.7556,-2.723,-2.6875,-2.6909,-2.6603,-2.6406,-2.7051,-2.6698,-2.6207,-2.6473,-2.6037,-2.5543,-2.5522,-2.5214,-2.4905,-2.4753,-2.5066,-2.4966,-2.3938,-2.4099,-2.4372,-2.4228,-2.4014,-2.3763,-2.3512,-2.3273,-2.2941,-2.2598,-2.1991,-2.142,-2.1054,-2.0587,-2.0078,-1.9478,-1.9696,-1.9856,-1.9917,-2.0013,-2.0172,-2.0426,-2.026,-2.0347,-2.0722,-2.0536,-2.0544,-2.0728,-2.1116,-2.123,-1.9199,-1.9464,-2.015,-2.0926,-2.1969,-2.321,-2.466,-2.5684,-2.6445,-2.6875,-2.7324,-2.7519,-2.7109,-2.7051,-2.7207,-2.7637,-2.7767,-2.7767,-2.7767,-2.7305,-2.6699,-2.583,-2.5371,-2.5273,-2.5693,-2.6172,-2.6602,-2.7031,-2.7441,-2.7728,-2.7728,-2.8047,-2.7891,-2.7051,-2.7012,-2.6732,-2.613,-2.611,-2.6255,-2.6496,-2.6496,-2.6496,-2.6496,-2.6805,-2.6948,-2.6948,-2.7214,-2.7857,-2.8724,-2.8749,-2.8723,-2.8697,-2.8717,-2.8054,-2.7139,-2.718,-2.8291,-2.9804,-2.9779,-2.9754,-2.9679,-2.9063,-2.8524,-2.7971,-2.748,-2.6927,-2.6533,-2.6679,-2.6714,-2.6748,-2.6943,-2.743,-2.7533,-2.6396,-2.655,-2.6532,-2.5045,-2.4714,-2.4594,-2.4197,-2.4122,-2.4122,-2.4099,-2.4099,-2.4216,-2.4425,-2.4483,-2.4469,-2.4475,-2.368,-2.2869,-2.2278,-2.1682,-2.1316,-2.1288,-2.0753,-2.0514,-2.0723,-2.0197,-2.001,-2.0264,-1.9723,-1.986,-2.0775,-2.0171,-2.0314,-2.1257,-2.0628,-2.0375,-2.051,-2.1438,-2.161,-1.954,-2.0253,-2.1184,-2.211,-2.3279,-2.4422,-2.5205,-2.5968,-2.6478,-2.62,-2.6055,-2.5801,-2.5371,-2.5293,-2.5527,-2.6269,-2.6855,-2.7324,-2.7669,-2.7285,-2.6582,-2.543,-2.4902,-2.459,-2.4453,-2.5098,-2.5918,-2.6934,-2.7148,-2.7363,-2.7708,-2.7519,-2.7305,-2.7031,-2.6465,-2.6035,-2.582,-2.582,-2.5868,-2.5965,-2.6159,-2.6352,-2.6496,-2.6592,-2.664,-2.664,-2.6736,-2.7071,-2.7499,-2.7499,-2.745,-2.7358,-2.7942,-2.7545,-2.6765,-2.7353,-2.7725,-2.8011,-2.8011,-2.8435,-2.8806,-2.7957,-2.7878,-2.7962,-2.7189,-2.6777,-2.6499,-2.6568,-2.6568,-2.6712,-2.723,-2.7274,-2.7054,-2.6739,-2.6542,-2.6268,-2.5736,-2.573,-2.5806,-2.563,-2.573,-2.5563,-2.4835,-2.4704,-2.4603,-2.4268,-2.4245,-2.423,-2.4232,-2.3575,-2.2938,-2.2557,-2.236,-2.1983,-2.135,-2.1097,-2.069,-1.9927,-2.0276,-2.0151,-1.9411,-1.9767,-2.0144,-2.0446,-2.0044,-2.04,-2.1645,-2.1179,-2.1232,-2.17,-2.215,-2.2276,-2.0444,-2.1336,-2.2287,-2.3396,-2.4342,-2.5076,-2.554,-2.5894,-2.5921,-2.5158,-2.4805,-2.4394,-2.3652,-2.3379,-2.3627,-2.4844,-2.5371,-2.5996,-2.707,-2.6699,-2.6074,-2.5391,-2.4922,-2.4609,-2.4492,-2.4844,-2.541,-2.625,-2.6758,-2.7129,-2.7422,-2.7461,-2.7402,-2.7246,-2.6719,-2.6348,-2.6142,-2.6035,-2.5977,-2.5977,-2.6104,-2.63,-2.6446,-2.6363,-2.6352,-2.6352,-2.6448,-2.6592,-2.6757,-2.6757,-2.6567,-2.6393,-2.702,-2.6721,-2.5957,-2.6647,-2.6552,-2.6257,-2.6853,-2.7464,-2.7867,-2.7054,-2.7121,-2.7316,-2.6572,-2.6456,-2.6544,-2.6371,-2.6532,-2.6861,-2.7142,-2.7041,-2.6898,-2.6858,-2.668,-2.6426,-2.611,-2.6107,-2.618,-2.6013,-2.6116,-2.5979,-2.5287,-2.5245,-2.5066,-2.4517,-2.4419,-2.4304,-2.3959,-2.3663,-2.3309,-2.2891,-2.267,-2.2303,-2.1694,-2.156,-2.1047,-1.9998,-2.038,-2.0185,-1.9111,-1.944,-1.9817,-2.0187,-1.9948,-2.0425,-2.1615,-2.1523,-2.1705,-2.2133,-2.2716,-2.2848,-2.1845,-2.2548,-2.3338,-2.4764,-2.5075,-2.5208,-2.576,-2.5495,-2.49,-2.39,-2.3613,-2.3164,-2.1934,-2.1406,-2.1678,-2.3437,-2.3477,-2.3958,-2.6113,-2.5791,-2.5371,-2.5674,-2.541,-2.5312,-2.5654,-2.5371,-2.5184,-2.5184,-2.6289,-2.7012,-2.7051,-2.7812,-2.8066,-2.7728,-2.7669,-2.7422,-2.7012,-2.6621,-2.6426,-2.6426,-2.6406,-2.6387,-2.6367,-2.6162,-2.6091,-2.6091,-2.6352,-2.6448,-2.6496,-2.6476,-2.6235,-2.5852,-2.6087,-2.563,-2.4856,-2.5122,-2.4877,-2.47,-2.6381,-2.6976,-2.6948,-2.6388,-2.6268,-2.6194,-2.5636,-2.6068,-2.6631,-2.6139,-2.6577,-2.7087,-2.6681,-2.6882,-2.7107,-2.67,-2.6927,-2.7037,-2.6122,-2.5927,-2.5841,-2.5467,-2.5371,-2.5377,-2.551,-2.5667,-2.561,-2.5092,-2.5018,-2.4662,-2.3731,-2.3903,-2.3852,-2.3203,-2.2661,-2.2307,-2.2305,-2.1982,-2.1494,-2.0859,-2.0584,-2.0105,-1.9383,-1.8823,-1.8973,-1.9958,-1.9861,-2.0289,-2.1245,-2.1595,-2.1783,-2.1863,-2.3064,-2.3297,-2.3177,-2.3647,-2.4159,-2.5335,-2.5144,-2.4777,-2.5339,-2.4287,-2.3044,-2.2493,-2.0994,-1.9694,-1.9494,-1.9865,-2.082,-2.2559,-2.4056,-2.544,-2.668,-2.7207,-2.7168,-2.6328,-2.6406,-2.6309,-2.5732,-2.5918,-2.6055,-2.6055,-2.6367,-2.6836,-2.7461,-2.7715,-2.7826,-2.7728,-2.7051,-2.6816,-2.7012,-2.6914,-2.6855,-2.6855,-2.6543,-2.6387,-2.6367,-2.5986,-2.5771,-2.582,-2.5868,-2.6014,-2.6167,-2.5896,-2.5992,-2.6295,-2.6,-2.5583,-2.5098,-2.5144,-2.4702,-2.4057,-2.4509,-2.5295,-2.6005,-2.5209,-2.559,-2.616,-2.5369,-2.5453,-2.5793,-2.5677,-2.5806,-2.6156,-2.7096,-2.6833,-2.6566,-2.7476,-2.7203,-2.6625,-2.6417,-2.6409,-2.646,-2.6341,-2.6085,-2.5909,-2.5942,-2.5736,-2.5527,-2.5371,-2.5162,-2.473,-2.4055,-2.4063,-2.394,-2.3524,-2.2991,-2.2587,-2.2307,-2.1811,-2.107,-2.0007,-2.0315,-2.0036,-1.8925,-1.8782,-1.9037,-1.97,-1.9042,-1.928,-2.0479,-2.098,-2.1582,-2.2353,-2.3292,-2.3784,-2.4594,-2.5002,-2.5288,-2.6045,-2.5445,-2.4643,-2.4498,-2.3216,-2.1725,-2.0683,-1.9263,-1.8139,-1.7837,-1.8305,-1.9375,-2.1094,-2.2871,-2.4609,-2.6181,-2.7031,-2.7324,-2.6992,-2.7148,-2.7109,-2.6641,-2.6797,-2.7031,-2.7207,-2.7051,-2.7168,-2.7689,-2.7904,-2.793,-2.793,-2.748,-2.7246,-2.7305,-2.748,-2.748,-2.7285,-2.6875,-2.666,-2.6641,-2.5966,-2.5693,-2.5693,-2.5693,-2.5791,-2.5897,-2.5661,-2.5726,-2.5909,-2.5896,-2.5545,-2.5031,-2.5189,-2.4746,-2.4058,-2.3858,-2.4294,-2.4829,-2.4358,-2.4619,-2.5096,-2.4619,-2.4943,-2.5449,-2.5209,-2.5498,-2.5991,-2.6543,-2.669,-2.6828,-2.7385,-2.7368,-2.7193,-2.7193,-2.6895,-2.6611,-2.6611,-2.6697,-2.6671,-2.6416,-2.6242,-2.6058,-2.5801,-2.5682,-2.5387,-2.4814,-2.4354,-2.4053,-2.3828,-2.3303,-2.2776,-2.2378,-2.1918,-2.1108,-1.9898,-2.0282,-1.9999,-1.8756,-1.875,-1.8799,-1.8832,-1.8639,-1.8872,-1.9583,-2.0578,-2.1327,-2.1888,-2.2936,-2.3588,-2.5996,-2.6299,-2.6324,-2.6589,-2.5699,-2.4545,-2.3518,-2.2116,-2.0582,-1.8874,-1.8018,-1.7381,-1.6772,-1.7064,-1.7979,-1.973,-2.1151,-2.2886,-2.5324,-2.6142,-2.6816,-2.7682,-2.7832,-2.7885,-2.7885,-2.7885,-2.7969,-2.8262,-2.7949,-2.7806,-2.7806,-2.8086,-2.8262,-2.8203,-2.8262,-2.8086,-2.7728,-2.8086,-2.8105,-2.7754,-2.7246,-2.7012,-2.6992,-2.6083,-2.5693,-2.5693,-2.5693,-2.5693,-2.5693,-2.5615,-2.5449,-2.5243,-2.5748,-2.5508,-2.4881,-2.5085,-2.4897,-2.4456,-2.4011,-2.3851,-2.3791,-2.3817,-2.3797,-2.3797,-2.3797,-2.4488,-2.5209,-2.472,-2.5289,-2.5966,-2.5616,-2.6457,-2.732,-2.698,-2.7533,-2.8097,-2.8097,-2.7344,-2.67,-2.6625,-2.7107,-2.7364,-2.6781,-2.6841,-2.6764,-2.6253,-2.6257,-2.6181,-2.5696,-2.4866,-2.4279,-2.423,-2.3678,-2.3106,-2.2557,-2.2089,-2.137,-2.0258,-2.0338,-1.997,-1.9022,-1.8806,-1.859,-1.8287,-1.8633,-1.8822,-1.8822,-2.0285,-2.1035,-2.117,-2.2425,-2.3222,-2.6897,-2.686,-2.6603,-2.6181,-2.512,-2.3883,-2.2897,-2.0641,-1.8663,-1.8212,-1.6593,-1.5517,-1.6318,-1.7034,-1.8116,-2.0135,-2.1736,-2.3377,-2.5347,-2.6369,-2.726,-2.825,-2.8548,-2.8711,-2.8711,-2.8711,-2.8594,-2.832,-2.8223,-2.8184,-2.8184,-2.8262,-2.8125,-2.7793,-2.8105,-2.8086,-2.7728,-2.8086,-2.8262,-2.8184,-2.7383,-2.7012,-2.6992,-2.6083,-2.5693,-2.5693,-2.5693,-2.5693,-2.5654,-2.5332,-2.5352,-2.5586,-2.5341,-2.5173,-2.5055,-2.5102,-2.4827,-2.4389,-2.431,-2.4055,-2.3791,-2.3787,-2.3797,-2.3797,-2.3797,-2.3927,-2.4079,-2.3998,-2.4235,-2.4724,-2.5352,-2.6031,-2.6674,-2.732,-2.7803,-2.8097,-2.8097,-2.7946,-2.7695,-2.7253,-2.7253,-2.7188,-2.6634,-2.6671,-2.6722,-2.6621,-2.6348,-2.618,-2.6233,-2.5829,-2.5354,-2.4887,-2.4308,-2.3678,-2.3104,-2.2139,-2.1301,-2.0644,-2.0169,-2.0061,-2.0325,-1.9403,-1.9275,-2.0193,-1.9351,-1.888,-1.888,-1.9867,-2.0722,-2.1465,-2.2908,-2.3988,-2.7429,-2.7545,-2.7367,-2.6388,-2.5024,-2.3499,-2.1894,-1.9694,-1.7758,-1.7025,-1.5804,-1.5015,-1.5583,-1.6503,-1.7647,-1.9089,-2.052,-2.2327,-2.4852,-2.5585,-2.6536,-2.8276,-2.8567,-2.8637,-2.8687,-2.8622,-2.8516,-2.8301,-2.8301,-2.8301,-2.8301,-2.8301,-2.8203,-2.7988,-2.8184,-2.8203,-2.7988,-2.8184,-2.8301,-2.8281,-2.7656,-2.7226,-2.6992,-2.6367,-2.5957,-2.5693,-2.5693,-2.5693,-2.5674,-2.5508,-2.541,-2.5391,-2.541,-2.5273,-2.5106,-2.5106,-2.4941,-2.4727,-2.4492,-2.4277,-2.4088,-2.388,-2.3628,-2.345,-2.345,-2.3537,-2.3624,-2.3624,-2.3797,-2.41,-2.4509,-2.5561,-2.6651,-2.7092,-2.813,-2.8825,-2.8222,-2.8574,-2.8725,-2.7871,-2.7946,-2.7971,-2.7419,-2.7389,-2.7324,-2.7056,-2.6942,-2.6799,-2.656,-2.647,-2.6175,-2.5511,-2.5171,-2.4618,-2.3731,-2.3184,-2.2479,-2.1642,-2.1302,-2.1014,-2.0725,-2.0414,-2.0257,-2.0229,-1.9967,-1.9836,-1.9836,-2.027,-2.0828,-2.1509,-2.2376,-2.3409,-2.7709,-2.8062,-2.7969,-2.6602,-2.4941,-2.3086,-2.0957,-1.8915,-1.7139,-1.603,-1.5324,-1.4948,-1.5147,-1.5996,-1.6981,-1.8054,-1.9165,-2.0916,-2.3839,-2.4488,-2.5572,-2.7921,-2.8195,-2.8362,-2.8737,-2.861,-2.8466,-2.8466,-2.8315,-2.8272,-2.8301,-2.8301,-2.8301,-2.8301,-2.8301,-2.8301,-2.8301,-2.8301,-2.8301,-2.8281,-2.7871,-2.7441,-2.6992,-2.6582,-2.6152,-2.5693,-2.5693,-2.5693,-2.5693,-2.5693,-2.5527,-2.5254,-2.5605,-2.5527,-2.5215,-2.5215,-2.5215,-2.5156,-2.4824,-2.4629,-2.4512,-2.418,-2.3711,-2.3218,-2.312,-2.3232,-2.3406,-2.3406,-2.358,-2.3754,-2.3754,-2.5084,-2.6565,-2.6976,-2.841,-2.9451,-2.8649,-2.9176,-2.9503,-2.8473,-2.8587,-2.8712,-2.8197,-2.8097,-2.7971,-2.7519,-2.7511,-2.7389,-2.6933,-2.6918,-2.6711,-2.6135,-2.5991,-2.5475,-2.4387,-2.4178,-2.3655,-2.2637,-2.2453,-2.2035,-2.1276,-2.1511,-2.1328,-2.0544,-2.0883,-2.1066,-2.1066,-2.1066,-2.1327,-2.1852,-2.2218,-2.3084,-2.7545,-2.8008,-2.7891,-2.6161,-2.4446,-2.2594,-2.0469,-1.8097,-1.6237,-1.5865,-1.5144,-1.4817,-1.5662,-1.5808,-1.6444,-1.8321,-1.8974,-1.9962,-2.2234,-2.3608,-2.5062,-2.691,-2.7727,-2.8535,-2.9584,-2.9257,-2.9007,-2.9007,-2.842,-2.8093,-2.832,-2.8301,-2.8301,-2.8301,-2.8301,-2.8301,-2.8301,-2.8301,-2.8301,-2.8281,-2.7871,-2.7441,-2.6992,-2.6582,-2.6152,-2.5693,-2.5693,-2.5693,-2.5693,-2.5693,-2.5674,-2.5635,-2.5674,-2.5654,-2.5635,-2.5635,-2.5635,-2.5615,-2.5577,-2.5352,-2.5047,-2.5008,-2.4394,-2.3652,-2.3218,-2.3144,-2.3144,-2.3144,-2.3319,-2.3537,-2.3537,-2.4402,-2.5714,-2.7562,-2.8727,-2.9471,-2.9615,-2.9729,-2.9603,-2.8938,-2.8863,-2.8712,-2.8197,-2.8097,-2.8097,-2.8047,-2.763,-2.7374,-2.7525,-2.7043,-2.6756,-2.6883,-2.6561,-2.5947,-2.4988,-2.4413,-2.3809,-2.3184,-2.2688,-2.2583,-2.2947,-2.2558,-2.2506,-2.2869,-2.2479,-2.2243,-2.2243,-2.2244,-2.2485,-2.2962,-2.3608,-2.4229,-2.6807,-2.7369,-2.7402,-2.6044,-2.3907,-2.1668,-1.9943,-1.7634,-1.573,-1.5392,-1.4885,-1.4689,-1.5302,-1.5363,-1.5845,-1.7367,-1.7291,-1.8008,-2.0755,-2.1433,-2.2753,-2.5871,-2.645,-2.727,-2.9012,-2.8747,-2.846,-2.846,-2.8197,-2.7912,-2.7783,-2.7745,-2.7745,-2.7745,-2.7745,-2.7745,-2.7745,-2.7745,-2.7745,-2.7745,-2.7535,-2.7162,-2.6737,-2.6532,-2.6152,-2.5693,-2.5693,-2.5693,-2.5693,-2.5693,-2.5693,-2.5693,-2.5693,-2.5693,-2.5693,-2.5693,-2.5693,-2.5693,-2.5693,-2.5625,-2.543,-2.5156,-2.4891,-2.4434,-2.375,-2.3535,-2.3535,-2.3535,-2.3624,-2.3727,-2.3983,-2.4873,-2.6238,-2.8286,-2.8756,-2.9012,-2.9702,-2.9613,-2.9355,-2.9222,-2.9211,-2.9199,-2.9113,-2.9126,-2.9001,-2.8649,-2.8423,-2.8184,-2.7929,-2.74,-2.7142,-2.7316,-2.6977,-2.6444,-2.5742,-2.5547,-2.5221,-2.4624,-2.448,-2.4227,-2.3757,-2.3893,-2.3736,-2.3208,-2.3367,-2.3417,-2.3417,-2.3054,-2.3165,-2.3703,-2.3599,-2.4065,-2.5518,-2.6311,-2.6575,-2.544,-2.3144,-2.0795,-1.9416,-1.7191,-1.5351,-1.5125,-1.4803,-1.4676,-1.5081,-1.5142,-1.5496,-1.6707,-1.6431,-1.7012,-1.9701,-2.013,-2.1355,-2.4579,-2.5114,-2.6045,-2.8238,-2.8427,-2.8314,-2.8088,-2.7995,-2.7714,-2.7189,-2.7171,-2.7225,-2.7368,-2.7368,-2.7368,-2.7368,-2.7368,-2.7368,-2.7422,-2.7279,-2.7017,-2.6481,-2.6396,-2.6002,-2.543,-2.543,-2.543,-2.543,-2.543,-2.5479,-2.5596,-2.5596,-2.5645,-2.5693,-2.5693,-2.5693,-2.5693,-2.5693,-2.5693,-2.5635,-2.5371,-2.5273,-2.5137,-2.4394,-2.4082,-2.3984,-2.3984,-2.3984,-2.4043,-2.4336,-2.5219,-2.6417,-2.7939,-2.8399,-2.8756,-2.9525,-2.9504,-2.9376,-2.951,-2.9425,-2.9404,-2.9663,-2.9702,-2.9551,-2.9214,-2.8988,-2.8737,-2.8398,-2.7871,-2.754,-2.7496,-2.7256,-2.6824,-2.6158,-2.6205,-2.6071,-2.5478,-2.5547,-2.5304,-2.4558,-2.4897,-2.4801,-2.3965,-2.423,-2.436,-2.436,-2.3759,-2.3678,-2.407,-2.3652,-2.4021,-2.3666,-2.4766,-2.5401,-2.4141,-2.2062,-2.0024,-1.8874,-1.6735,-1.5039,-1.5156,-1.4931,-1.4807,-1.5204,-1.5204,-1.5496,-1.6707,-1.6908,-1.7458,-1.9072,-2.0338,-2.1566,-2.2785,-2.3675,-2.5094,-2.7399,-2.8762,-2.9154,-2.8275,-2.7936,-2.7473,-2.6628,-2.6591,-2.6845,-2.7368,-2.7368,-2.7368,-2.7368,-2.7368,-2.7368,-2.7368,-2.7422,-2.6986,-2.6224,-2.6224,-2.5718,-2.4892,-2.4892,-2.4892,-2.4892,-2.4892,-2.5088,-2.5284,-2.5284,-2.5479,-2.5693,-2.5693,-2.5693,-2.5693,-2.5693,-2.5693,-2.5693,-2.5693,-2.5674,-2.5596,-2.5195,-2.4746,-2.4414,-2.4414,-2.4414,-2.4414,-2.4414,-2.5083,-2.5854,-2.6059,-2.7568,-2.8955,-2.9145,-2.9563,-2.9877,-2.9877,-2.946,-2.917,-2.938,-2.9419,-2.9496,-2.974,-2.9302,-2.8888,-2.8888,-2.8423,-2.7896,-2.7379,-2.7304,-2.6955,-2.6176,-2.6107,-2.5851,-2.5345,-2.5294,-2.5358,-2.549,-2.549,-2.5553,-2.5767,-2.5249,-2.4992,-2.4992,-2.4387,-2.407,-2.4096,-2.407,-2.4419,-2.2207,-2.2664,-2.279,-2.2555,-2.0915,-1.9139,-1.8368,-1.6735,-1.5332,-1.5125,-1.4803,-1.4676,-1.5081,-1.4903,-1.5276,-1.7018,-1.7092,-1.7367,-1.8705,-1.9934,-2.1229,-2.273,-2.5381,-2.7142,-2.7327,-2.8194,-2.8526,-2.7972,-2.7564,-2.7251,-2.7013,-2.6738,-2.67,-2.6845,-2.6845,-2.6845,-2.6845,-2.6845,-2.6845,-2.6845,-2.6782,-2.6458,-2.5933,-2.5767,-2.5402,-2.4892,-2.4892,-2.4892,-2.4892,-2.4892,-2.4941,-2.5039,-2.5039,-2.5088,-2.5137,-2.5137,-2.5284,-2.543,-2.543,-2.5547,-2.5693,-2.5693,-2.5693,-2.5654,-2.5566,-2.5215,-2.4863,-2.4863,-2.5078,-2.5265,-2.5265,-2.5503,-2.5912,-2.6671,-2.7024,-2.7606,-2.9028,-2.918,-2.9253,-3.0094,-2.9821,-2.9511,-2.9711,-2.9455,-2.9287,-2.9482,-2.9372,-2.9286,-2.949,-2.9026,-2.8562,-2.8423,-2.8072,-2.7429,-2.6459,-2.646,-2.6451,-2.6273,-2.6406,-2.6294,-2.5916,-2.589,-2.5775,-2.5478,-2.5366,-2.5169,-2.478,-2.4719,-2.4491,-2.4096,-2.4096,-2.4187,-2.0586,-2.1053,-2.1146,-2.1151,-1.981,-1.8331,-1.7775,-1.6472,-1.5313,-1.5047,-1.4773,-1.4669,-1.4909,-1.4701,-1.5019,-1.656,-1.6743,-1.7165,-1.8522,-1.9879,-2.1475,-2.337,-2.6059,-2.7508,-2.7013,-2.782,-2.815,-2.7638,-2.7306,-2.7105,-2.6958,-2.6719,-2.6591,-2.6591,-2.6591,-2.6591,-2.6591,-2.6591,-2.6591,-2.6591,-2.655,-2.6178,-2.5622,-2.5498,-2.517,-2.4646,-2.4646,-2.4646,0.0,-2.4646,-2.4695,-2.4745,-2.4745,-2.4824,-2.4892,-2.4892,-2.499,-2.5137,-2.5235,-2.5546,-2.5829,-2.5927,-2.6094,-2.6103,-2.5791,-2.5547,-2.5312,-2.5312,-2.5527,-2.5693,-2.5693,-2.5693,-2.5965,-2.6962,-2.7254,-2.7718,-2.933,-2.9584,-2.971,-3.0417,-3.0174,-2.9796,-2.9805,-2.9487,-2.9273,-2.9312,-2.9341,-2.9457,-2.9624,-2.9401,-2.9139,-2.8913,-2.8587,-2.8047,-2.7203,-2.7173,-2.7167,-2.694,-2.7043,-2.6858,-2.634,-2.6314,-2.6194,-2.596,-2.5794,-2.5472,-2.4931,-2.4615,-2.4287,-2.3894,-2.3894,-2.3953,0.0,-1.9707,-2.0273,-1.9844,-1.8702,-1.7591,-1.71,-1.5976,0.0,-1.5018,-1.4832,-1.4714,-1.4807,-1.4669,-1.4836,-1.5716,-1.6211,-1.7002,-1.8577,-2.0228,-2.2153,-2.4537,-2.5894,-2.6609,-2.6554,-2.7618,-2.7985,-2.7233,-2.7141,-2.6995,-2.6646,-2.6609,-2.6573,-2.6554,-2.6536,-2.6554,-2.6591,-2.6554,-2.6554,-2.6591,-2.6536,-2.6114,-2.5414,-2.5396,-2.4955,-2.4202,-2.4202,-2.4202,-2.4202,-2.4202,-2.4301,-2.448,-2.448,-2.4627,-2.4843,-2.4843,-2.4892,-2.4892,-2.5137,-2.5553,-2.5979,-2.6229,-2.6602,-2.6777,-2.5927,-2.5713,-2.5732,-2.5693,-2.5693,-2.5693,-2.5693,-2.5693,-2.5917,-2.6867,-2.7793,-2.8773,-2.9852,-3.0449,-3.0798,-3.0927,-3.0494,-3.0073,-2.9747,-2.9642,-2.9464,-2.9175,-2.9248,-2.938,-2.938,-2.9599,-2.954,-2.9013,-2.8963,-2.8737,-2.8273,-2.8122,-2.7821,-2.7318,-2.7243,-2.7097,-2.6705,-2.6679,-2.6773,-2.6943,-2.6381,-2.5851,-2.5345,-2.4187,-2.365,-2.365,-2.3624,-2.3688,-1.6854,0.0,-1.814,-1.8008,-1.7401,-1.669,0.0,-1.5673,-1.5282,-1.524,-1.4877,-1.4811,-1.5748,-1.5418,-1.5533,-1.7275,-1.788,-1.8504,-1.9454,-2.1522,-2.3529,-2.5051,-2.6298,-2.6793,-2.6223,-2.6921,-2.738,-2.7196,-2.6903,-2.6811,-2.7031,-2.6756,-2.6444,-2.6168,-2.6168,-2.6261,-2.6591,-2.6261,-2.6315,-2.6591,-2.5949,-2.5564,-2.5414,-2.5051,-2.4679,-2.4202,-2.4202,-2.4202,-2.4202,-2.4202,-2.4251,-2.4251,-2.4251,-2.4301,-2.435,-2.435,-2.4449,-2.4578,-2.4677,-2.4899,-2.5191,-2.5487,-2.5761,-2.5947,-2.5752,-2.5977,-2.6172,-2.5791,-2.5693,-2.5693,-2.5693,-2.5693,-2.5791,-2.6014,-2.6235,-2.6887,-2.868,-2.9145,-2.967,-3.1192,-3.1091,-3.0681,-3.0604,-2.9904,-2.9407,-2.9464,-2.9178,-2.8988,-2.917,-2.9209,-2.9277,-2.9283,-2.9258,-2.9311,-2.9402,-2.8222,-2.7419,-2.7329,-2.6927,-2.6659,-2.6568,-2.6568,-2.6568,-2.6636,-2.6181,-2.5957,-2.5902,-2.4745,-2.4208,-2.4182,-2.3803,-2.3628,-1.6249,-1.6676,-1.7152,-1.7152,-1.6914,-1.6529,-1.6015,-1.5613,-1.5253,-1.4995,-1.4683,-1.4763,-1.5606,-1.5404,-1.5698,-1.7532,-1.8174,-1.9015,-2.0753,-2.2437,-2.406,-2.5525,-2.6389,-2.6811,-2.6591,-2.6921,-2.7105,-2.6921,-2.6719,-2.6591,-2.6664,-2.6408,-2.6168,-2.5764,-2.5745,-2.5855,-2.6023,-2.5855,-2.5855,-2.6023,-2.5635,-2.5271,-2.5139,-2.4886,-2.4606,-2.4202,-2.4202,-2.4202,-2.4202,-2.4202,-2.4202,-2.4202,-2.4202,-2.4202,-2.4202,-2.4202,-2.4251,-2.4399,-2.448,-2.4808,-2.5275,-2.5374,-2.5756,-2.6051,-2.5664,-2.5937,-2.6289,-2.581,-2.5693,-2.5693,-2.5693,-2.5693,-2.582,-2.6284,-2.638,-2.6839,-2.8355,-2.905,-2.9692,-3.0824,-3.1144,-3.1211,-3.0946,-3.0398,-2.9983,-2.9842,-2.9658,-2.9448,-2.9365,-2.942,-2.9401,-2.9273,-2.9263,-2.9326,-2.9468,-2.8512,-2.7949,-2.8047,-2.777,-2.7469,-2.7218,-2.7002,-2.6751,-2.6499,-2.5988,-2.581,-2.5876,-2.4982,-2.445,-2.4227,-2.3923,-2.3674,-1.6128,-1.6411,-1.6821,-1.6812,-1.6708,-1.6548,-1.608,-1.5662,-1.5235,-1.4866,-1.4744,-1.4854,-1.5368,-1.546,-1.5955,-1.744,-1.8247,-1.96,-2.2392,-2.3334,-2.4354,-2.5837,-2.6388,-2.6664,-2.6885,-2.6958,-2.683,-2.6426,-2.6408,-2.6243,-2.5947,-2.5929,-2.5745,-2.5289,-2.5341,-2.5304,-2.5231,-2.5304,-2.5359,-2.5414,-2.5304,-2.5051,-2.4776,-2.4721,-2.4532,-2.4202,-2.4202,-2.4202,-2.4202,-2.4202,-2.4202,-2.4202,-2.4202,-2.4202,-2.4202,-2.4202,-2.4202,-2.4202,-2.4399,-2.4871,-2.5421,-2.5421,-2.585,-2.6225,-2.5495,-2.575,-2.6161,-2.5791,-2.5693,-2.5693,-2.5693,-2.5693,-2.5917,-2.6791,-2.6962,-2.7247,-2.8262,-2.9143,-2.9829,-3.0125,-3.0869,-3.1372,-3.1072,-3.0927,-3.0778,-3.0278,-3.0326,-3.0167,-2.9747,-2.9748,-2.9649,-2.9224,-2.9101,-2.9052,-2.9091,-2.8842,-2.8786,-2.8975,-2.8863,-2.8562,-2.8122,-2.757,-2.7102,-2.6625,-2.6047,-2.5737,-2.5737,-2.5209,-2.4707,-2.423,-2.4155,-2.3941,-1.5204,-1.5818,-1.6363,-1.6317,-1.6177,-1.603,-1.5923,-1.5771,-1.5712,-1.5973,-1.5753,-1.5845,-1.6927,-1.7128,-1.744,-1.8375,-1.9985,-2.2016,-2.4556,-2.5014,-2.5307,-2.5947,-2.6388,-2.6334,-2.5764,-2.6002,-2.6039,-2.5582,-2.5564,-2.558,-2.5525,-2.5506,-2.5341,-2.4886,-2.4867,-2.4753,-2.4385,-2.4753,-2.5032,-2.5414,-2.4716,-2.4551,-2.4776,-2.4459,-2.4257,-2.4202,-2.4202,-2.4202,-2.4202,-2.4202,-2.4202,-2.4202,-2.4202,-2.4202,-2.4202,-2.4202,-2.4202,-2.4202,-2.4251,-2.4436,-2.4672,-2.4672,-2.4876,-2.5191,-2.5273,-2.5371,-2.5527,-2.5664,-2.5693,-2.5693,-2.5693,-2.5693,-2.5742,-2.5868,-2.5917,-2.6187,-2.72,-2.7558,-2.8168,-2.9897,-3.0306,-3.0643,-3.1464,-3.1211,-3.0855,-3.0802,-3.0417,-3.0103,-3.0007,-2.9663,-2.9431,-2.9513,-2.9123,-2.891,-2.9091,-2.9057,-2.9125,-2.9294,-2.8637,-2.8197,-2.8097,-2.757,-2.7278,-2.7203,-2.665,-2.6373,-2.6373,-2.5762,-2.5435,-2.5335,-2.4908,-2.4657,-1.4781,-1.5368,-1.5969,-1.5928,-1.634,-1.6662,-1.6219,-1.6061,-1.6138,-1.656,-1.6486,-1.6725,-1.7935,-1.832,-1.8962,-2.0429,-2.2006,-2.3437,-2.4606,-2.4955,-2.5249,-2.5653,-2.5874,-2.5876,-2.5764,-2.6214,-2.6154,-2.5433,-2.5914,-2.5872,-2.512,-2.5051,-2.4867,-2.4514,-2.4496,-2.4404,-2.4202,-2.4404,-2.4587,-2.4753,-2.4385,-2.4312,-2.4477,-2.4293,-2.4202,-2.4202,-2.4202,-2.4202,-2.4202,-2.4202,-2.4202,-2.4202,-2.4202,-2.4202,-2.4202,-2.4202,-2.4202,-2.4202,-2.4202,-2.4251,-2.435,-2.435,-2.4597,-2.4941,-2.5039,-2.5284,-2.5528,-2.5693,-2.5693,-2.5693,-2.5693,-2.5693,-2.5693,-2.5693,-2.5693,-2.582,-2.6284,-2.6819,-2.7463,-2.8402,-2.9004,-2.9692,-3.0734,-3.0681,-3.0517,-3.0517,-3.0305,-2.9829,-2.9026,-2.9187,-2.906,-2.8333,-2.8332,-2.8193,-2.7718,-2.7586,-2.8028,-2.9341,-2.9163,-2.8875,-2.8574,-2.8021,-2.7595,-2.7329,-2.6776,-2.6499,-2.6499,-2.6223,-2.5946,-2.5586,-2.536,-2.5084,-1.4708,-1.5166,-1.568,-1.568,-1.6468,-1.7128,-1.6817,-1.667,-1.6762,-1.7348,-1.7458,-1.7752,-1.8687,-1.9329,-2.0356,-2.2254,-2.3565,-2.4459,-2.4735,-2.5047,-2.5326,-2.5619,-2.5617,-2.5703,-2.6024,-2.65,-2.6422,-2.5549,-2.6155,-2.6021,-2.4748,-2.4629,-2.4532,-2.422,-2.4202,-2.4202,-2.4202,-2.4202,-2.4202,-2.4202,-2.4202,-2.4202,-2.4202,-2.4202,-2.4202,-2.4202,-2.4202,-2.4202,-2.4202,-2.4202,-2.4202,-2.4202,-2.4202,-2.4202,-2.4202,-2.4202,-2.4202,-2.4202,-2.4202,-2.4202,-2.4202,-2.4202,-2.4498,-2.4843,-2.4892,-2.5235,-2.5645,-2.5693,-2.5693,-2.5693,-2.5693,-2.5693,-2.5693,-2.5693,-2.5693,-2.5693,-2.5693,-2.6332,-2.6914,-2.7132,-2.784,-2.868,-2.9692,-2.9829,-2.9829,-2.9829,-2.9829,-2.942,-2.8224,-2.8679,-2.8589,-2.7413,-2.7607,-2.7442,-2.6562,-2.6359,-2.6944,-2.853,-2.9302,-2.9451,-2.8913,-2.8361,-2.7921,-2.7494,-2.6977,-2.6675,-2.6675,-2.6675,-2.6399,-2.5787,-2.5787,-2.5586,-1.4964,-1.5368,-1.568,-1.568,-1.6046,-1.6654,-1.7715,-1.7697,-1.7734,-1.8889,-1.9127,-1.9164,-1.9237,-2.0191,-2.153,-2.3133,-2.417,-2.5124,-2.6261,-2.6444,-2.6463,-2.6499,-2.6151,-2.6039,-2.6234,-2.6337,-2.6161,-2.5723,-2.5732,-2.5342,-2.4306,-2.4257,-2.4238,-2.4202,-2.4202,-2.4202,-2.4202,-2.4202,-2.4202,-2.4202,-2.4202,-2.4202,-2.4202,-2.4202,-2.4202,-2.4202,-2.4202,-2.4202,-2.4202,-2.4202,-2.4202,-2.4202,-2.4202,-2.4202,-2.4202,-2.4202,-2.4202,-2.4202,-2.4202,-2.4202,-2.4202,-2.4202,-2.435,-2.4578,-2.4843,-2.5088,-2.5382,-2.5645,-2.5693,-2.5693,-2.5693,-2.5693,-2.5693,-2.5693,-2.5693,-2.5693,-2.5693,-2.5791,-2.6091,-2.701,-2.7274,-2.7605,-2.8634,-2.8819,-2.8819,-2.8819,-2.8819,-2.8751,-2.8683,-2.8289,-2.796,-2.7871,-2.7435,-2.6977,-2.654,-2.6646,-2.6639,-2.6337,-2.8307,-2.9272,-2.8913,-2.8361,-2.8097,-2.8047,-2.7494,-2.7218,-2.7218,-2.7218,-2.6977,-2.6424,-2.6424,-2.6399,-1.4689,-1.5386,-1.601,-1.5753,-1.6376,-1.7238,-1.7917,-1.8539,-1.9274,-2.0228,-2.0833,-2.1211,-2.1485,-2.2108,-2.2905,-2.3785,-2.4812,-2.5635,-2.5803,-2.6094,-2.6363,-2.6769,-2.6403,-2.6478,-2.714,-2.7586,-2.7482,-2.6696,-2.6628,-2.6196,-2.5167,-2.4548,-2.4202,-2.4202,-2.4202,-2.4202,-2.4202,-2.4202,-2.4202,-2.4202,-2.4202,-2.4202,-2.4202,-2.4202,-2.4202,-2.4202,-2.4202,-2.4202,-2.4202,-2.4202,-2.4202,-2.4202,-2.4202,-2.4202,-2.4202,-2.4202,-2.4202,-2.4202,-2.4202,-2.4301,-2.4399,-2.4399,-2.4646,-2.5039,-2.5137,-2.5333,-2.5596,-2.5693,-2.5693,-2.5693,-2.5693,-2.5693,-2.5693,-2.5693,-2.5693,-2.5693,-2.5693,-2.5693,-2.582,-2.6187,-2.6284,-2.66,-2.7605,-2.7793,-2.7793,-2.7793,-2.7793,-2.751,-2.6935,-2.7176,-2.7212,-2.6594,-2.6139,-2.5945,-2.6096,-2.6163,-2.6039,-2.568,-2.7382,-2.8394,-2.8412,-2.8422,-2.83,-2.8122,-2.757,-2.7153,-2.6801,-2.6801,-2.67,-2.6499,-2.6499,-2.6499,-1.4506,-1.5203,-1.59,-1.5735,-1.6688,-1.7899,-1.8667,-1.9491,-2.0369,-2.1431,-2.2089,-2.2565,-2.2858,-2.3133,-2.3407,-2.373,-2.4794,-2.5598,-2.5451,-2.5653,-2.6076,-2.6839,-2.6532,-2.6764,-2.7986,-2.8451,-2.8423,-2.772,-2.7243,-2.6628,-2.5732,-2.4613,-2.4073,-2.4202,-2.4202,-2.4146,-2.395,-2.4128,-2.4128,-2.3969,-2.4146,-2.4202,-2.4202,-2.4202,-2.4202,-2.4202,-2.4202,-2.4202,-2.4202,-2.4202,-2.4202,-2.4202,-2.4202,-2.4202,-2.4202,-2.4202,-2.4202,-2.4202,-2.4251,-2.4399,-2.4529,-2.4578,-2.4941,-2.5284,-2.5284,-2.5499,-2.5693,-2.5693,-2.5693,-2.5693,-2.5693,-2.5693,-2.5693,-2.5693,-2.5693,-2.5693,-2.5693,-2.5693,-2.5693,-2.5693,-2.5693,-2.5917,-2.66,-2.6744,-2.6744,-2.6744,-2.6744,-2.6456,-2.5791,-2.6284,-2.6456,-2.5791,-2.5469,-2.5382,-2.5645,-2.5625,-2.5361,-2.4948,-2.617,-2.7067,-2.7289,-2.7864,-2.806,-2.7841,-2.7826,-2.7519,-2.7027,-2.7027,-2.6826,-2.6499,-2.6499,-2.6499,-1.4506,-1.4799,-1.5203,-1.5606,-1.6927,-1.8521,-2.0173,-2.0497,-2.0955,-2.2584,-2.2931,-2.2913,-2.2913,-2.2913,-2.2913,-2.2913,-2.3987,-2.4922,-2.5307,-2.5414,-2.5759,-2.6781,-2.6562,-2.6919,-2.8581,-2.8724,-2.8724,-2.8724,-2.7391,-2.6349,-2.5741,-2.4283,-2.373,-2.4183,-2.4183,-2.395,-2.3499,-2.3932,-2.3932,-2.3499,-2.395,-2.4202,-2.4202,-2.4202,-2.4202,-2.4202,-2.4202,-2.4202,-2.4202,-2.4202,-2.4202,-2.4202,-2.4202,-2.4202,-2.4202,-2.4202,-2.4202,-2.4251,-2.443,-2.448,-2.4529,-2.4843,-2.5088,-2.5284,-2.5284,-2.5499,-2.5693,-2.5693,-2.5693,-2.5693,-2.5693,-2.5693,-2.5693,-2.5693,-2.5693,-2.5693,-2.5693,-2.5693,-2.5693,-2.5693,-2.5693,-2.5693,-2.5693,-2.5693,-2.5693,-2.5693,-2.5693,-2.5693,-2.5693,-2.5693,-2.5693,-2.5693,-2.5693,-2.5547,-2.5165,-2.5125,-2.4754,-2.3848,-2.4618,-2.5252,-2.5565,-2.6674,-2.7284,-2.7299,-2.8371,-2.8612,-2.8097,-2.8097,-2.7519,-2.6499,-2.6499,-2.6499,-1.4579,-1.5221,-1.6046,-1.645,-1.799,-1.971,-2.1028,-2.154,-2.2263,-2.3895,-2.4005,-2.3804,-2.3804,-2.3804,-2.3712,-2.337,-2.417,-2.4721,-2.4587,-2.4826,-2.5541,-2.6956,-2.6988,-2.7678,-2.9577,-2.9444,-2.924,-2.924,-2.7246,-2.5945,-2.5767,-2.406,-2.3133,-2.3261,-2.3308,-2.3206,-2.3078,-2.3206,-2.3206,-2.3096,-2.3529,-2.3877,-2.4202,-2.4202,-2.4202,-2.4202,-2.4202,-2.4202,-2.4202,-2.4202,-2.4202,-2.4202,-2.4202,-2.4202,-2.4202,-2.4202,-2.4202,-2.4251,-2.443,-2.4627,-2.4843,-2.5088,-2.5333,-2.5596,-2.5596,-2.5645,-2.5693,-2.5693,-2.5693,-2.5693,-2.5693,-2.5693,-2.5693,-2.5693,-2.5693,-2.5693,-2.5693,-2.5693,-2.5693,-2.5693,-2.5693,-2.5693,-2.5693,-2.5693,-2.5693,-2.5693,-2.5693,-2.5693,-2.5693,-2.5693,-2.5965,-2.6696,-2.6091,-2.5954,-2.654,-2.594,-2.5293,-2.4773,-2.467,-2.4747,-2.5039,-2.5928,-2.6686,-2.7074,-2.7517,-2.764,-2.7329,-2.7473,-2.7203,-2.6499,-2.6499,-2.6499,-1.4726,-1.5483,-1.6453,-1.722,-1.8907,-2.0717,-2.2089,-2.2968,-2.3914,-2.5234,-2.4955,-2.4459,-2.4459,-2.4134,-2.3822,-2.3535,-2.4097,-2.4496,-2.4238,-2.4225,-2.4911,-2.6668,-2.6744,-2.7427,-2.9418,-2.9034,-2.8699,-2.8699,-2.6417,-2.5087,-2.527,-2.3594,-2.273,-2.2895,-2.2913,-2.2821,-2.2657,-2.2821,-2.2821,-2.2657,-2.3078,-2.3389,-2.3694,-2.4055,-2.4202,-2.4202,-2.4202,-2.4202,-2.4202,-2.4202,-2.4202,-2.4202,-2.4202,-2.4202,-2.4202,-2.4202,-2.4251,-2.435,-2.4578,-2.4824,-2.5088,-2.5382,-2.5596,-2.5693,-2.5693,-2.5693,-2.5693,-2.5693,-2.5693,-2.5693,-2.5693,-2.5693,-2.5693,-2.5693,-2.5693,-2.5693,-2.5693,-2.5693,-2.5693,-2.5693,-2.5693,-2.5693,-2.5693,-2.5693,-2.5693,-2.5693,-2.5693,-2.5693,-2.5693,-2.5693,-2.5917,-2.6552,-2.6042,-2.5965,-2.6552,-2.6062,-2.5547,-2.5145,-2.4668,-2.442,-2.4387,-2.519,-2.5768,-2.6237,-2.7135,-2.7498,-2.7225,-2.7478,-2.7318,-2.6826,-2.66,-2.6499,-1.4946,-1.5753,-1.6636,-1.788,-1.9787,-2.1731,-2.3261,-2.4537,-2.5617,-2.6279,-2.5582,-2.4831,-2.4794,-2.417,-2.359,-2.3553,-2.3877,-2.4146,-2.4146,-2.3749,-2.4145,-2.5991,-2.5879,-2.6396,-2.8245,-2.77,-2.7173,-2.7173,-2.5112,-2.4002,-2.4349,-2.3016,-2.24,-2.2785,-2.2803,-2.262,-2.2236,-2.2602,-2.2602,-2.2236,-2.2657,-2.2858,-2.2876,-2.3694,-2.4091,-2.4091,-2.4128,-2.4128,-2.4091,-2.4128,-2.4146,-2.4146,-2.4183,-2.4202,-2.4202,-2.4202,-2.435,-2.4529,-2.4794,-2.5088,-2.5333,-2.5577,-2.5693,-2.5693,-2.5693,-2.5693,-2.5693,-2.5693,-2.5693,-2.5693,-2.5693,-2.5693,-2.5693,-2.5693,-2.5693,-2.5693,-2.5693,-2.5693,-2.5693,-2.5693,-2.5693,-2.5693,-2.5693,-2.5693,-2.5693,-2.5693,-2.5693,-2.5693,-2.5693,-2.5693,-2.5693,-2.5693,-2.5693,-2.5693,-2.5693,-2.5693,-2.5566,-2.5156,-2.4727,-2.4297,-2.3926,-2.4367,-2.4745,-2.5041,-2.6849,-2.7664,-2.74,-2.7741,-2.7678,-2.7237,-2.6686,-2.6506,-1.5441,-1.6156,-1.7147,-1.8669,-2.1053,-2.3224,-2.428,-2.4959,-2.5378,-2.5197,-2.5216,-2.5142,-2.4849,-2.4629,-2.4409,-2.4079,-2.3822,-2.3627,-2.3627,-2.3279,-2.3495,-2.4763,-2.4802,-2.5245,-2.6483,-2.6055,-2.5692,-2.5692,-2.4183,-2.3325,-2.3423,-2.2389,-2.187,-2.1943,-2.1943,-2.1906,-2.1815,-2.1906,-2.1906,-2.1815,-2.2217,-2.2419,-2.2437,-2.2931,-2.3169,-2.3187,-2.3499,-2.3444,-2.3187,-2.3499,-2.3627,-2.3712,-2.4073,-2.4202,-2.4202,-2.4202,-2.435,-2.4529,-2.4794,-2.5088,-2.5333,-2.5577,-2.5693,-2.5693,-2.5693,-2.5693,-2.5693,-2.5693,-2.5693,-2.5693,-2.5693,-2.5693,-2.5693,-2.5693,-2.5693,-2.5693,-2.5693,-2.5693,-2.5693,-2.5693,-2.5693,-2.5693,-2.5693,-2.5693,-2.5693,-2.5693,-2.5693,-2.5693,-2.5693,-2.5693,-2.5693,-2.5693,-2.5693,-2.5693,-2.5693,-2.5693,-2.5654,-2.5605,-2.5176,-2.493,-2.4832,-2.3935,-2.3844,-2.4616,-2.521,-2.5598,-2.5784,-2.625,-2.6511,-2.6657,-2.6299,-2.6489,-1.5239,-1.6138,-1.7477,-1.9861,-2.1833,-2.337,-2.4042,-2.4354,-2.4427,-2.4225,-2.4666,-2.4904,-2.4299,-2.4189,-2.406,-2.3639,-2.3352,-2.3206,-2.3206,-2.2858,-2.2973,-2.401,-2.3951,-2.4217,-2.5213,-2.4431,-2.3907,-2.3907,-2.2648,-2.1859,-2.1859,-2.1571,-2.1394,-2.1394,-2.1595,-2.1687,-2.1687,-2.1687,-2.1687,-2.1687,-2.1906,-2.1998,-2.2016,-2.262,-2.2913,-2.2913,-2.3133,-2.3096,-2.2931,-2.3133,-2.3206,-2.3261,-2.3712,-2.3859,-2.3877,-2.4128,-2.4399,-2.4726,-2.4824,-2.5137,-2.5479,-2.5645,-2.5693,-2.5693,-2.5693,-2.5693,-2.5693,-2.5693,-2.5693,-2.5693,-2.5693,-2.5693,-2.5693,-2.5693,-2.5693,-2.5693,-2.5693,-2.5693,-2.5693,-2.5693,-2.5693,-2.5693,-2.5693,-2.5693,-2.5693,-2.5693,-2.5693,-2.5693,-2.5693,-2.5693,-2.5693,-2.5693,-2.5693,-2.5693,-2.5693,-2.5693,-2.5693,-2.5693,-2.5312,-2.5106,-2.5106,-2.4219,-2.3964,-2.4492,-2.4934,-2.5229,-2.5406,-2.5918,-2.6188,-2.6263,-2.5905,-2.6232,-1.4983,-1.6193,-1.7917,-2.0753,-2.2044,-2.2774,-2.3231,-2.3292,-2.3274,-2.3201,-2.3883,-2.4262,-2.3517,-2.3389,-2.3279,-2.2968,-2.284,-2.2803,-2.2803,-2.2437,-2.25,-2.3249,-2.3055,-2.311,-2.3829,-2.289,-2.2229,-2.2152,-2.1128,-2.0521,-2.0521,-2.0833,-2.1034,-2.1108,-2.1383,-2.1522,-2.1577,-2.1522,-2.1485,-2.1485,-2.154,-2.1577,-2.1614,-2.2364,-2.2693,-2.2693,-2.2767,-2.2767,-2.2693,-2.2767,-2.2803,-2.284,-2.3316,-2.3499,-2.3553,-2.4055,-2.4498,-2.4824,-2.4824,-2.5186,-2.5645,-2.5645,-2.5645,-2.5693,-2.5693,-2.5693,-2.5693,-2.5693,-2.5693,-2.5693,-2.5693,-2.5693,-2.5713,-2.5791,-2.581,-2.5791,-2.5713,-2.5693,-2.5693,-2.5693,-2.5693,-2.5693,-2.5693,-2.5693,-2.5693,-2.5693,-2.5693,-2.5693,-2.5693,-2.5693,-2.5693,-2.5693,-2.5693,-2.5693,-2.5693,-2.5693,-2.5693,-2.5693,-2.5391,-2.5176,-2.5176,-2.4734,-2.4526,-2.4656,-2.5055,-2.5232,-2.519,-2.5675,-2.5838,-2.5775,-2.5442,-2.58,-1.5386,-1.7018,-1.8834,-2.0319,-2.1116,-2.1798,-2.2568,-2.2542,-2.2245,-2.1924,-2.2539,-2.3114,-2.3004,-2.2986,-2.2968,-2.2913,-2.2602,-2.2364,-2.2364,-2.2016,-2.1823,-2.1939,-2.1902,-2.1806,-2.1565,-2.1386,-2.1133,-2.0782,-2.06,-2.0521,-2.0521,-2.0576,-2.0759,-2.1089,-2.0833,-2.0851,-2.1181,-2.0808,-2.0644,-2.0644,-2.1016,-2.12,-2.12,-2.1632,-2.1851,-2.187,-2.2217,-2.2163,-2.1888,-2.2217,-2.2364,-2.2437,-2.3206,-2.3499,-2.3553,-2.4055,-2.435,-2.4529,-2.4529,-2.4892,-2.5333,-2.5333,-2.5479,-2.5693,-2.5693,-2.5693,-2.5693,-2.5693,-2.5693,-2.5693,-2.5693,-2.5693,-2.5791,-2.6211,-2.6309,-2.6191,-2.5771,-2.5693,-2.5693,-2.5693,-2.5693,-2.5693,-2.5693,-2.5693,-2.5693,-2.5693,-2.5693,-2.5693,-2.5693,-2.5693,-2.5693,-2.5693,-2.5693,-2.5693,-2.5693,-2.5693,-2.5693,-2.5693,-2.5635,-2.5596,-2.5596,-2.5051,-2.4894,-2.5258,-2.4646,-2.4226,-2.4049,-2.4092,-2.4448,-2.4935,-2.4634,-2.507,-1.5478,-1.6505,-1.7715,-1.9146,-2.0134,-2.0869,-2.1473,-2.1713,-2.1742,-2.1352,-2.1588,-2.1897,-2.2053,-2.2234,-2.2353,-2.2272,-2.2071,-2.1943,-2.1943,-2.1797,-2.1687,-2.1687,-2.1485,-2.131,-2.1126,-2.0704,-2.0332,-2.0168,-1.9971,-1.9842,-1.9842,-2.0021,-2.0223,-2.0406,-2.0442,-2.0552,-2.0778,-2.0613,-2.0521,-2.0521,-2.0686,-2.0778,-2.0796,-2.12,-2.1511,-2.1705,-2.187,-2.1851,-2.1705,-2.187,-2.1943,-2.2034,-2.284,-2.3169,-2.3242,-2.3914,-2.435,-2.448,-2.448,-2.4824,-2.5284,-2.5284,-2.5479,-2.5693,-2.5693,-2.5693,-2.5732,-2.6035,-2.6094,-2.6152,-2.6387,-2.6289,-2.6211,-2.6641,-2.6562,-2.6406,-2.6445,-2.6269,-2.6035,-2.5732,-2.5693,-2.5771,-2.6055,-2.6094,-2.6191,-2.6376,-2.6445,-2.6445,-2.6445,-2.6445,-2.6367,-2.6133,-2.6094,-2.5996,-2.5713,-2.5693,-2.5693,-2.5693,-2.5693,-2.5693,-2.5693,-2.5467,-2.5397,-2.5574,-2.4768,-2.4282,-2.4192,-2.4171,-2.4213,-2.4274,-2.4619,-2.5057,-1.5221,-1.5771,-1.6468,-1.777,-1.8822,-1.9632,-2.0135,-2.0633,-2.0922,-2.0712,-2.0747,-2.0907,-2.1239,-2.1581,-2.1826,-2.1742,-2.1687,-2.1687,-2.1687,-2.1687,-2.165,-2.154,-2.1291,-2.1034,-2.0833,-2.0241,-1.9857,-1.9787,-1.9476,-1.9292,-1.9292,-1.9604,-1.9783,-1.9893,-2.0076,-2.0264,-2.0374,-2.0264,-2.0209,-2.0209,-2.0319,-2.0374,-2.0351,-2.0778,-2.1181,-2.154,-2.165,-2.1687,-2.1687,-2.1687,-2.1742,-2.1906,-2.262,-2.2968,-2.3133,-2.3993,-2.4399,-2.4529,-2.4578,-2.4892,-2.5284,-2.5284,-2.5479,-2.5693,-2.5693,-2.5693,-2.5771,-2.6269,-2.6387,-2.6484,-2.6914,-2.6777,-2.666,-2.707,-2.6934,-2.6777,-2.6973,-2.6777,-2.6445,-2.6083,-2.5927,-2.6035,-2.6465,-2.6465,-2.6523,-2.6953,-2.7012,-2.6973,-2.6875,-2.6855,-2.6699,-2.6269,-2.623,-2.6094,-2.5713,-2.5693,-2.5693,-2.5693,-2.5693,-2.5693,-2.5693,-2.5577,-2.5625,-2.5693,-2.4993,-2.4666,-2.4666,-2.4591,-2.4311,-2.3827,-2.4522,-2.4784,-1.4561,-1.5129,-1.5845,-1.6321,-1.7027,-1.784,-1.8563,-1.9051,-1.941,-1.971,-2.0097,-2.0473,-2.0952,-2.1257,-2.15,-2.166,-2.1687,-2.1687,-2.1687,-2.1687,-2.154,-2.1181,-2.1126,-2.0814,-2.0021,-1.9912,-1.9729,-1.9366,-1.9311,-1.9292,-1.9292,-1.9329,-1.9512,-1.9875,-1.9567,-1.9567,-1.9912,-1.9567,-1.9366,-1.9366,-1.9769,-1.993,-1.993,-2.0374,-2.0759,-2.1163,-2.1522,-2.1687,-2.1687,-2.1687,-2.1906,-2.2291,-2.273,-2.3133,-2.3565,-2.4233,-2.448,-2.4529,-2.4775,-2.5088,-2.5284,-2.5284,-2.5479,-2.5693,-2.5693,-2.5693,-2.5771,-2.6269,-2.6387,-2.6484,-2.6914,-2.6992,-2.709,-2.7519,-2.7669,-2.7552,-2.709,-2.6992,-2.6973,-2.6953,-2.6621,-2.6484,-2.6914,-2.6641,-2.6523,-2.6953,-2.7012,-2.6875,-2.6465,-2.6426,-2.625,-2.5771,-2.5732,-2.5713,-2.5693,-2.5693,-2.5693,-2.5693,-2.5693,-2.5693,-2.5693,-2.5332,-2.5293,-2.5674,-2.5302,-2.5047,-2.5047,-2.4868,-2.4453,-2.3795,-2.384,-2.3757,-1.4506,-1.4726,-1.5093,-1.5753,-1.6394,-1.6973,-1.7507,-1.8351,-1.8995,-1.8849,-1.923,-1.9704,-2.014,-2.0527,-2.0863,-2.124,-2.1328,-2.1328,-2.1328,-2.1328,-2.1273,-2.1126,-2.0649,-2.0204,-1.9912,-1.9677,-1.9457,-1.9311,-1.9292,-1.9292,-1.9292,-1.9292,-1.9366,-1.9512,-1.9384,-1.9366,-1.9531,-1.9366,-1.9292,-1.9292,-1.9457,-1.9531,-1.9549,-1.9912,-2.0168,-2.0393,-2.1053,-2.1449,-2.1687,-2.1687,-2.1778,-2.1943,-2.2346,-2.2888,-2.3436,-2.394,-2.4403,-2.4775,-2.4892,-2.5088,-2.5284,-2.5284,-2.5479,-2.5693,-2.5693,-2.5937,-2.625,-2.668,-2.6992,-2.7305,-2.7734,-2.7637,-2.748,-2.7689,-2.7924,-2.8027,-2.7871,-2.7617,-2.7344,-2.707,-2.6894,-2.6934,-2.7363,-2.7305,-2.7344,-2.7773,-2.7832,-2.7773,-2.7637,-2.7617,-2.7441,-2.7031,-2.6719,-2.6512,-2.6512,-2.6309,-2.6269,-2.6543,-2.6309,-2.6152,-2.6152,-2.5723,-2.5518,-2.5693,-2.5586,-2.5399,-2.5295,-2.509,-2.4657,-2.4013,-2.444,-2.4111,-1.4506,-1.4506,-1.4671,-1.5331,-1.5736,-1.6024,-1.6453,-1.7375,-1.8052,-1.7848,-1.8434,-1.91,-1.9523,-1.9671,-2.0018,-2.0784,-2.082,-2.082,-2.0906,-2.0906,-2.0869,-2.0723,-2.0204,-1.9838,-1.9692,-1.9457,-1.9292,-1.9292,-1.9292,-1.9292,-1.9292,-1.9292,-1.9292,-1.9292,-1.9292,-1.9292,-1.9292,-1.9292,-1.9292,-1.9292,-1.9292,-1.9292,-1.9311,-1.9586,-1.9747,-1.9912,-2.0484,-2.0973,-2.1485,-2.1632,-2.1778,-2.1925,-2.2181,-2.2788,-2.3541,-2.3868,-2.4485,-2.5039,-2.5137,-2.5284,-2.543,-2.543,-2.5528,-2.5693,-2.5693,-2.6055,-2.6465,-2.6894,-2.7324,-2.7806,-2.8184,-2.8086,-2.7871,-2.7871,-2.8086,-2.8301,-2.8301,-2.8066,-2.7793,-2.75,-2.7324,-2.7363,-2.7793,-2.7806,-2.7865,-2.8223,-2.8301,-2.8242,-2.8105,-2.8086,-2.793,-2.75,-2.7187,-2.7012,-2.7012,-2.6758,-2.6719,-2.6992,-2.6758,-2.6543,-2.6387,-2.6113,-2.583,-2.5693,-2.5693,-2.5634,-2.5531,-2.5388,-2.5016,-2.4447,-2.4882,-2.4471,0.0,0.0,0.0,-1.4983,-1.4951,-1.4903,-1.5299,-1.5998,-1.661,-1.6756,-1.7718,-1.8694,-1.9047,-1.8707,-1.8788,-2.0176,-2.0256,-2.025,-2.0461,-2.0461,-2.0356,-1.993,-1.9875,-1.971,-1.9347,-1.9292,-1.9292,-1.9292,-1.9292,-1.9292,-1.9292,-1.9292,-1.9292,-1.9292,-1.9292,-1.9292,-1.9292,-1.9292,-1.9292,-1.9292,-1.9292,-1.9292,-1.9292,-1.9292,-1.9531,-1.9875,-1.9893,-2.0374,-2.1126,-2.1504,-2.1906,-2.2254,-2.2318,-2.2954,-2.3914,-2.422,-2.4726,-2.5333,-2.5596,-2.5693,-2.5693,-2.5693,-2.5693,-2.5693,-2.5693,-2.6055,-2.6484,-2.6894,-2.7344,-2.7826,-2.8184,-2.8301,-2.8301,-2.8301,-2.8301,-2.8301,-2.8301,-2.8301,-2.8301,-2.8301,-2.7969,-2.7812,-2.8223,-2.7949,-2.7832,-2.8223,-2.8301,-2.8144,-2.7787,-2.7728,-2.7519,-2.709,-2.7051,-2.7031,-2.7051,-2.7031,-2.7031,-2.7051,-2.7031,-2.6836,-2.6426,-2.6387,-2.6191,-2.5693,-2.5693,-2.5693,-2.5693,-2.5693,-2.5508,-2.5106,-2.5106,-2.459,-1.4506,0.0,0.0,0.0,0.0,0.0,-1.4781,-1.5479,-1.6154,-1.6033,-1.6738,-1.7386,-1.7519,-1.7411,-1.7523,-1.8227,-1.8876,-1.9507,-2.0003,-2.0058,-2.0003,-1.9893,-1.9619,-1.9421,-1.9311,-1.9292,-1.9292,-1.9292,-1.9036,-1.8999,-1.9292,-1.9292,-1.9292,-1.9292,-1.9292,-1.9292,-1.9292,-1.9292,-1.9292,-1.9292,-1.9292,-1.9292,-1.9292,-1.9292,-1.9366,-1.9512,-2.0099,-2.0484,-2.0704,-2.1108,-2.1485,-2.1888,-2.2163,-2.2927,-2.3805,-2.4155,-2.4842,-2.5596,-2.5693,-2.5693,-2.5693,-2.5693,-2.5693,-2.5693,-2.5693,-2.62,-2.6875,-2.6973,-2.7559,-2.8144,-2.8262,-2.8301,-2.8301,-2.8301,-2.8301,-2.8301,-2.8301,-2.8301,-2.8301,-2.8301,-2.8203,-2.8164,-2.8262,-2.8203,-2.8164,-2.8281,-2.8301,-2.8262,-2.8125,-2.8125,-2.8066,-2.7949,-2.7656,-2.7598,-2.791,-2.7656,-2.7617,-2.793,-2.7656,-2.7285,-2.6855,-2.6543,-2.6191,-2.5693,-2.5693,-2.5693,-2.5693,-2.5693,-2.5508,-2.5106,-2.4746,-2.4316,-1.5001,-1.5001,-1.5001,-1.5001,0.0,0.0,-1.4598,-1.501,-1.5461,-1.5235,-1.5835,-1.6369,-1.6227,-1.6263,-1.6387,-1.6632,-1.7225,-1.8073,-1.9253,-1.9381,-1.9436,-1.9641,-1.9457,-1.9292,-1.9292,-1.9292,-1.9292,-1.9292,-1.9091,-1.9054,-1.9292,-1.9292,-1.9292,-1.9292,-1.9292,-1.9292,-1.9292,-1.9292,-1.9292,-1.9292,-1.9292,-1.9292,-1.9292,-1.9292,-1.9292,-1.9347,-1.9948,-2.0332,-2.0558,-2.0943,-2.1346,-2.1723,-2.2262,-2.2991,-2.3776,-2.4307,-2.4967,-2.5693,-2.5693,-2.5693,-2.5693,-2.5693,-2.5693,-2.5732,-2.5908,-2.6484,-2.7051,-2.7226,-2.7773,-2.8301,-2.8301,-2.8301,-2.8301,-2.8301,-2.8301,-2.8301,-2.8301,-2.8301,-2.8301,-2.8301,-2.8301,-2.8301,-2.8301,-2.8301,-2.8301,-2.8301,-2.8301,-2.8301,-2.8301,-2.8301,-2.8301,-2.8301,-2.8066,-2.8027,-2.8262,-2.8066,-2.8027,-2.8281,-2.8066,-2.7734,-2.7305,-2.7051,-2.6641,-2.6016,-2.6016,-2.5918,-2.5693,-2.5693,-2.5605,-2.5332,-2.4902,-2.4551,-1.5753,-1.5753,-1.5753,-1.5753,-1.5496,0.0,-1.4641,-1.4684,-1.4736,-1.4532,-1.5042,-1.5486,-1.5219,-1.5349,-1.5476,-1.5528,-1.568,-1.6454,-1.8282,-1.8576,-1.8779,-1.9127,-1.9219,-1.9219,-1.9164,-1.9219,-1.9237,-1.9237,-1.9274,-1.9274,-1.9237,-1.9274,-1.9292,-1.9292,-1.9292,-1.9292,-1.9292,-1.9292,-1.9292,-1.9292,-1.9292,-1.9292,-1.9292,-1.9292,-1.9329,-1.9402,-1.9783,-2.0168,-2.0613,-2.1016,-2.1401,-2.1786,-2.25,-2.3166,-2.3776,-2.4488,-2.515,-2.5693,-2.5693,-2.5693,-2.5693,-2.5752,-2.5752,-2.5849,-2.6328,-2.6758,-2.7187,-2.7669,-2.8008,-2.8301,-2.8301,-2.8301,-2.8301,-2.8301,-2.8301,-2.8301,-2.8301,-2.8301,-2.8301,-2.8301,-2.8301,-2.8301,-2.8301,-2.8301,-2.8301,-2.8301,-2.8301,-2.8301,-2.8301,-2.8301,-2.8301,-2.8301,-2.8301,-2.8301,-2.8301,-2.8301,-2.8301,-2.8301,-2.8301,-2.8105,-2.7728,-2.7728,-2.7266,-2.6406,-2.6348,-2.6133,-2.5693,-2.5693,-2.5693,-2.5674,-2.5332,-2.5117,-1.6101,-1.6193,-1.6193,-1.6193,-1.6105,0.0,-1.4992,-1.4852,-1.4795,-1.4413,-1.4603,-1.4847,-1.4932,-1.512,-1.536,-1.5627,-1.5815,-1.6325,-1.7406,-1.7916,-1.8228,-1.8301,-1.8632,-1.8705,-1.8394,-1.865,-1.8834,-1.8834,-1.9127,-1.9164,-1.8852,-1.9127,-1.9292,-1.9292,-1.9292,-1.9292,-1.9292,-1.9292,-1.9292,-1.9292,-1.9292,-1.9292,-1.9292,-1.9292,-1.9494,-1.9783,-2.0186,-2.0631,-2.1016,-2.1394,-2.1614,-2.1805,-2.2797,-2.3364,-2.3814,-2.4814,-2.5402,-2.5693,-2.5693,-2.5693,-2.5752,-2.6152,-2.6269,-2.6348,-2.6758,-2.7187,-2.7637,-2.8047,-2.8223,-2.8301,-2.8301,-2.8301,-2.8301,-2.8301,-2.8301,-2.8301,-2.8301,-2.8301,-2.8301,-2.8301,-2.8301,-2.8301,-2.8301,-2.8301,-2.8301,-2.8301,-2.8301,-2.8301,-2.8301,-2.8301,-2.8301,-2.8301,-2.8301,-2.8301,-2.8301,-2.8301,-2.8301,-2.8301,-2.8301,-2.8105,-2.7728,-2.7728,-2.7266,-2.6406,-2.6055,-2.5771,-2.5693,-2.5693,-2.5693,-2.5693,-2.5596,-2.541,-1.6853,-1.6762,-1.667,-1.6853,-1.6615,0.0,0.0,-1.5359,-1.5141,-1.5145,-1.4879,-1.4585,-1.4589,-1.4687,-1.4719,-1.4606,-1.4909,-1.5497,-1.6418,-1.7079,-1.7587,-1.7789,-1.7807,-1.7807,-1.7807,-1.799,-1.8192,-1.8412,-1.8962,-1.9127,-1.8742,-1.9091,-1.9292,-1.9292,-1.9292,-1.9292,-1.9292,-1.9292,-1.9292,-1.9292,-1.9292,-1.9292,-1.9292,-1.9292,-1.9531,-1.9912,-2.0356,-2.0741,-2.1145,-2.1522,-2.1905,-2.2279,-2.3149,-2.3805,-2.4287,-2.5199,-2.5596,-2.5693,-2.5693,-2.5693,-2.5752,-2.625,-2.6387,-2.6504,-2.7148,-2.7637,-2.8027,-2.8242,-2.8301,-2.8301,-2.8301,-2.8301,-2.8301,-2.8301,-2.8301,-2.8301,-2.8301,-2.8301,-2.8301,-2.8301,-2.8301,-2.8301,-2.8301,-2.8301,-2.8301,-2.8301,-2.8301,-2.8301,-2.8301,-2.8301,-2.8301,-2.8301,-2.8301,-2.8301,-2.8301,-2.8301,-2.8301,-2.8301,-2.8301,-2.8203,-2.7988,-2.7988,-2.7676,-2.7031,-2.6387,-2.6055,-2.6055,-2.5791,-2.5693,-2.5693,-2.5693,-2.5557,-1.7623,-1.744,-1.7312,-1.755,-1.7147,-1.6562,0.0,0.0,0.0,-1.5755,-1.5177,-1.4611,-1.449,-1.4423,-1.4253,-1.387,-1.4236,-1.4813,-1.5659,-1.6285,-1.6819,-1.733,-1.7037,-1.6945,-1.7348,-1.7385,-1.7587,-1.8045,-1.8632,-1.8852,-1.8614,-1.8981,-1.9182,-1.9182,-1.9256,-1.9292,-1.9292,-1.9292,-1.9292,-1.9292,-1.9292,-1.9292,-1.9292,-1.9292,-1.9567,-2.0021,-2.0374,-2.0796,-2.1255,-2.1559,-2.2105,-2.2831,-2.3474,-2.4126,-2.4784,-2.547,-2.5693,-2.5693,-2.5693,-2.5693,-2.5752,-2.625,-2.6504,-2.6777,-2.7559,-2.8027,-2.8301,-2.8301,-2.8301,-2.8301,-2.8301,-2.8301,-2.8301,-2.8301,-2.8301,-2.8301,-2.8301,-2.8301,-2.8301,-2.8301,-2.8301,-2.8301,-2.8301,-2.8301,-2.8301,-2.8301,-2.8301,-2.8301,-2.8301,-2.8301,-2.8301,-2.8301,-2.8301,-2.8301,-2.8301,-2.8301,-2.8301,-2.8301,-2.8301,-2.8301,-2.8301,-2.8223,-2.8008,-2.7728,-2.6894,-2.6504,-2.6504,-2.6074,-2.5771,-2.5693,-2.5693,-2.5693,-1.8008,-1.8284,-1.843,-1.81,-1.7953,-1.7569,-1.639,0.0,-1.5824,-1.5173,0.0,-1.4922,-1.5051,0.0,0.0,-1.4983,-1.5204,-1.5458,-1.5748,-1.5665,-1.5921,-1.6855,-1.6615,-1.6541,-1.6927,-1.6963,-1.7293,-1.8027,-1.7862,-1.7844,-1.8136,-1.8559,-1.8779,-1.8779,-1.9109,-1.9292,-1.9292,-1.9292,-1.9292,-1.9292,-1.9292,-1.9292,-1.9292,-1.9292,-1.9714,-2.0406,-2.0503,-2.0918,-2.1632,-2.1668,-2.224,-2.3104,-2.3521,-2.4126,-2.4784,-2.547,-2.5693,-2.5693,-2.5693,-2.5693,-2.5752,-2.625,-2.6894,-2.7669,-2.8086,-2.8262,-2.8301,-2.8301,-2.8301,-2.8301,-2.8301,-2.8301,-2.8301,-2.8301,-2.8301,-2.8301,-2.8301,-2.8301,-2.8301,-2.8301,-2.8301,-2.8301,-2.8301,-2.8301,-2.8301,-2.8301,-2.8301,-2.8301,-2.8301,-2.8301,-2.8301,-2.8301,-2.8301,-2.8301,-2.8301,-2.8301,-2.8301,-2.8301,-2.8301,-2.8301,-2.8301,-2.793,-2.7767,-2.7728,-2.7187,-2.6953,-2.6934,-2.6523,-2.6113,-2.5693,-2.5693,-2.5693,-1.8155,-1.821,-1.8393,-1.8742,-1.8467,-1.7953,-1.7369,-1.7007,-1.6649,-1.6296,0.0,0.0,0.0,0.0,0.0,0.0,-1.4982,-1.5148,-1.5396,-1.496,-1.507,-1.6398,-1.601,-1.5863,-1.6505,-1.678,-1.7055,-1.7385,-1.7458,-1.7678,-1.8063,-1.8504,-1.8815,-1.9036,-1.9219,-1.9292,-1.9292,-1.9292,-1.9292,-1.9292,-1.9292,-1.9292,-1.9292,-1.9292,-1.9751,-2.0521,-2.0521,-2.0979,-2.1687,-2.1883,-2.2374,-2.315,-2.3706,-2.436,-2.4975,-2.5518,-2.5693,-2.5693,-2.5693,-2.5898,-2.623,-2.6914,-2.7539,-2.8066,-2.8242,-2.8301,-2.8301,-2.8301,-2.8301,-2.8301,-2.8301,-2.8301,-2.8301,-2.8301,-2.8301,-2.8301,-2.8301,-2.8301,-2.8301,-2.8301,-2.8301,-2.8301,-2.8301,-2.8301,-2.8301,-2.8301,-2.8301,-2.8301,-2.8301,-2.8301,-2.8301,-2.8301,-2.8301,-2.8301,-2.8301,-2.8301,-2.8301,-2.8301,-2.8301,-2.8301,-2.8301,-2.8125,-2.8027,-2.8027,-2.7617,-2.7402,-2.7402,-2.6953,-2.6543,-2.6113,-2.581,-2.5693,-1.8356,-1.8319,-1.8559,-1.9017,-1.8705,-1.8228,-1.8118,-1.7861,-1.7551,-1.7406,-1.6795,0.0,0.0,0.0,-1.5584,-1.522,0.0,-1.5216,-1.5423,-1.4818,-1.4859,-1.616,-1.5881,-1.579,-1.6233,-1.6578,-1.678,-1.689,-1.7073,-1.7403,-1.7917,-1.8339,-1.8742,-1.9127,-1.9237,-1.9292,-1.9292,-1.9292,-1.9292,-1.9292,-1.9292,-1.9292,-1.9292,-1.9292,-1.9751,-2.0521,-2.0563,-2.1065,-2.182,-2.2087,-2.2497,-2.3088,-2.3806,-2.4423,-2.4961,-2.5479,-2.5693,-2.5693,-2.5693,-2.6016,-2.6504,-2.7246,-2.7773,-2.8144,-2.8262,-2.8301,-2.8301,-2.8301,-2.8301,-2.8301,-2.8301,-2.8301,-2.8301,-2.8301,-2.8301,-2.8301,-2.8301,-2.8301,-2.8301,-2.8301,-2.8301,-2.8301,-2.8301,-2.8301,-2.8301,-2.8301,-2.8301,-2.8301,-2.8301,-2.8301,-2.8301,-2.8301,-2.8301,-2.8301,-2.8301,-2.8301,-2.8301,-2.8301,-2.8301,-2.8301,-2.8301,-2.8301,-2.8301,-2.8301,-2.7988,-2.7832,-2.7832,-2.7402,-2.7031,-2.6719,-2.6172,-2.581,-1.8797,-1.8981,-1.9182,-1.8815,-1.8705,-1.8595,-1.8173,-1.8374,-1.8483,-1.7894,-1.8055,-1.8161,-1.7632,-1.7203,-1.6812,-1.6421,-1.6368,0.0,0.0,-1.5674,-1.5599,-1.6233,-1.6633,-1.6707,-1.6358,-1.6288,-1.6486,-1.6872,-1.656,-1.6688,-1.7477,-1.7917,-1.8283,-1.8724,-1.9109,-1.9292,-1.9292,-1.9292,-1.9292,-1.9292,-1.9292,-1.9292,-1.9292,-1.9292,-1.9751,-2.0521,-2.0773,-2.1323,-2.2106,-2.2309,-2.253,-2.2909,-2.3782,-2.4249,-2.4551,-2.5362,-2.5693,-2.5693,-2.5693,-2.6016,-2.6465,-2.6894,-2.7324,-2.7806,-2.8164,-2.8301,-2.8301,-2.8301,-2.8301,-2.8301,-2.8301,-2.8301,-2.8301,-2.8301,-2.8301,-2.8301,-2.8301,-2.8301,-2.8301,-2.8301,-2.8301,-2.8301,-2.8301,-2.8301,-2.8301,-2.8301,-2.8301,-2.8301,-2.8301,-2.8301,-2.8301,-2.8301,-2.8301,-2.8301,-2.8301,-2.8301,-2.8301,-2.8301,-2.8301,-2.8301,-2.8301,-2.8301,-2.8301,-2.8301,-2.8281,-2.8262,-2.8262,-2.7851,-2.7689,-2.765,-2.6758,-2.6133,-1.8815,-1.8999,-1.9274,-1.9127,-1.9109,-1.8999,-1.8614,-1.8815,-1.8868,-1.8135,-1.8203,-1.8271,-1.7818,-1.7564,-1.7204,-1.651,-1.6403,-1.6241,0.0,-1.5863,-1.6057,-1.627,-1.667,-1.6743,-1.6358,-1.6288,-1.6376,-1.6505,-1.6395,-1.678,-1.7862,-1.8045,-1.843,-1.9091,-1.9237,-1.9292,-1.9292,-1.9292,-1.9292,-1.9292,-1.9292,-1.9292,-1.9311,-1.9586,-2.009,-2.0792,-2.1137,-2.1671,-2.2309,-2.2574,-2.2878,-2.3275,-2.4016,-2.4543,-2.4922,-2.546,-2.5693,-2.5732,-2.6074,-2.6445,-2.6875,-2.7305,-2.7734,-2.8105,-2.8242,-2.8301,-2.8301,-2.8301,-2.8301,-2.8301,-2.8301,-2.8301,-2.8301,-2.8301,-2.8301,-2.8301,-2.8301,-2.8516,-2.8633,-2.834,-2.8516,-2.8613,-2.834,-2.8301,-2.8301,-2.8301,-2.8301,-2.8301,-2.8301,-2.8301,-2.8301,-2.8301,-2.8301,-2.8301,-2.8301,-2.8301,-2.8301,-2.8301,-2.8301,-2.8301,-2.8301,-2.8301,-2.8301,-2.8301,-2.8301,-2.8301,-2.8301,-2.8144,-2.793,-2.7708,-2.7415,-2.6855,-1.8999,-1.9109,-1.9292,-1.9292,-1.9292,-1.9237,-1.8981,-1.9237,-1.9347,-1.8687,-1.8736,-1.8804,-1.8404,-1.8165,-1.7783,-1.7099,-1.6866,-1.6558,0.0,-1.62,-1.6468,-1.634,-1.667,-1.6798,-1.656,-1.6361,-1.6343,-1.6523,-1.6361,-1.6819,-1.8027,-1.8081,-1.8485,-1.9274,-1.9292,-1.9292,-1.9292,-1.9292,-1.9292,-1.9292,-1.9292,-1.935,-1.9408,-1.9854,-2.0402,-2.1043,-2.1542,-2.2063,-2.2593,-2.3011,-2.3312,-2.3622,-2.4368,-2.4824,-2.5165,-2.5566,-2.5693,-2.5752,-2.623,-2.666,-2.709,-2.7519,-2.7949,-2.8301,-2.8301,-2.8301,-2.8301,-2.8301,-2.8301,-2.8301,-2.8301,-2.8301,-2.8301,-2.8301,-2.8301,-2.8301,-2.8301,-2.8633,-2.8848,-2.8574,-2.8867,-2.9062,-2.8789,-2.875,-2.8691,-2.8535,-2.8516,-2.8574,-2.873,-2.8613,-2.8516,-2.8516,-2.8379,-2.8301,-2.8301,-2.8301,-2.8301,-2.8301,-2.8301,-2.8301,-2.8301,-2.8301,-2.8359,-2.8516,-2.8359,-2.8359,-2.8516,-2.8359,-2.8164,-2.7943,-2.7787,-2.7285]},{"header":{"parameterUnit":"m.s-1","parameterCategory":1,"la1":30.6,"la2":29.2853,"lo1":-89.7004,"lo2":-87.6739,"dy":0.0162,"dx":0.0183,"nx":112,"ny":82,"refTime":"2024-03-06T06:00:00:Z","depth":0,"parameterNumber":3,"parameterNumberName":"V-component_of_WINDS"},"data":[0.0,0.0,0.0,0.0,0.0,0.0,0.0,0.0,0.0,0.0,0.0,0.0,0.0,0.0,0.0,0.0,0.0,0.0,0.0,0.0,0.0,0.0,0.0,0.0,0.0,0.0,0.0,0.0,0.0,0.0,0.0,0.0,0.0,0.0,0.0,0.0,0.0,0.0,0.0,0.0,0.0,0.0,0.0,0.0,0.0,0.0,0.0,0.0,0.0,0.0,0.0,0.0,0.0,0.0,0.0,0.0,0.0,0.0,0.0,0.0,0.0,0.0,0.0,0.0,0.0,0.0,0.0,0.0,0.0,0.0,0.0,0.0,0.0,0.0,0.0,0.0,0.0,0.0,0.0,0.0,0.0,0.0,0.0,0.0,0.0,0.0,0.0,0.0,0.0,0.0,1.0338,1.1535,1.3177,1.3876,1.3009,1.1999,1.0931,0.9687,0.0,0.0,0.0,0.0,0.0,0.0,0.0,0.0,0.0,0.0,0.0,0.0,0.0,0.0,0.0,0.0,0.0,0.0,0.0,0.0,0.0,0.0,0.0,0.0,0.0,0.0,0.0,0.0,0.0,0.0,0.0,0.0,0.0,0.0,0.0,0.0,0.0,0.0,0.0,0.0,0.0,0.0,0.0,0.0,0.0,0.0,0.0,0.0,0.0,0.0,0.0,0.0,0.0,0.0,0.0,0.0,0.0,0.0,0.0,0.0,0.0,0.0,0.0,0.0,0.0,0.0,0.0,0.0,0.0,0.0,0.0,0.0,0.0,0.0,0.0,0.0,0.0,0.0,0.0,0.0,0.0,0.0,0.0,0.0,0.0,0.0,0.0,0.0,0.0,0.0,0.0,0.0,0.0,0.0,0.0,0.0,0.0,0.0,0.0,0.0,0.0,0.0,0.0,0.0,1.0342,1.2535,1.2852,1.281,1.257,1.1443,1.0419,0.9632,0.0,0.0,0.0,0.0,0.0,0.0,0.0,0.0,0.0,0.0,0.0,0.0,0.0,0.0,0.0,0.0,0.0,0.0,0.0,0.0,0.0,0.0,0.0,0.0,0.0,0.0,0.0,0.0,0.0,0.0,0.0,0.0,0.0,0.0,0.0,0.0,0.0,0.0,0.0,0.0,0.0,0.0,0.0,0.0,0.0,0.0,0.0,0.0,0.0,0.0,0.0,0.0,0.0,0.0,0.0,0.0,0.0,0.0,0.0,0.0,0.0,0.0,0.0,0.0,0.0,0.0,0.0,0.0,0.0,0.0,0.0,0.0,0.0,0.0,0.0,0.0,0.0,0.0,0.0,0.0,0.0,0.0,0.0,0.0,0.0,0.0,0.0,0.0,0.0,0.0,0.0,0.0,0.0,0.0,0.0,0.0,0.0,0.0,0.0,0.0,0.0,0.0,0.0,1.0596,1.1284,1.3061,1.3155,1.294,1.2516,1.1165,1.0126,0.9643,0.8645,0.0,0.0,0.0,0.0,0.0,0.0,0.0,0.0,0.0,0.0,0.0,0.0,0.0,0.0,0.0,0.0,0.0,0.0,0.0,0.0,0.0,0.0,0.0,0.0,0.0,0.0,0.0,0.0,0.0,0.0,0.0,0.0,0.0,0.0,0.0,0.0,0.0,0.0,0.0,0.0,0.0,0.0,0.0,0.0,0.0,0.0,0.0,0.0,0.0,0.0,0.0,0.0,0.0,0.0,0.0,0.0,0.0,0.0,0.0,0.0,0.0,0.0,0.0,0.0,0.0,0.0,0.0,0.0,0.0,0.0,0.0,0.0,0.0,0.0,0.0,0.0,0.0,0.0,0.0,0.0,0.0,0.0,0.0,0.0,0.0,0.0,0.0,0.0,0.0,0.0,0.0,0.0,0.0,0.0,0.0,0.0,0.0,0.0,0.0,0.0,0.0,0.0,1.1655,1.2182,1.3258,1.3375,1.3082,1.2365,1.0916,0.9875,0.9526,0.8334,0.0,0.0,0.0,0.0,0.0,0.0,0.0,0.0,0.0,0.0,0.0,0.0,0.0,0.0,0.0,0.0,0.0,0.0,0.0,0.0,0.0,0.0,0.0,0.0,0.0,0.0,0.0,0.0,0.0,0.0,0.0,0.0,0.0,0.0,0.0,0.0,0.0,0.0,0.0,0.0,0.0,0.0,0.0,0.0,0.0,0.0,0.0,0.0,0.0,0.0,0.0,0.0,0.0,0.0,0.0,0.0,0.0,0.0,0.0,0.0,0.0,0.0,0.0,0.0,0.0,0.0,0.0,0.0,0.0,0.0,0.0,0.0,0.0,0.0,0.0,0.0,0.0,0.0,0.0,0.0,0.0,0.0,0.0,0.0,0.0,0.0,0.0,0.0,0.0,0.0,0.0,0.0,0.0,0.0,0.0,0.0,0.0,0.0,0.0,0.0,0.0,0.0,1.1597,1.2443,1.2965,1.3038,1.2658,1.1738,1.0546,0.9644,0.9244,0.8083,0.0,0.0,0.0,0.0,0.0,0.0,0.0,0.0,0.0,0.0,0.0,0.0,0.0,0.0,0.0,0.0,0.0,0.0,0.0,0.0,0.0,0.0,0.0,0.0,0.0,0.0,0.0,0.0,0.0,0.0,0.0,0.0,0.0,0.0,0.0,0.0,0.0,0.0,0.0,0.0,0.0,0.0,0.0,0.0,0.0,0.0,0.0,0.0,0.0,0.0,0.0,0.0,0.0,0.0,0.0,0.0,0.0,0.0,0.0,0.0,0.0,0.0,0.0,0.0,0.0,0.0,0.0,0.0,0.0,0.0,0.0,0.0,0.0,0.0,0.0,0.0,0.0,0.0,0.0,0.0,0.0,0.0,0.0,0.0,0.0,0.0,0.0,0.0,0.0,0.0,0.0,0.0,0.0,0.0,0.0,0.0,0.0,0.0,0.0,0.0,0.0,0.0,1.1242,1.176,1.2877,1.2745,1.2339,1.176,1.0623,0.9751,0.9348,0.0,0.0,0.0,0.0,0.0,0.0,0.0,0.0,0.0,0.0,0.0,0.0,0.0,0.0,0.0,0.0,0.0,0.0,0.0,0.0,0.0,0.0,0.0,0.0,0.0,0.0,0.0,0.0,0.0,0.0,0.0,0.0,0.0,0.0,0.0,0.0,0.0,0.0,0.0,0.0,0.0,0.0,0.0,0.0,0.0,0.0,0.0,0.0,0.0,0.0,0.0,0.0,0.0,0.0,0.0,0.0,0.0,0.0,0.0,0.0,0.0,0.0,0.0,0.0,0.0,0.0,0.0,0.0,0.0,0.0,0.0,0.0,0.0,0.0,0.0,0.0,0.0,0.0,0.0,0.0,0.0,0.0,0.0,0.0,0.0,0.0,0.0,0.0,0.0,0.0,0.0,0.0,0.0,0.0,0.0,0.0,0.0,0.0,0.0,0.0,0.0,0.0,1.1059,1.1163,1.1541,1.2724,1.2467,1.2039,1.1645,1.0441,0.9651,0.9542,0.0,0.0,0.0,0.0,0.0,0.0,0.0,0.0,0.0,0.0,0.0,0.0,0.0,0.0,0.0,0.0,0.0,0.0,0.0,0.0,0.0,0.0,0.0,0.0,0.0,0.0,0.0,0.0,0.0,0.0,0.0,0.0,0.0,0.0,0.0,0.0,0.0,0.0,0.0,0.0,0.0,0.0,0.0,0.0,0.0,0.0,0.0,0.0,0.0,0.0,0.0,0.0,0.0,0.0,0.0,0.0,0.0,0.0,0.0,0.0,0.0,0.0,0.0,0.0,0.0,0.0,0.0,0.0,0.0,0.0,0.0,0.0,0.0,0.0,0.0,0.0,0.0,0.0,0.0,0.0,0.0,0.0,0.0,0.0,0.0,0.0,0.0,0.0,0.0,0.0,0.0,0.0,0.0,0.0,0.0,0.0,0.0,0.0,0.0,0.0,0.0,0.0,1.0984,1.1441,1.1904,1.2438,1.2209,1.1764,1.1258,0.9936,0.9319,0.0,0.0,0.0,0.0,0.0,0.0,0.0,0.0,0.0,0.0,0.0,0.0,0.0,0.0,0.0,0.0,0.0,0.0,0.0,0.0,0.0,0.0,0.0,0.0,0.0,0.0,0.0,0.0,0.0,0.0,0.0,0.0,0.0,0.0,0.0,0.0,0.0,0.0,0.0,0.0,0.0,0.0,0.0,0.0,0.0,0.0,0.0,0.0,0.0,0.0,0.0,0.0,0.0,0.0,0.0,0.0,0.0,0.0,0.0,0.0,0.0,0.0,0.0,0.0,0.0,0.0,0.0,0.0,0.0,0.0,0.0,0.0,0.0,0.0,0.0,0.0,0.0,0.0,0.0,0.0,0.0,0.0,0.0,0.0,0.0,0.0,0.0,0.0,0.0,0.0,0.0,0.0,0.0,0.0,0.0,0.0,0.0,0.0,0.0,0.0,0.0,0.0,0.0,1.1409,1.1208,1.1446,1.2583,1.2333,1.1903,1.1524,1.0673,1.0089,0.9956,0.0,0.0,0.0,0.0,0.0,0.0,0.0,0.0,0.0,0.0,0.0,0.0,0.0,0.0,0.0,0.0,0.0,0.0,0.0,0.0,0.0,0.0,0.0,0.0,0.0,0.0,0.0,0.0,0.0,0.0,0.0,0.0,0.0,0.0,0.0,0.0,0.0,0.0,0.0,0.0,0.0,0.0,0.0,0.0,0.0,0.0,0.0,0.0,0.0,0.0,0.0,0.0,0.0,0.0,0.0,0.0,0.0,0.0,0.0,0.0,0.0,0.0,0.0,0.0,0.0,0.0,0.0,0.0,0.0,0.0,0.0,0.0,0.0,0.0,0.0,0.0,0.0,0.0,0.0,0.0,0.0,0.0,0.0,0.0,0.0,0.0,0.0,0.0,0.0,0.0,0.0,0.0,0.0,0.0,0.0,0.0,0.0,0.0,0.0,0.0,0.0,0.0,1.1644,1.1398,1.1595,1.2789,1.2556,1.2149,1.1798,1.0913,1.0306,1.0094,0.0,0.0,0.0,0.0,0.0,0.0,0.0,0.0,0.0,0.0,0.0,0.0,0.0,0.0,0.0,0.0,0.0,0.0,0.0,0.0,0.0,0.0,0.0,0.0,0.0,0.0,0.0,0.0,0.0,0.0,0.0,0.0,0.0,0.0,0.0,0.0,0.0,0.0,0.0,0.0,0.0,0.0,0.0,0.0,0.0,0.0,0.0,0.0,0.0,0.0,0.0,0.0,0.0,0.0,0.0,0.0,0.0,0.0,0.0,0.0,0.0,0.0,0.0,0.0,0.0,0.0,0.0,0.0,0.0,0.0,0.0,0.0,0.0,0.0,0.0,0.0,0.0,0.0,0.0,0.0,0.0,0.0,0.0,0.0,0.0,0.0,0.0,0.0,0.0,0.0,0.0,0.0,0.0,0.0,0.0,0.0,0.0,0.0,0.0,0.0,0.0,0.0,1.1719,1.1815,1.2158,1.3014,1.2819,1.2469,1.2107,1.095,1.0252,1.0257,0.0,0.0,0.0,0.0,0.0,0.0,0.0,0.0,0.0,0.0,0.0,0.0,0.0,0.0,0.0,0.0,0.0,0.0,0.0,0.0,0.0,0.0,0.0,0.0,0.0,0.0,0.0,0.0,0.0,0.0,0.0,0.0,0.0,0.0,0.0,0.0,0.0,0.0,0.0,0.0,0.0,0.0,0.0,0.0,0.0,0.0,0.0,0.0,0.0,0.0,0.0,0.0,0.0,0.0,0.0,0.0,0.0,0.0,0.0,0.0,1.9354,1.885,0.0,0.0,0.0,0.0,0.0,0.0,0.0,0.0,0.0,0.0,0.0,0.0,0.0,0.0,0.0,0.0,0.0,0.0,0.0,0.0,0.0,0.0,0.0,0.0,0.0,0.0,0.0,0.0,0.0,0.0,0.0,0.0,0.0,0.0,0.0,0.0,0.0,0.0,0.0,0.0,1.1798,1.1885,1.2317,1.3239,1.2997,1.2734,1.2708,1.1838,1.1122,1.0768,0.9963,0.0,0.0,0.0,0.0,0.0,0.0,0.0,0.0,0.0,0.0,0.0,0.0,0.0,0.0,0.0,0.0,0.0,0.0,0.0,0.0,0.0,0.0,0.0,0.0,0.0,0.0,0.0,0.0,0.0,0.0,0.0,0.0,0.0,0.0,0.0,0.0,0.0,0.0,0.0,0.0,0.0,0.0,0.0,0.0,0.0,0.0,0.0,0.0,0.0,0.0,0.0,0.0,0.0,0.0,0.0,0.0,0.0,0.0,0.0,2.1423,2.0202,0.0,0.0,0.0,0.0,0.0,0.0,0.0,0.0,0.0,0.0,0.0,0.0,0.0,0.0,0.0,0.0,0.0,0.0,0.0,0.0,0.0,0.0,0.0,0.0,0.0,0.0,0.0,0.0,0.0,0.0,0.0,0.0,0.0,0.0,0.0,0.0,0.0,0.0,0.0,0.0,1.2547,1.2463,1.2742,1.3716,1.3431,1.3108,1.2913,1.2089,1.1301,1.0621,0.9901,0.0,0.0,0.0,0.0,0.0,0.0,0.0,0.0,0.0,0.0,0.0,0.0,0.0,0.0,0.0,0.0,0.0,0.0,0.0,0.0,0.0,0.0,0.0,0.0,0.0,0.0,0.0,0.0,0.0,0.0,0.0,0.0,0.0,0.0,0.0,0.0,0.0,0.0,0.0,0.0,0.0,0.0,0.0,0.0,0.0,0.0,0.0,0.0,0.0,0.0,0.0,0.0,0.0,2.7868,2.839,2.8709,2.8825,2.8565,2.7813,2.4169,2.2505,2.23,2.1846,0.0,0.0,0.0,0.0,0.0,0.0,0.0,0.0,0.0,0.0,0.0,0.0,0.0,0.0,0.0,0.0,0.0,0.0,0.0,0.0,0.0,0.0,1.655,1.662,1.6999,1.6946,1.5511,0.0,0.0,0.0,0.0,0.0,0.0,0.0,0.0,0.0,0.0,0.0,1.3469,1.3209,1.3306,1.4237,1.389,1.3431,1.306,1.2213,1.1363,1.0516,0.9877,0.9393,0.0,0.0,0.0,0.0,0.0,0.0,0.0,0.0,0.0,0.0,0.0,0.0,0.0,0.0,0.0,0.0,0.0,0.0,0.0,0.0,0.0,0.0,0.0,0.0,0.0,0.0,0.0,0.0,0.0,0.0,0.0,0.0,2.268,2.3919,0.0,0.0,0.0,0.0,0.0,0.0,0.0,0.0,0.0,0.0,0.0,0.0,0.0,2.7329,2.8476,2.9076,2.9138,2.8642,2.9726,2.9697,2.8738,2.9232,2.9436,2.9291,2.819,0.0,2.5148,2.3755,0.0,0.0,0.0,0.0,0.0,0.0,0.0,0.0,0.0,0.0,0.0,0.0,0.0,0.0,0.0,0.0,0.0,0.0,0.0,0.0,0.0,0.0,1.9102,1.946,1.9737,1.9636,1.8618,1.6865,1.5348,1.474,1.4533,1.446,0.0,0.0,0.0,0.0,0.0,0.0,1.3821,1.3744,1.3879,1.4411,1.3938,1.3576,1.3514,1.2711,1.2006,1.1525,1.035,0.9671,0.969,0.9688,0.0,0.0,0.0,0.0,0.0,0.0,0.0,0.0,0.0,0.0,0.0,0.0,0.0,0.0,0.0,0.0,0.0,0.0,0.0,0.0,0.0,0.0,0.0,0.0,0.0,0.0,0.0,0.0,0.0,2.4453,2.5141,2.501,2.5616,2.6006,0.0,0.0,0.0,0.0,0.0,0.0,0.0,0.0,0.0,2.8296,2.9089,2.9768,3.0274,3.1634,3.2342,3.2308,3.274,3.282,3.2645,3.2399,3.2278,3.2278,3.2019,3.1003,2.9377,2.6893,2.5225,2.4192,0.0,0.0,0.0,0.0,2.3066,2.3315,2.2644,2.2133,2.1722,2.1536,0.0,0.0,0.0,0.0,0.0,0.0,0.0,1.8853,1.9444,2.0011,2.0501,2.0682,2.1016,2.1092,2.0392,1.9117,1.7674,1.6305,1.5576,1.5116,1.4832,1.4453,0.0,0.0,0.0,1.4479,1.4716,1.4713,1.4796,1.4961,1.4535,1.4107,1.3831,1.2993,1.2299,1.1834,1.0774,1.0033,0.9808,1.0029,1.0228,0.0,0.0,0.0,0.0,0.0,0.0,0.0,0.0,0.0,0.0,0.0,0.0,0.0,0.0,0.0,0.0,0.0,0.0,0.0,0.0,0.0,0.0,0.0,0.0,0.0,0.0,0.0,0.0,2.5878,2.6778,2.5741,2.6981,2.7616,0.0,0.0,0.0,0.0,0.0,0.0,2.8495,2.9203,2.9915,3.0803,3.1812,3.2466,3.2702,3.4218,3.5166,3.557,3.5339,3.5414,3.5737,3.5035,3.4641,3.4496,3.4496,3.3823,3.2542,2.961,2.7492,2.6017,2.5833,2.5584,2.5242,2.4747,2.4841,2.518,2.4529,2.4191,2.3911,2.3097,2.2038,2.0962,2.0354,0.0,0.0,0.0,0.0,2.036,2.0961,2.1511,2.1982,2.2139,2.2479,2.2634,2.2108,2.1286,2.0008,1.79,1.6721,1.5961,1.5502,1.496,0.0,1.4625,1.483,1.5142,1.5613,1.5438,1.5327,1.5433,1.4896,1.4382,1.4018,1.3148,1.2467,1.2166,1.1121,1.0396,1.0066,1.0353,1.0527,1.0527,0.0,0.0,0.0,0.0,0.0,0.0,0.0,0.0,0.0,0.0,0.0,0.0,0.0,0.0,0.0,0.0,0.0,0.0,0.0,0.0,0.0,0.0,0.0,0.0,0.0,0.0,0.0,0.0,0.0,2.5704,2.7889,0.0,0.0,0.0,0.0,3.0225,3.1421,3.2168,3.2228,3.2856,3.3813,3.5128,3.5248,3.5845,3.7071,3.7054,3.7074,3.7104,3.6867,3.6468,3.5908,3.5707,3.5283,3.4664,3.4664,3.4218,3.33,3.1295,3.0016,2.9175,2.7432,2.7057,2.7378,2.6158,2.5723,2.5665,2.5003,2.4274,2.3698,2.4169,2.3688,2.2981,2.3001,2.2416,0.0,0.0,2.1934,2.2309,2.2905,2.35,2.4095,2.4664,2.4827,2.4741,2.426,2.3054,2.1374,1.898,1.7669,1.6785,1.6317,0.0,1.5698,1.5698,1.572,1.5916,1.64,1.5557,1.5114,1.5541,1.4668,1.4018,1.3997,1.3148,1.2637,1.2742,1.1408,1.0629,1.0751,1.0647,1.0598,1.0598,1.0996,0.0,0.0,0.0,0.0,0.0,0.0,0.0,0.0,0.0,0.0,0.0,0.0,0.0,0.0,0.0,0.0,0.0,0.0,0.0,0.0,0.0,0.0,0.0,0.0,0.0,0.0,0.0,0.0,3.137,3.3029,0.0,3.3486,3.286,3.2675,3.3106,3.3125,3.3514,3.4382,3.5429,3.6237,3.6716,3.7584,3.8033,3.8033,3.8411,3.8615,3.8585,3.761,3.6971,3.6704,3.5672,3.507,3.4835,3.4835,3.4618,3.4222,3.3618,3.2353,3.0741,3.0103,2.9726,2.9464,2.8565,2.8507,2.8738,2.7665,2.7378,2.7238,2.5766,2.4464,2.3355,2.2956,2.3073,2.3466,2.3834,2.4411,2.4998,2.519,2.5269,2.5208,2.5046,2.5018,2.4935,2.4793,2.4105,2.3214,2.1976,1.9519,1.7468,1.6844,1.6397,1.6044,1.5836,1.6073,1.6312,1.6465,1.6487,1.6238,1.5777,1.5405,1.4925,1.4322,1.3368,1.2806,1.2848,1.1521,1.0908,1.1231,1.0912,1.0873,1.1176,1.1313,1.1107,0.0,0.0,0.0,0.0,0.0,0.0,0.0,0.0,0.0,0.0,0.0,0.0,0.0,0.0,0.0,0.0,0.0,0.0,0.0,0.0,0.0,0.0,0.0,0.0,0.0,3.2248,3.4352,3.5266,3.6938,3.7839,3.7451,3.6569,3.6094,3.626,3.6475,3.6767,3.7139,3.8396,3.9003,3.8751,3.9409,3.9529,3.908,3.929,3.9373,3.9373,3.8435,3.7709,3.7233,3.6137,3.5414,3.5001,3.5001,3.4902,3.4798,3.4935,3.4071,3.2613,3.2346,3.1965,3.1498,3.0829,3.0713,3.0713,2.9435,2.9,2.8681,2.6997,2.5499,2.4336,2.4312,2.474,2.5329,2.5726,2.6133,2.6353,2.6272,2.5904,2.5509,2.5241,2.5075,2.5018,2.5018,2.4603,2.4028,2.3333,2.1031,1.8929,1.8177,1.7528,1.6951,1.6528,1.6713,1.6884,1.6776,1.6776,1.6535,1.5876,1.5506,1.5028,1.4243,1.3565,1.3019,1.2692,1.1795,1.1359,1.1493,1.134,1.1424,1.1733,1.1427,1.1456,1.1878,0.0,0.0,0.0,0.0,0.0,0.0,0.0,0.0,0.0,0.0,0.0,0.0,0.0,0.0,0.0,0.0,0.0,0.0,0.0,0.0,0.0,0.0,0.0,3.2488,3.549,3.752,3.7001,3.9269,4.0386,3.917,4.0131,4.0546,3.9825,4.1576,4.2053,4.0574,4.1778,4.2151,4.1392,4.0763,4.0434,4.0367,3.9738,3.9373,3.9373,3.9409,3.8691,3.7434,3.7262,3.651,3.5258,3.5258,3.5096,3.4935,3.51,3.5067,3.4843,3.4032,3.3634,3.3445,3.2774,3.2046,3.1322,3.0045,2.8797,2.7753,2.7753,2.691,2.6097,2.7347,2.756,2.7368,2.7367,2.6948,2.6411,2.6021,2.5495,2.513,2.5439,2.5244,2.5018,2.5018,2.4557,2.3825,2.2857,2.2048,2.124,2.0229,1.9314,1.8498,1.781,1.77,0.0,1.7362,1.6448,1.5833,1.5833,1.5006,1.4265,1.3783,1.3718,1.3281,1.2278,1.2189,1.197,1.1536,1.1929,1.2189,1.221,1.1315,1.1518,1.2806,0.0,0.0,0.0,0.0,0.0,0.0,0.0,0.0,0.0,0.0,0.0,0.0,0.0,0.0,0.0,0.0,0.0,0.0,0.0,0.0,0.0,3.5629,3.739,3.6566,3.8367,4.0545,4.2575,4.374,4.4453,4.4649,4.4074,4.3589,4.3391,4.2834,4.235,4.1949,4.2211,4.1864,4.0703,4.0976,4.0643,3.9679,3.9499,3.9373,3.9373,3.8901,3.8482,3.8093,3.7579,3.6918,3.6141,3.6141,3.5773,3.51,3.5326,3.5228,3.4872,3.4559,3.4438,3.4325,3.3016,3.1816,3.0801,3.0422,2.9784,2.9087,2.9087,2.8536,2.7982,2.8303,2.8682,2.8886,2.8423,2.834,2.8137,2.7172,2.661,2.6217,2.5882,2.555,2.5383,2.5383,2.5023,2.4529,2.3824,2.3152,2.2034,1.9818,1.923,1.8815,1.8111,1.7975,1.7893,1.764,1.7055,1.6576,1.6339,1.5767,1.5247,1.4766,1.4089,1.3412,1.2758,1.1752,1.1424,1.1973,1.149,1.1511,1.2189,1.2278,1.2498,0.0,0.0,0.0,0.0,0.0,0.0,0.0,0.0,0.0,0.0,0.0,0.0,0.0,0.0,0.0,0.0,0.0,0.0,0.0,0.0,0.0,0.0,3.8824,4.1117,4.2022,4.2617,4.3835,4.6186,4.6644,4.6938,4.7305,4.6914,4.6322,4.5663,4.5413,4.4819,4.3894,4.4109,4.3742,4.264,4.2736,4.2271,4.1163,4.0604,4.0294,4.027,3.9595,3.9295,3.9266,3.8558,3.775,3.6912,3.6607,3.6014,3.5326,3.5424,3.5359,3.5162,0.0,0.0,0.0,0.0,3.2174,3.1445,3.0831,3.0161,2.9581,2.9581,2.9203,2.8767,2.9,2.9319,2.9465,2.8855,2.8713,2.8454,2.7363,2.6773,2.6357,2.6127,2.588,2.5661,2.5522,2.5355,2.4914,2.3933,2.3445,0.0,2.0245,1.9863,1.9631,1.8922,1.8655,1.8441,1.817,1.7546,1.6976,1.6487,1.5971,1.5345,1.457,1.429,0.0,0.0,0.0,1.2547,1.3087,1.2474,0.0,0.0,0.0,1.3543,1.3543,1.3543,0.0,0.0,1.3085,1.289,0.0,0.0,0.0,0.0,0.0,0.0,0.0,0.0,0.0,0.0,0.0,0.0,0.0,0.0,0.0,0.0,4.1805,4.4113,4.7534,4.7289,4.7144,4.8356,4.8326,4.8163,4.8033,4.863,4.8396,4.7064,4.8129,4.7956,4.5945,4.6349,0.0,0.0,0.0,4.419,4.339,4.2205,4.1548,4.1492,4.0891,4.0613,4.0578,3.9945,3.8968,3.7776,3.7062,3.6376,3.5739,3.5642,3.5579,3.5457,3.5294,3.507,3.4666,3.339,3.2828,3.2503,3.1182,0.0,0.0,2.9697,2.9348,2.9028,2.9552,2.9697,2.9581,2.8884,2.8511,2.8025,2.706,2.6394,2.6042,2.6312,2.615,2.588,2.5633,2.5578,2.5136,2.3633,2.3308,2.2771,2.1211,2.0873,2.0572,1.9939,1.9552,1.9162,1.8794,1.8026,1.7272,1.6576,1.5959,0.0,1.4115,1.4473,1.4362,1.3482,1.4034,1.4392,1.4322,1.42,1.4294,1.4653,1.4513,1.4419,1.4419,1.4396,1.4396,1.4374,1.3412,1.3043,0.0,0.0,0.0,0.0,0.0,0.0,0.0,0.0,0.0,0.0,0.0,0.0,0.0,0.0,0.0,4.1576,4.4654,4.7293,4.8612,4.9092,4.9403,4.9581,4.8884,4.8356,4.8163,4.8296,4.8199,4.7803,4.7434,4.7026,4.662,4.6142,4.5355,4.4022,4.3935,4.3263,4.1936,4.1677,4.1519,4.1492,4.136,0.0,4.1304,4.1145,4.0671,3.9881,3.9204,3.8229,3.7086,3.6532,3.5998,3.5519,3.5457,3.4934,3.4142,3.4002,3.3107,3.1948,3.1684,3.1037,3.0423,3.0423,3.0336,3.0249,3.0394,3.0423,0.0,2.9028,2.8652,2.8335,2.7113,2.6715,2.6633,2.6686,2.6445,2.6203,2.6177,2.5961,2.552,2.4528,2.3923,2.3242,2.22,2.1337,2.0646,2.0195,2.0042,1.9785,1.9162,1.8623,1.8148,1.779,1.6911,1.6295,1.6064,1.5404,1.4788,1.4214,1.4324,1.423,1.3838,1.4512,1.4743,1.4444,1.4586,1.4628,1.4628,1.4466,1.4396,1.4396,1.4085,1.3902,0.0,0.0,0.0,0.0,0.0,0.0,0.0,0.0,0.0,0.0,0.0,3.7077,3.8227,0.0,4.3369,4.4857,4.6989,4.8849,4.9965,4.9796,4.9632,4.9846,4.9144,4.8547,4.8356,4.869,4.8724,4.8261,4.82,4.8034,4.7671,4.721,4.6651,4.5927,4.5538,4.4787,4.3654,4.2944,4.2559,4.2554,4.2205,4.2205,4.2522,4.2166,4.1655,4.0989,3.9912,3.8897,3.7892,3.6929,3.6297,3.5968,3.5639,3.5183,3.4726,3.4337,3.3678,3.2901,3.2161,3.1658,3.1276,3.0953,3.0806,3.0687,3.0687,3.0628,3.0423,2.9406,2.8913,2.8564,2.7924,2.7285,2.6965,2.7605,2.7149,2.6584,2.6766,2.6432,2.5818,2.496,2.4822,2.4379,2.2828,2.238,2.1938,2.0951,2.0623,2.0397,2.0042,1.9636,1.9156,1.8644,1.7982,1.7284,1.6619,1.5777,1.5306,1.5351,1.5178,1.4996,1.4759,1.5098,1.5195,1.4961,1.4903,1.4834,1.4697,1.4581,1.4489,1.4396,1.4326,1.4233,0.0,0.0,0.0,0.0,0.0,0.0,0.0,3.4527,3.5622,3.6512,3.8396,4.0257,4.161,4.4079,4.6346,4.7669,4.8646,4.9593,5.0642,4.9864,4.9294,4.9506,4.9102,4.8769,4.8578,4.9117,4.9152,4.8549,4.9053,4.912,4.8549,4.8356,4.8126,4.786,4.7133,4.6373,4.5445,4.4291,4.3702,4.3598,4.3052,4.3082,4.3565,4.2969,4.2469,4.1924,4.0446,3.9408,3.86,3.7364,3.673,3.6447,3.5908,3.5609,3.5397,3.4701,3.4339,3.404,3.2817,3.2312,3.2135,3.1633,3.1278,3.1041,3.1041,3.0894,3.0541,2.9842,2.9319,2.8882,2.8738,2.8041,2.752,2.8303,2.7837,2.7176,2.719,2.6791,2.6167,2.5392,2.5592,2.5313,2.3518,2.352,2.328,2.1811,2.1303,2.1055,2.098,2.0679,2.0194,1.9407,1.8933,1.8142,1.6829,1.6135,1.591,1.6281,1.6042,1.5869,1.5804,1.5647,1.5558,1.5558,1.5311,1.5062,1.4857,1.4789,1.4674,1.4466,1.4466,1.4373,3.5834,3.4207,3.2822,3.4003,3.3927,3.437,0.0,3.8362,3.887,4.029,4.1847,4.32,4.4073,4.5568,4.6955,4.777,4.9086,4.9796,4.9323,4.9661,4.9526,4.8277,4.8649,4.8925,4.8769,4.8837,4.8774,4.8515,4.8582,4.8584,4.8515,4.8483,4.7849,4.6544,4.6444,4.5651,4.4134,4.3975,4.3787,4.3598,4.3539,4.3539,4.3598,4.3499,4.3436,4.3314,4.1924,4.061,3.9342,3.8598,3.7557,3.6477,3.6417,3.6028,3.5489,3.5397,3.4852,3.4188,3.4008,3.35,3.2873,3.2814,3.237,3.1868,3.1868,3.1485,3.0896,3.0075,2.9812,2.9608,2.8882,2.9,2.9029,2.8043,2.8158,2.8187,2.7086,2.6796,2.663,2.6224,2.5771,2.532,2.4838,2.4388,2.3621,2.238,2.2146,2.1995,2.1665,2.1562,2.1146,2.0194,1.9608,1.8818,1.7648,1.7041,1.6629,1.6324,1.6259,1.6107,1.5802,1.578,1.5758,1.5758,1.5558,1.5446,1.5401,1.5176,1.4926,1.4674,1.4674,1.4512,3.5659,3.5108,3.4941,3.4844,3.6061,3.7642,3.8856,4.0061,4.1204,4.226,4.4045,4.5602,4.638,4.7733,4.8815,4.912,4.9695,4.9965,4.9661,4.8781,4.7936,4.7327,4.6752,4.6925,4.8183,4.8284,4.8422,4.8765,4.8798,4.8798,4.8798,4.827,4.767,4.7066,4.6136,4.534,4.4649,4.4244,4.3952,4.3894,4.3805,4.3747,4.3747,4.3658,4.3386,4.2988,4.2449,4.1629,4.0624,3.9937,3.9056,3.8114,3.739,3.6647,3.6005,3.5619,3.5277,3.4914,3.4496,3.4166,3.3806,3.3419,3.2762,3.2167,3.2167,3.1664,3.1014,3.069,3.0337,2.9985,2.9929,2.958,2.9143,2.8855,2.8449,2.8071,2.7953,2.7607,2.7263,2.7155,2.7241,2.6899,2.5491,2.5351,2.5079,2.402,2.3427,2.2865,2.2156,2.2052,2.1659,2.065,2.0076,1.9397,1.8542,1.779,1.7239,1.6968,1.6539,1.6238,1.6086,1.5891,1.5804,1.5804,1.5714,1.5625,1.5491,1.5401,1.5198,1.4926,1.4766,1.4605,3.548,3.5783,3.6513,3.5954,3.7999,4.0172,4.034,4.1858,4.3436,4.4181,4.5805,4.7192,4.7564,4.8477,4.9255,4.9458,4.9492,4.9492,4.9492,4.7936,4.665,4.6244,4.5026,4.4993,4.6819,4.7162,4.7597,4.8342,4.8578,4.8714,4.8714,4.8253,4.7821,4.7417,4.6253,4.5391,4.4959,4.4423,4.4126,4.4097,4.4015,4.3956,4.3956,4.3747,4.3449,4.2959,4.2896,4.2491,4.1788,4.1279,4.042,3.9314,3.8372,3.7468,3.6631,3.6164,3.5782,3.5429,3.4921,3.4803,3.4651,3.3993,3.3274,3.2586,3.2407,3.1812,3.119,3.1161,3.0806,3.0511,3.0778,3.0309,2.9752,2.9725,2.9172,2.8618,2.8532,2.8126,2.7721,2.749,2.7839,2.7666,2.6067,2.6184,2.625,2.5475,2.4813,2.4076,2.3055,2.2573,2.1961,2.1073,2.0463,1.993,1.9462,1.87,1.8157,1.7887,1.7235,1.6809,1.6676,1.6315,1.6118,1.6175,1.6007,1.5897,1.5793,1.5651,1.5446,1.5198,1.5062,1.49,3.5269,3.557,3.6351,3.7752,3.9228,4.0815,4.2821,4.4485,4.5805,4.6549,4.7327,4.7665,4.6955,4.6853,4.7124,4.7868,4.7973,4.7973,4.7973,4.7293,4.6244,4.4852,4.3944,4.3775,4.4615,4.5331,4.6075,4.6819,4.753,4.7906,4.7906,4.8578,4.8308,4.6853,4.6786,4.5954,4.436,4.4327,4.4241,4.4097,4.4097,4.4097,4.4097,4.3956,4.3868,4.3868,4.3658,4.3204,4.2585,4.2522,4.1308,3.9408,3.9345,3.8524,3.7354,3.7324,3.6538,3.5519,3.5489,3.5459,3.537,3.4713,3.3993,3.3335,3.2676,3.2019,3.1482,3.1307,3.1278,3.1248,3.1132,3.1485,3.1603,3.0365,3.0542,3.0454,2.8433,2.7996,2.7737,2.6992,2.6849,2.6849,2.6765,2.6765,2.6659,2.6308,2.6254,2.5785,2.469,2.3219,2.2036,2.1467,2.0847,2.0495,2.0468,1.9953,1.9467,1.9073,1.8548,1.8057,1.7654,1.7145,1.6925,1.7049,1.6554,1.6377,1.6571,1.6044,1.5669,1.5491,1.5683,1.5379,3.6461,3.7497,3.8814,4.0934,4.2432,4.372,4.4892,4.5898,4.6326,4.5495,4.5128,4.4688,4.3944,4.3809,4.4215,4.55,4.6515,4.7327,4.7804,4.7259,4.6041,4.4045,4.3132,4.2591,4.2354,4.347,4.4891,4.665,4.7022,4.7394,4.7872,4.7665,4.7293,4.6819,4.5838,4.5094,4.4497,4.4497,4.4468,4.4412,4.4298,4.4184,4.4097,4.4039,4.401,4.401,4.3952,4.3747,4.3479,4.3479,4.2676,4.1431,4.1039,3.9985,3.8672,3.8259,3.7554,3.6753,3.6753,3.6476,3.6134,3.6352,3.5125,3.3546,3.3726,3.2701,3.1511,3.1453,3.1453,3.1484,3.1812,3.1723,3.1397,3.0895,3.0601,3.0218,2.9541,2.9339,2.9168,2.8906,2.8765,2.839,2.7521,2.7376,2.7205,2.6717,2.5942,2.5311,2.4929,2.4042,2.3189,2.241,2.2165,2.1602,2.0572,2.0328,1.985,1.8951,1.8866,1.8425,1.7555,1.745,1.7434,1.7502,1.6707,1.6705,1.7528,1.6734,1.6476,1.6764,1.6691,1.6521,3.8148,3.9709,4.1371,4.3657,4.4833,4.559,4.5958,4.6119,4.5699,4.3796,4.2963,4.2252,4.0967,4.0493,4.1027,4.3031,4.3944,4.5026,4.6887,4.6244,4.5162,4.3978,4.3166,4.2625,4.2422,4.3031,4.4012,4.5466,4.6346,4.6989,4.7496,4.7564,4.7462,4.7192,4.6278,4.5635,4.5393,4.5094,4.4993,4.4993,4.4874,4.4759,4.4673,4.4313,4.4184,4.4184,4.4126,4.4039,4.3985,4.3985,4.346,4.265,4.2209,4.1147,3.978,3.9321,3.8724,3.8026,3.756,3.7115,3.6814,3.6981,3.5909,3.4573,3.4707,3.371,3.2488,3.2276,3.2043,3.187,3.199,3.1871,3.1633,3.1308,3.1101,3.0804,3.0303,3.0099,2.9984,2.9662,2.9519,2.9171,2.827,2.8099,2.7839,2.7229,2.6474,2.5779,2.5192,2.4718,2.4137,2.3345,2.3069,2.2498,2.1505,2.1141,2.0548,1.9609,1.9382,1.8906,1.7938,1.7813,1.7804,1.786,1.7302,1.7406,1.8177,1.7429,1.7265,1.7605,1.7431,1.7257,4.0233,4.2073,4.3777,4.5849,4.6302,4.6186,4.588,4.5177,4.3899,4.15,4.0899,4.0121,3.799,3.7077,3.7642,4.0595,4.0663,4.1602,4.5229,4.4559,4.3944,4.4581,4.4012,4.3842,4.4547,4.3944,4.3511,4.3511,4.5534,4.6786,4.6853,4.8173,4.8612,4.7906,4.7804,4.7496,4.6786,4.6109,4.5771,4.5771,4.5737,4.5703,4.5669,4.4749,4.4293,4.4293,4.4184,4.4126,4.4097,4.4064,4.3662,4.3026,4.2884,4.1927,4.0661,4.0497,4.0005,3.9148,3.794,3.7472,3.7347,3.674,3.6489,3.6302,3.5693,3.4989,3.4316,3.3759,3.3115,3.2496,3.1868,3.2107,3.2377,3.175,3.2019,3.2079,3.0653,3.0357,3.0122,2.9361,2.9186,2.9129,2.8961,2.8821,2.8505,2.7868,2.7724,2.7151,2.5673,2.5244,2.4862,2.4239,2.3568,2.315,2.3097,2.2321,2.154,2.0904,2.0183,1.95,1.8841,1.8296,1.8084,1.8288,1.8279,1.8389,1.8549,1.8201,1.8037,1.8063,1.7939,1.7635,4.2577,4.401,4.5198,4.6783,4.6309,4.5397,4.5131,4.3257,4.1043,3.9156,3.6547,3.4457,3.385,3.4493,3.6062,3.9073,4.1771,4.4175,4.621,4.7124,4.7056,4.5602,4.5737,4.5568,4.4682,4.4891,4.5128,4.5128,4.5669,4.6481,4.7564,4.8003,4.8075,4.7906,4.6853,4.6447,4.6786,4.6616,4.6515,4.6515,4.5974,4.5703,4.5669,4.4897,4.4525,4.4497,4.4468,4.4384,4.4202,4.3636,4.358,4.3762,4.3165,4.2367,4.1565,4.1537,4.0708,3.9547,3.9222,3.8673,3.8104,3.8449,3.7584,3.6422,3.6741,3.6015,3.5096,3.4939,3.4795,3.4631,3.4448,3.381,3.3174,3.3036,3.2348,3.166,3.1274,3.1127,3.0981,3.0774,3.0273,2.9805,2.9777,2.9282,2.8789,2.8614,2.8068,2.7405,2.6541,2.6376,2.6012,2.5172,2.4494,2.3854,2.315,2.2488,2.1629,2.0538,2.0673,2.0345,1.9301,1.9113,1.9246,1.9743,1.8631,1.8497,1.9391,1.8849,1.8637,1.8756,1.9031,1.8919,4.4829,4.5809,4.6454,4.7598,4.6501,4.4803,4.3632,4.135,3.8693,3.6005,3.3533,3.1656,3.0973,3.1785,3.3558,3.6535,3.9614,4.2625,4.5461,4.6819,4.7327,4.6752,4.7022,4.6955,4.6143,4.6413,4.6819,4.7124,4.6853,4.7056,4.7838,4.821,4.8376,4.8376,4.7597,4.7192,4.7293,4.7597,4.7597,4.7259,4.6549,4.6177,4.6143,4.5089,4.4615,4.4615,4.4615,4.4559,4.4406,4.4002,4.3783,4.3765,4.3636,4.2937,4.1969,4.1921,4.1184,4.0139,3.9804,3.9355,3.8974,3.9362,3.8737,3.7916,3.8274,3.7595,3.6685,3.6424,3.6079,3.5774,3.5464,3.4862,3.4261,3.3969,3.3126,3.2407,3.2407,3.1841,3.1365,3.1365,3.1189,3.0954,3.0658,3.0188,2.9779,2.9485,2.8965,2.8443,2.7802,2.7166,2.6596,2.6061,2.543,2.4747,2.3945,2.3197,2.2243,2.0968,2.1141,2.0709,1.9465,1.9417,1.9424,1.9501,1.8925,1.8914,1.9583,1.9571,1.9628,1.9708,1.9938,1.9837,4.6777,4.7324,4.7489,4.7967,4.6362,4.4053,4.1673,3.919,3.6378,3.2855,3.1365,3.0334,2.9197,2.9705,3.1297,3.4346,3.6728,3.974,4.4196,4.5393,4.6447,4.8067,4.8206,4.8176,4.8176,4.8176,4.8443,4.8951,4.8409,4.8041,4.8041,4.8646,4.8951,4.8849,4.8951,4.8646,4.7906,4.8646,4.868,4.8071,4.7192,4.6786,4.6752,4.5292,4.4615,4.4615,4.4615,4.4615,4.4615,4.4479,4.4079,4.3612,4.4041,4.3412,4.224,4.2165,4.164,4.0903,4.0258,3.999,3.9889,3.9737,3.9703,3.9703,3.9703,3.9189,3.8542,3.7975,3.7316,3.6657,3.5995,3.5674,3.5364,3.4688,3.4,3.3484,3.3484,3.2587,3.175,3.166,3.202,3.2109,3.1426,3.122,3.0925,3.0334,3.0072,2.9723,2.9109,2.7861,2.7023,2.691,2.6355,2.5662,2.5052,2.4105,2.3068,2.1915,2.1573,2.0953,1.9914,1.9688,1.9462,1.9103,1.9421,1.9619,1.9619,2.0374,2.0671,2.0533,2.0684,2.05,4.7661,4.8085,4.787,4.6629,4.4627,4.232,3.996,3.639,3.3155,3.1704,2.9479,2.8066,2.8916,3.0262,3.2432,3.6046,3.8418,4.1214,4.5261,4.6253,4.7454,4.9678,4.9822,4.9729,4.9729,4.9729,4.9526,4.9052,4.8883,4.8815,4.8815,4.8951,4.8714,4.8139,4.868,4.8646,4.7906,4.8646,4.8951,4.8815,4.7428,4.6786,4.6752,4.5292,4.4615,4.4615,4.4615,4.4615,4.4547,4.3876,4.391,4.4316,4.3781,4.3382,4.3179,4.3152,4.2679,4.203,4.1895,4.1456,4.0796,3.9982,3.9703,3.9703,3.9703,3.9625,3.9487,3.9354,3.9163,3.8809,3.8121,3.7089,3.6048,3.5364,3.4334,3.3484,3.3484,3.3305,3.3006,3.2407,3.2407,3.2258,3.1601,3.1366,3.1219,3.11,3.0511,2.9984,2.9781,2.8939,2.8158,2.7579,2.6997,2.6355,2.5716,2.4534,2.3502,2.2727,2.2156,2.1989,2.2278,2.1268,2.1173,2.2134,2.121,2.074,2.074,2.1212,2.1041,2.0281,2.1083,2.099,4.8481,4.8685,4.8248,4.6287,4.3783,4.101,3.7922,3.4457,3.1468,2.9863,2.822,2.7228,2.7896,2.9619,3.1754,3.4349,3.6547,3.9564,4.415,4.4992,4.6428,4.9977,4.9856,4.9726,5.0193,4.9825,4.939,4.9018,4.9018,4.9018,4.9018,4.9018,4.8849,4.8477,4.8815,4.8849,4.8477,4.8815,4.9018,4.8984,4.7902,4.7158,4.6752,4.5669,4.4959,4.4615,4.4615,4.4615,4.4581,4.4181,4.4012,4.3978,4.4012,4.3775,4.3375,4.3375,4.32,4.2828,4.2422,4.2049,4.1617,4.0744,4.0213,3.991,3.991,3.9858,3.9807,3.9807,3.9703,3.952,3.9222,3.8075,3.6936,3.6613,3.5523,3.4352,3.3634,3.4053,3.4233,3.3215,3.3305,3.3335,3.2677,3.2497,3.2348,3.196,3.1545,3.1102,3.0689,3.0249,2.952,2.8332,2.7955,2.7401,2.6413,2.5749,2.4965,2.3931,2.3606,2.3287,2.2917,2.2672,2.2497,2.2417,2.2127,2.1982,2.1982,2.2169,2.2238,2.2128,2.2425,2.2263,4.8727,4.8975,4.8443,4.6075,4.32,3.9986,3.6208,3.3012,3.0292,2.8406,2.7503,2.7176,2.7467,2.9007,3.0872,3.2823,3.4575,3.7445,4.2568,4.3503,4.5314,4.9729,4.9709,4.9749,5.0793,5.0057,4.9554,4.9554,4.9416,4.9215,4.9018,4.9018,4.9018,4.9018,4.9018,4.9018,4.9018,4.9018,4.9018,4.8984,4.8274,4.753,4.6752,4.6041,4.5297,4.4615,4.4615,4.4615,4.4615,4.4615,4.4215,4.3741,4.435,4.4215,4.3673,4.3673,4.3673,4.3572,4.2997,4.2658,4.2455,4.188,4.1068,4.0316,4.0146,4.0037,3.9935,3.9935,3.9833,3.9729,3.9729,3.881,3.7764,3.7472,3.6446,3.5254,3.4143,3.4771,3.516,3.3933,3.4144,3.4294,3.3604,3.3484,3.3335,3.2796,3.2497,3.2139,3.1604,3.1308,3.066,2.9346,2.9056,2.8417,2.7084,2.6852,2.6271,2.5085,2.4882,2.4418,2.3577,2.3891,2.3688,2.2817,2.3142,2.3345,2.3345,2.3293,2.3531,2.3952,2.3826,2.3593,4.7831,4.8511,4.8308,4.5427,4.2448,3.9233,3.5453,3.1905,2.9141,2.8185,2.7603,2.7647,2.8922,2.942,3.0764,3.4367,3.5036,3.6766,4.1488,4.3143,4.533,4.9306,5.015,5.0952,5.2289,5.1711,5.1269,5.1269,5.0748,5.0036,4.9052,4.9018,4.9018,4.9018,4.9018,4.9018,4.9018,4.9018,4.9018,4.8984,4.8274,4.753,4.6752,4.6041,4.5297,4.4615,4.4615,4.4615,4.4615,4.4615,4.4581,4.4513,4.4581,4.4547,4.4513,4.4513,4.4513,4.4479,4.4412,4.391,4.3274,4.3206,4.2252,4.0967,4.0316,4.0087,4.0087,4.0087,3.9986,3.9858,3.9858,3.9242,3.8302,3.6994,3.6196,3.5593,3.5372,3.5429,3.528,3.4563,3.4474,3.4294,3.3604,3.3484,3.3484,3.3425,3.2856,3.2408,3.2228,3.1664,3.119,3.0925,3.0221,2.9199,2.7752,2.7113,2.65,2.5749,2.5197,2.5081,2.5542,2.4998,2.494,2.5454,2.4965,2.4704,2.4704,2.465,2.4431,2.4091,2.4554,2.4494,4.6903,4.7886,4.7823,4.5224,4.1722,3.8007,3.4629,3.1089,2.8305,2.7555,2.7344,2.7627,2.8628,2.8817,2.9799,3.2662,3.2349,3.3427,3.8425,3.9168,4.1473,4.7648,4.8088,4.9197,5.2609,5.1728,5.0949,5.0949,5.0738,5.0226,4.9358,4.929,4.929,4.929,4.929,4.929,4.929,4.929,4.929,4.929,4.8421,4.7645,4.6898,4.607,4.5297,4.4615,4.4615,4.4615,4.4615,4.4615,4.4615,4.4615,4.4615,4.4615,4.4615,4.4615,4.4615,4.4615,4.4615,4.4384,4.4045,4.3572,4.3003,4.232,4.1136,4.0764,4.0764,4.0764,4.0713,4.0788,4.1227,4.0788,3.983,3.8402,3.7561,3.6967,3.6516,3.6084,3.5689,3.5292,3.52,3.5108,3.4773,3.4711,3.4562,3.4143,3.3873,3.3514,3.3064,3.2437,3.199,3.1842,3.1102,3.022,2.9224,2.8876,2.8382,2.771,2.7368,2.6965,2.6442,2.6477,2.6303,2.5832,2.5952,2.6065,2.6065,2.5604,2.5503,2.5698,2.5529,2.536,4.476,4.6152,4.6496,4.4175,4.0493,3.6661,3.3715,3.0308,2.7623,2.7077,2.7122,2.7457,2.8215,2.8403,2.9144,3.142,3.0903,3.1744,3.6285,3.7075,3.9433,4.5505,4.6014,4.7598,5.2008,5.195,5.1477,5.1066,5.1028,5.0647,4.9688,4.9654,4.9624,4.95,4.95,4.95,4.95,4.95,4.95,4.9471,4.8835,4.7997,4.7043,4.6418,4.5609,4.472,4.472,4.472,4.472,4.472,4.4692,4.4671,4.4671,4.4643,4.4615,4.4615,4.4615,4.4615,4.4615,4.4615,4.4513,4.3944,4.3775,4.3538,4.2252,4.1711,4.1542,4.1542,4.1542,4.1644,4.2151,4.1765,4.0972,3.9902,3.8998,3.8247,3.7706,3.6926,3.6277,3.6118,3.5935,3.575,3.5587,3.5554,3.5374,3.4893,3.4623,3.4324,3.3844,3.3215,3.2676,3.2407,3.1842,3.1131,3.0158,3.0013,2.9663,2.8988,2.8876,2.8413,2.7455,2.7833,2.7605,2.6675,2.691,2.7055,2.7055,2.6387,2.6355,2.6791,2.6326,2.6043,4.1094,4.2895,4.4107,4.1813,3.8502,3.5213,3.2855,2.9578,2.6992,2.6926,2.7006,2.7342,2.8148,2.837,2.9144,3.142,3.18,3.2835,3.587,3.8249,4.056,4.2965,4.4527,4.6825,5.0463,5.2835,5.3555,5.2077,5.2127,5.1533,5.008,5.0011,4.983,4.95,4.95,4.95,4.95,4.95,4.95,4.95,4.9471,4.8685,4.7187,4.7187,4.6396,4.5022,4.5022,4.5022,4.5022,4.5022,4.4913,4.4803,4.4803,4.4692,4.4615,4.4615,4.4615,4.4615,4.4615,4.4615,4.4615,4.4615,4.4581,4.4445,4.3639,4.2861,4.2286,4.2286,4.2286,4.2286,4.2286,4.1848,4.1375,4.1201,4.0206,3.922,3.903,3.7924,3.6977,3.6977,3.6461,3.5941,3.572,3.5688,3.5623,3.5522,3.4921,3.4503,3.4503,3.3873,3.3245,3.2557,3.2467,3.1841,3.0245,3.0099,2.9804,2.9156,2.9098,2.9042,2.8874,2.8874,2.8819,2.868,2.8042,2.7695,2.7695,2.7084,2.6791,2.682,2.6791,2.6474,3.8464,3.9553,3.9976,3.9165,3.6593,3.3828,3.1975,2.9578,2.7588,2.7077,2.7122,2.7457,2.8215,2.7955,2.873,3.2007,3.2145,3.2662,3.518,3.7491,4.0032,4.2861,4.7734,5.0912,5.0991,5.2609,5.3229,5.2196,5.1705,5.1252,5.0804,5.0287,4.9952,4.983,4.983,4.983,4.983,4.983,4.983,4.983,4.9198,4.8351,4.7392,4.6725,4.5945,4.5022,4.5022,4.5022,4.5022,4.5022,4.4995,4.494,4.494,4.4913,4.4886,4.4886,4.4803,4.472,4.472,4.4699,4.4615,4.4615,4.4615,4.4547,4.4282,4.3673,4.3064,4.3064,4.3436,4.387,4.387,4.3732,4.3446,4.2891,4.2114,4.1219,4.023,3.9345,3.8557,3.8004,3.7323,3.677,3.6609,3.6213,3.5846,3.5686,3.5473,3.529,3.5222,3.4592,3.4114,3.3873,3.3455,3.2617,3.1186,3.0981,3.0834,3.0626,3.0511,3.0247,2.9747,2.9718,2.9456,2.8988,2.8671,2.8323,2.7886,2.7574,2.72,2.682,2.682,2.6686,3.5656,3.6649,3.7091,3.6728,3.466,3.24,3.1099,2.9188,2.7554,2.7076,2.7138,2.7372,2.7819,2.7576,2.8247,3.1145,3.1489,3.2283,3.4835,3.7387,4.0388,4.4069,4.901,5.1735,5.0804,5.2321,5.2942,5.1843,5.1356,5.0976,5.07,5.0252,5.0011,5.0011,5.0011,5.0011,5.0011,5.0011,5.0011,5.0011,4.9412,4.8592,4.7561,4.6962,4.6117,4.5157,4.5157,4.5157,0.0,4.5157,4.513,4.5103,4.5103,4.5015,4.5022,4.5022,4.4968,4.4886,4.4831,4.4924,4.5077,4.5021,4.5196,4.5326,4.4784,4.4248,4.3842,4.3842,4.4215,4.4615,4.4615,4.4615,4.4412,4.3676,4.2987,4.2176,4.1119,4.0163,3.9338,3.8844,3.819,3.7543,3.7136,3.674,3.631,3.5876,3.5752,3.5655,3.5619,3.5194,3.4803,3.4533,3.4144,3.3425,3.2348,3.2169,3.202,3.1752,3.1664,3.1308,3.0569,3.0539,3.0333,2.9864,2.9542,2.9046,2.8429,2.7822,2.7331,2.6948,2.6948,2.6896,0.0,3.4134,3.5025,3.437,3.2639,3.0934,3.0224,2.8526,0.0,2.7093,2.7106,2.717,2.7342,2.7372,2.7902,2.9558,3.0489,3.206,3.4938,3.8043,4.1664,4.6148,4.87,5.0045,4.9942,5.1942,5.2632,5.1218,5.1045,5.0769,5.0114,5.0045,4.9976,4.9942,4.9907,4.9942,5.0011,4.9942,4.9942,5.0011,4.9907,4.9114,4.7672,4.7638,4.681,4.5397,4.5397,4.5397,4.5397,4.5397,4.5344,4.5203,4.5203,4.5123,4.5049,4.5049,4.5022,4.5022,4.4886,4.5279,4.5801,4.5659,4.6075,4.638,4.5021,4.4649,4.4682,4.4615,4.4615,4.4615,4.4615,4.4615,4.444,4.3735,4.3106,4.2458,4.1754,4.0591,3.9686,3.9585,3.9031,3.8319,3.7481,3.7266,3.6958,3.6189,3.5878,3.572,3.572,3.5589,3.5282,3.4653,3.4593,3.4324,3.3694,3.3514,3.3155,3.2557,3.2467,3.2079,3.1336,3.1307,3.1278,3.1132,3.0482,2.9804,2.9156,2.7886,2.7266,2.7266,2.7237,2.713,3.0094,0.0,3.134,3.119,3.0368,2.9424,0.0,2.8203,2.7928,2.7996,2.7615,2.7783,2.9541,2.892,2.9213,3.249,3.3628,3.48,3.6684,4.0584,4.4251,4.7113,4.9459,5.039,4.9189,5.0631,5.1494,5.1149,5.0597,5.0424,5.0838,5.0321,4.9735,4.9085,4.9085,4.939,5.0011,4.939,4.9361,5.0011,4.8803,4.8079,4.7672,4.7113,4.6293,4.5397,4.5397,4.5397,4.5397,4.5397,4.5371,4.5371,4.5371,4.5344,4.5318,4.5318,4.5264,4.515,4.5096,4.5152,4.5213,4.5048,4.5072,4.5055,4.4716,4.4993,4.5331,4.4784,4.4615,4.4615,4.4615,4.4615,4.4559,4.4384,4.4207,4.3768,4.252,4.2013,4.15,4.0467,3.9705,3.9182,3.8995,3.8104,3.7302,3.6958,3.6437,3.6038,3.5941,3.591,3.5753,3.5445,3.5415,3.5321,3.504,3.3634,3.2677,3.2497,3.2019,3.1631,3.1453,3.1453,3.1453,3.1395,3.0654,3.0125,2.9863,2.8591,2.7971,2.7942,2.7443,2.7181,2.9313,2.9701,3.024,3.024,2.9971,2.9515,2.8818,2.8459,2.8166,2.7906,2.7542,2.7764,2.9351,2.8972,2.9523,3.2972,3.418,3.5856,3.9134,4.2309,4.5251,4.7879,4.9631,5.0424,4.9878,5.0631,5.0976,5.0631,5.0252,5.0011,5.0016,4.9666,4.9085,4.8327,4.8293,4.8499,4.8941,4.8499,4.8499,4.8941,4.8086,4.7527,4.7155,4.6803,4.6155,4.5397,4.5397,4.5397,4.5397,4.5397,4.5397,4.5397,4.5397,4.5397,4.5397,4.5397,4.5371,4.5291,4.5203,4.5336,4.548,4.5425,4.5524,4.558,4.4902,4.5151,4.5534,4.4818,4.4615,4.4615,4.4615,4.4615,4.4497,4.4179,4.4121,4.3798,4.2738,4.2269,4.182,4.1091,4.0405,3.9859,3.9521,3.8908,3.829,3.7855,3.7453,3.7021,3.6587,3.6493,3.6307,3.5908,3.5816,3.5814,3.5748,3.4359,3.3456,3.3425,3.3095,3.2736,3.2437,3.2108,3.1809,3.1511,3.0766,3.0354,3.0297,2.9315,2.869,2.8367,2.801,2.7658,2.9246,2.9759,3.0425,3.0252,3.022,3.0085,2.9539,2.8922,2.8354,2.7886,2.773,2.7937,2.8903,2.9075,3.0006,3.28,3.4318,3.696,4.2112,4.4,4.5803,4.8465,4.9499,5.0149,5.0562,5.07,5.0459,4.97,4.9666,4.9355,4.8672,4.8637,4.8293,4.7562,4.7534,4.7465,4.7327,4.7465,4.7569,4.7672,4.7465,4.7113,4.6596,4.6493,4.6017,4.5397,4.5397,4.5397,4.5397,4.5397,4.5397,4.5397,4.5397,4.5397,4.5397,4.5397,4.5397,4.5397,4.5291,4.5569,4.5979,4.5979,4.6277,4.647,4.5177,4.5168,4.5427,4.4784,4.4615,4.4615,4.4615,4.4615,4.444,4.3827,4.3676,4.3499,4.28,4.2205,4.1723,4.1558,4.1057,4.0427,3.977,3.9585,3.9305,3.8754,3.8468,3.8096,3.7481,3.7231,3.686,3.625,3.6098,3.6037,3.6005,3.5301,3.4842,3.4685,3.4474,3.4114,3.3514,3.2856,3.2228,3.166,3.0972,3.0672,3.0672,3.0043,2.9445,2.8876,2.8786,2.8405,2.837,2.9593,3.0453,2.9588,2.9487,2.9523,2.9403,2.9351,2.9472,3.0041,2.9627,2.9799,3.1834,3.2214,3.28,3.4559,3.7685,4.1516,4.6182,4.7044,4.7596,4.8672,4.9499,4.9528,4.8327,4.8775,4.8844,4.8114,4.8079,4.7982,4.7879,4.7844,4.7534,4.6803,4.6769,4.6431,4.5742,4.6431,4.7079,4.7672,4.6362,4.6052,4.6596,4.588,4.55,4.5397,4.5397,4.5397,4.5397,4.5397,4.5397,4.5397,4.5397,4.5397,4.5397,4.5397,4.5397,4.5397,4.5371,4.536,4.5321,4.5321,4.5343,4.5213,4.4899,4.4844,4.489,4.4677,4.4615,4.4615,4.4615,4.4615,4.4587,4.4468,4.444,4.4236,4.3529,4.3257,4.2862,4.1722,4.1426,4.1129,4.0454,3.9859,3.9493,3.9336,3.8844,3.8444,3.8321,3.7797,3.7333,3.7019,3.6531,3.6101,3.6005,3.5882,3.5726,3.5537,3.4356,3.3604,3.3484,3.2856,3.2437,3.2348,3.169,3.1361,3.1361,3.0702,3.0313,3.0193,2.9684,2.9385,2.7799,2.8903,2.9954,2.9489,3.0332,3.109,3.0264,3.0127,3.0351,3.1145,3.1007,3.1455,3.3731,3.4456,3.5663,3.8422,4.1388,4.4078,4.6155,4.681,4.7362,4.812,4.8534,4.8665,4.8327,4.7906,4.7672,4.7707,4.7358,4.7158,4.7121,4.7113,4.6769,4.5983,4.5949,4.5776,4.5397,4.5776,4.6121,4.6431,4.5742,4.5604,4.5914,4.5569,4.5397,4.5397,4.5397,4.5397,4.5397,4.5397,4.5397,4.5397,4.5397,4.5397,4.5397,4.5397,4.5397,4.5397,4.5397,4.5371,4.5318,4.5318,4.5184,4.4995,4.494,4.4803,4.4665,4.4615,4.4615,4.4615,4.4615,4.4615,4.4615,4.4615,4.4615,4.4497,4.4179,4.3764,4.3317,4.2707,4.23,4.182,4.1158,4.0807,4.0589,4.0589,4.0308,4.0128,4.0135,3.9534,3.9093,3.8997,3.8028,3.7498,3.7802,3.7365,3.6692,3.5752,3.4986,3.4412,3.4053,3.3395,3.2886,3.2497,3.1839,3.1511,3.1511,3.1182,3.0853,3.0492,3.0223,2.9894,2.7661,2.8523,2.9489,2.9489,3.0972,3.2214,3.1627,3.1351,3.1524,3.2628,3.2835,3.3386,3.5145,3.6353,3.8284,4.1964,4.432,4.588,4.6397,4.6983,4.7631,4.8183,4.8051,4.7961,4.8054,4.7077,4.6583,4.6934,4.6465,4.6226,4.6301,4.632,4.6017,4.5432,4.5397,4.5397,4.5397,4.5397,4.5397,4.5397,4.5397,4.5397,4.5397,4.5397,4.5397,4.5397,4.5397,4.5397,4.5397,4.5397,4.5397,4.5397,4.5397,4.5397,4.5397,4.5397,4.5397,4.5397,4.5397,4.5397,4.5397,4.5397,4.5238,4.5049,4.5022,4.4831,4.4643,4.4615,4.4615,4.4615,4.4615,4.4615,4.4615,4.4615,4.4615,4.4615,4.4615,4.415,4.3706,4.3525,4.3075,4.252,4.182,4.1723,4.1723,4.1723,4.1723,4.1725,4.1745,4.1148,4.0734,4.0737,3.961,3.901,3.9379,3.8714,3.7687,3.6352,3.5784,3.5254,3.4533,3.3874,3.3275,3.2766,3.2079,3.172,3.172,3.172,3.1391,3.0731,3.0731,3.0492,2.8144,2.8903,2.9489,2.9489,3.0179,3.1404,3.3406,3.3283,3.3352,3.5525,3.5973,3.6042,3.618,3.7974,4.0491,4.3621,4.5458,4.7251,4.939,4.9735,4.9769,4.9838,4.9183,4.7957,4.6016,4.5732,4.5427,4.4778,4.4682,4.4905,4.5474,4.55,4.5466,4.5397,4.5397,4.5397,4.5397,4.5397,4.5397,4.5397,4.5397,4.5397,4.5397,4.5397,4.5397,4.5397,4.5397,4.5397,4.5397,4.5397,4.5397,4.5397,4.5397,4.5397,4.5397,4.5397,4.5397,4.5397,4.5397,4.5397,4.5397,4.5397,4.5318,4.515,4.5049,4.4913,4.4748,4.4643,4.4615,4.4615,4.4615,4.4615,4.4615,4.4615,4.4615,4.4615,4.4615,4.4559,4.4293,4.3647,4.3436,4.3227,4.2552,4.2426,4.2426,4.2426,4.2426,4.2425,4.2424,4.1842,4.1452,4.1417,4.0769,4.0089,3.9441,3.9227,3.876,3.7876,3.6477,3.5353,3.4533,3.3874,3.3484,3.3425,3.2766,3.2437,3.2437,3.2437,3.2079,3.1421,3.1421,3.1391,2.7627,2.8937,3.011,2.9627,3.08,3.2421,3.3785,3.4959,3.6249,3.8043,3.9181,3.9997,4.0515,4.1688,4.3078,4.4734,4.6665,4.8086,4.8528,4.8947,4.8936,4.8046,4.7266,4.6326,4.5169,4.4254,4.3767,4.3885,4.3881,4.414,4.4824,4.5211,4.5397,4.5397,4.5397,4.5397,4.5397,4.5397,4.5397,4.5397,4.5397,4.5397,4.5397,4.5397,4.5397,4.5397,4.5397,4.5397,4.5397,4.5397,4.5397,4.5397,4.5397,4.5397,4.5397,4.5397,4.5397,4.5397,4.5397,4.5344,4.5291,4.5291,4.5157,4.494,4.4886,4.4776,4.4671,4.4615,4.4615,4.4615,4.4615,4.4615,4.4615,4.4615,4.4615,4.4615,4.4615,4.4615,4.4497,4.4236,4.4179,4.3943,4.3227,4.3106,4.3106,4.3106,4.3106,4.3287,4.3739,4.3175,4.2921,4.3398,4.276,4.1825,4.0668,4.0578,4.0193,3.9355,3.7515,3.6261,3.5799,3.4787,3.4027,3.3514,3.2856,3.2288,3.1869,3.1869,3.175,3.1511,3.1511,3.1511,2.7282,2.8592,2.9903,2.9592,3.1386,3.3662,3.52,3.6753,3.841,4.0411,4.1654,4.2551,4.3103,4.3621,4.4138,4.463,4.6631,4.8017,4.7741,4.812,4.8026,4.684,4.607,4.5211,4.4141,4.319,4.274,4.3199,4.3178,4.356,4.4457,4.4864,4.5156,4.5397,4.5397,4.5294,4.5044,4.5259,4.5259,4.5079,4.5294,4.5397,4.5397,4.5397,4.5397,4.5397,4.5397,4.5397,4.5397,4.5397,4.5397,4.5397,4.5397,4.5397,4.5397,4.5397,4.5397,4.5397,4.5371,4.5291,4.5177,4.515,4.4995,4.4803,4.4803,4.4726,4.4615,4.4615,4.4615,4.4615,4.4615,4.4615,4.4615,4.4615,4.4615,4.4615,4.4615,4.4615,4.4615,4.4615,4.4615,4.444,4.3943,4.3856,4.3856,4.3856,4.3856,4.403,4.4559,4.4179,4.403,4.4559,4.4113,4.3305,4.2055,4.2022,4.1588,4.0513,3.889,3.7599,3.6711,3.5584,3.4729,3.4152,3.3457,3.2796,3.2138,3.2138,3.1899,3.1511,3.1511,3.1511,2.7282,2.7833,2.8592,2.9351,3.1834,3.4924,3.7939,3.8651,3.9514,4.2585,4.3241,4.3207,4.3207,4.3207,4.3207,4.3207,4.5113,4.6872,4.7596,4.7672,4.7442,4.6738,4.6007,4.48,4.2775,4.2585,4.2585,4.2585,4.2482,4.2998,4.4361,4.4376,4.463,4.5363,4.5363,4.5044,4.4311,4.501,4.501,4.4311,4.5044,4.5397,4.5397,4.5397,4.5397,4.5397,4.5397,4.5397,4.5397,4.5397,4.5397,4.5397,4.5397,4.5397,4.5397,4.5397,4.5397,4.5371,4.523,4.5203,4.5177,4.5049,4.4913,4.4803,4.4803,4.4726,4.4615,4.4615,4.4615,4.4615,4.4615,4.4615,4.4615,4.4615,4.4615,4.4615,4.4615,4.4615,4.4615,4.4615,4.4615,4.4615,4.4615,4.4615,4.4615,4.4615,4.4615,4.4615,4.4615,4.4615,4.4615,4.4615,4.4615,4.4248,4.3477,4.3409,4.2767,4.1305,4.0668,3.9259,3.6938,3.6048,3.5638,3.5577,3.4879,3.4174,3.3484,3.3484,3.2796,3.1511,3.1511,3.1511,2.742,2.8627,3.0179,3.0938,3.3835,3.7167,3.9652,4.0618,4.1871,4.4941,4.5147,4.4768,4.4768,4.4768,4.4596,4.4069,4.5458,4.6493,4.6121,4.6569,4.6315,4.4641,4.4256,4.355,4.2045,4.147,4.1183,4.1183,4.1458,4.1825,4.2255,4.3072,4.3621,4.3862,4.3837,4.3759,4.3517,4.3759,4.3759,4.3552,4.4251,4.4906,4.5397,4.5397,4.5397,4.5397,4.5397,4.5397,4.5397,4.5397,4.5397,4.5397,4.5397,4.5397,4.5397,4.5397,4.5397,4.5371,4.523,4.5123,4.5049,4.4913,4.4776,4.4671,4.4671,4.4643,4.4615,4.4615,4.4615,4.4615,4.4615,4.4615,4.4615,4.4615,4.4615,4.4615,4.4615,4.4615,4.4615,4.4615,4.4615,4.4615,4.4615,4.4615,4.4615,4.4615,4.4615,4.4615,4.4615,4.4615,4.4412,4.3885,4.4293,4.4282,4.3523,4.3928,4.3809,4.2801,4.2092,4.0681,3.8374,3.7637,3.6814,3.5847,3.5458,3.4516,3.3006,3.2886,3.2348,3.1511,3.1511,3.1511,2.7696,2.9195,3.1025,3.2386,3.5559,3.9065,4.1654,4.331,4.4975,4.7458,4.681,4.588,4.588,4.5389,4.4803,4.438,4.532,4.5949,4.5466,4.5561,4.5056,4.3307,4.28,4.2133,4.0864,4.061,4.0514,4.0514,4.0972,4.1343,4.1643,4.2347,4.2861,4.3172,4.3207,4.3034,4.2723,4.3034,4.3034,4.2723,4.3517,4.4104,4.4561,4.5121,4.5397,4.5397,4.5397,4.5397,4.5397,4.5397,4.5397,4.5397,4.5397,4.5397,4.5397,4.5397,4.5371,4.5318,4.515,4.5015,4.4913,4.4748,4.4671,4.4615,4.4615,4.4615,4.4615,4.4615,4.4615,4.4615,4.4615,4.4615,4.4615,4.4615,4.4615,4.4615,4.4615,4.4615,4.4615,4.4615,4.4615,4.4615,4.4615,4.4615,4.4615,4.4615,4.4615,4.4615,4.4615,4.4615,4.444,4.3972,4.4321,4.4412,4.3972,4.4355,4.4248,4.3443,4.2726,4.156,3.9894,3.8881,3.7935,3.7039,3.6338,3.5275,3.3846,3.3186,3.2557,3.1899,3.163,3.1511,2.8109,2.9627,3.137,3.3716,3.7215,4.0871,4.3862,4.6148,4.8051,4.9424,4.8114,4.67,4.6631,4.5458,4.4483,4.4414,4.4906,4.5294,4.5294,4.4665,4.3784,4.2622,4.182,4.0939,3.9782,4.0116,4.038,4.038,4.0779,4.1261,4.1963,4.1953,4.224,4.2965,4.3,4.2654,4.193,4.262,4.262,4.193,4.2723,4.3103,4.3138,4.4561,4.519,4.519,4.5259,4.5259,4.519,4.5259,4.5294,4.5294,4.5363,4.5397,4.5397,4.5397,4.5318,4.5177,4.5076,4.4913,4.4776,4.4637,4.4615,4.4615,4.4615,4.4615,4.4615,4.4615,4.4615,4.4615,4.4615,4.4615,4.4615,4.4615,4.4615,4.4615,4.4615,4.4615,4.4615,4.4615,4.4615,4.4615,4.4615,4.4615,4.4615,4.4615,4.4615,4.4615,4.4615,4.4615,4.4615,4.4615,4.4615,4.4615,4.4615,4.4615,4.4282,4.3572,4.2828,4.2083,4.1441,3.9861,3.8935,3.8745,3.7467,3.638,3.5548,3.4334,3.3427,3.2676,3.2016,3.1658,2.9041,3.0386,3.2248,3.5111,3.9595,4.3793,4.5665,4.6941,4.7603,4.7389,4.7424,4.7286,4.6734,4.632,4.5906,4.5285,4.4803,4.4552,4.4552,4.3897,4.316,4.2355,4.2105,4.1704,4.0976,4.0508,4.0231,4.0231,4.0247,4.0299,4.0468,4.0915,4.124,4.1378,4.1378,4.1309,4.1136,4.1309,4.1309,4.1136,4.1895,4.2275,4.2309,4.3241,4.369,4.3724,4.4311,4.4207,4.3724,4.4311,4.4552,4.4596,4.5156,4.5397,4.5397,4.5397,4.5318,4.5177,4.5076,4.4913,4.4776,4.4637,4.4615,4.4615,4.4615,4.4615,4.4615,4.4615,4.4615,4.4615,4.4615,4.4615,4.4615,4.4615,4.4615,4.4615,4.4615,4.4615,4.4615,4.4615,4.4615,4.4615,4.4615,4.4615,4.4615,4.4615,4.4615,4.4615,4.4615,4.4615,4.4615,4.4615,4.4615,4.4615,4.4615,4.4615,4.4547,4.435,4.3606,4.3071,4.2902,4.0939,3.9584,3.9109,3.8635,3.7862,3.6738,3.6213,3.5341,3.4197,3.3435,3.2784,2.8661,3.0351,3.2869,3.7353,4.117,4.4069,4.5216,4.5803,4.5941,4.5561,4.6389,4.6837,4.5699,4.5492,4.5251,4.4458,4.4035,4.3759,4.3759,4.3103,4.2421,4.1798,4.1381,4.0908,4.0348,3.9867,3.9592,3.9592,3.9427,3.9334,3.9334,3.9937,4.0342,4.0342,4.0722,4.0894,4.0894,4.0894,4.0894,4.0894,4.1309,4.1481,4.1516,4.2654,4.3207,4.3207,4.3621,4.3552,4.3241,4.3621,4.3759,4.3862,4.4596,4.4872,4.4906,4.5259,4.5291,4.5069,4.5015,4.4886,4.4692,4.4643,4.4615,4.4615,4.4615,4.4615,4.4615,4.4615,4.4615,4.4615,4.4615,4.4615,4.4615,4.4615,4.4615,4.4615,4.4615,4.4615,4.4615,4.4615,4.4615,4.4615,4.4615,4.4615,4.4615,4.4615,4.4615,4.4615,4.4615,4.4615,4.4615,4.4615,4.4615,4.4615,4.4615,4.4615,4.4615,4.4615,4.3842,4.3375,4.3375,4.1948,4.0785,3.9967,3.9139,3.8389,3.7755,3.693,3.621,3.5574,3.477,3.4032,2.8178,3.0455,3.3697,3.9134,4.1678,4.3059,4.3922,4.4155,4.412,4.3982,4.5036,4.563,4.4345,4.4104,4.3897,4.331,4.3069,4.3,4.3,4.2309,4.1656,4.1197,4.0544,3.9927,3.9365,3.9151,3.8991,3.8856,3.8711,3.8594,3.8594,3.9181,3.956,3.9698,4.0215,4.0584,4.0687,4.0584,4.0515,4.0515,4.0618,4.0687,4.0756,4.2171,4.2792,4.2792,4.293,4.293,4.2792,4.293,4.3,4.3069,4.3966,4.4311,4.4414,4.5121,4.5238,4.5015,4.5015,4.4858,4.4643,4.4643,4.4643,4.4615,4.4615,4.4615,4.4615,4.4615,4.4615,4.4615,4.4615,4.4615,4.4649,4.4784,4.4818,4.4784,4.4649,4.4615,4.4615,4.4615,4.4615,4.4615,4.4615,4.4615,4.4615,4.4615,4.4615,4.4615,4.4615,4.4615,4.4615,4.4615,4.4615,4.4615,4.4615,4.4615,4.4615,4.4615,4.3978,4.3606,4.3606,4.2733,4.195,4.1238,3.9709,3.8947,3.8975,3.7621,3.6986,3.6982,3.6166,3.5429,2.8937,3.2007,3.5421,3.8215,4.0135,4.1763,4.3123,4.3534,4.3423,4.2797,4.3182,4.3586,4.3379,4.3345,4.331,4.3207,4.262,4.2171,4.2171,4.1516,4.1043,4.0937,4.0868,4.0476,3.9718,3.9593,3.933,3.8677,3.8641,3.8594,3.8594,3.8698,3.9043,3.9664,3.9181,3.9215,3.9836,3.9238,3.8927,3.8927,3.9526,3.9871,3.9871,4.0791,4.1205,4.124,4.1895,4.1792,4.1274,4.1895,4.2171,4.2309,4.3759,4.4311,4.4414,4.5121,4.5318,4.5177,4.5177,4.5022,4.4776,4.4776,4.4692,4.4615,4.4615,4.4615,4.4615,4.4615,4.4615,4.4615,4.4615,4.4615,4.4784,4.5399,4.5568,4.5365,4.475,4.4615,4.4615,4.4615,4.4615,4.4615,4.4615,4.4615,4.4615,4.4615,4.4615,4.4615,4.4615,4.4615,4.4615,4.4615,4.4615,4.4615,4.4615,4.4615,4.4615,4.4615,4.4513,4.4445,4.4445,4.2955,4.2368,4.2879,4.1426,4.0721,4.0826,3.98,3.903,3.8581,3.7752,3.6993,2.911,3.1041,3.3317,3.6008,3.8269,4.0089,4.1139,4.2159,4.2671,4.1905,4.1916,4.2064,4.2026,4.2372,4.2486,4.1999,4.1619,4.1378,4.1378,4.1101,4.0894,4.0894,4.0515,4.0077,3.9733,3.8939,3.8341,3.803,3.756,3.7318,3.7318,3.7754,3.8134,3.8479,3.8548,3.8755,3.9077,3.8767,3.8594,3.8594,3.8905,3.9077,3.9112,3.9871,4.0457,4.0929,4.124,4.1205,4.0929,4.124,4.1378,4.155,4.3069,4.369,4.3828,4.4975,4.5318,4.5203,4.5203,4.5015,4.4803,4.4803,4.4692,4.4615,4.4615,4.4615,4.4682,4.5094,4.5196,4.5297,4.5703,4.5534,4.5399,4.6143,4.6007,4.5737,4.5805,4.55,4.5094,4.4682,4.4615,4.475,4.5128,4.5196,4.5365,4.5799,4.5805,4.5805,4.5805,4.5805,4.5669,4.5263,4.5196,4.5026,4.4649,4.4615,4.4615,4.4615,4.4615,4.4615,4.4615,4.3888,4.3658,4.3962,4.1944,4.0915,4.0968,4.0527,4.0,3.9322,3.8644,3.8128,2.8627,2.9661,3.0972,3.3421,3.5869,3.7914,3.8885,4.0386,4.1509,4.1091,4.1161,4.1255,4.1129,4.1567,4.1704,4.0998,4.0894,4.0894,4.0894,4.0894,4.0825,4.0618,4.0043,3.956,3.9181,3.8168,3.7443,3.7215,3.6628,3.6284,3.6284,3.687,3.7305,3.7512,3.7858,3.8112,3.8318,3.8112,3.8008,3.8008,3.8215,3.8318,3.8375,3.9077,3.9836,4.0618,4.0825,4.0894,4.0894,4.0894,4.0998,4.1309,4.2654,4.331,4.3621,4.4888,4.5291,4.5177,4.515,4.5022,4.4803,4.4803,4.4692,4.4615,4.4615,4.4615,4.475,4.55,4.5703,4.5872,4.6616,4.638,4.6177,4.6887,4.665,4.638,4.6718,4.638,4.5805,4.5292,4.5021,4.5094,4.5838,4.5838,4.594,4.6684,4.6786,4.6718,4.6549,4.6515,4.6244,4.55,4.5432,4.5196,4.4649,4.4615,4.4615,4.4615,4.4615,4.4615,4.4615,4.4412,4.4384,4.4615,4.2536,4.146,4.146,4.1231,4.0762,4.005,3.9628,3.928,2.7385,2.8454,2.9799,3.0696,3.2796,3.5014,3.6531,3.8209,3.9687,4.0411,4.1091,4.1515,4.1232,4.1163,4.1081,4.0953,4.0894,4.0894,4.0894,4.0894,4.0618,3.9836,3.9733,3.9146,3.7754,3.7547,3.7202,3.6422,3.6318,3.6284,3.6284,3.6353,3.6697,3.7478,3.6801,3.6801,3.7547,3.6801,3.6422,3.6422,3.718,3.7581,3.7581,3.8318,3.9043,3.9802,4.0584,4.0894,4.0894,4.0894,4.1309,4.2033,4.2861,4.3621,4.432,4.4981,4.5203,4.5177,4.5042,4.4913,4.4803,4.4803,4.4692,4.4615,4.4615,4.4615,4.475,4.55,4.5703,4.5872,4.6616,4.6752,4.6921,4.7665,4.7804,4.7601,4.6921,4.6752,4.6718,4.6684,4.6109,4.5872,4.6616,4.6143,4.594,4.6684,4.6786,4.6549,4.5838,4.5771,4.5466,4.475,4.4682,4.4649,4.4615,4.4615,4.4615,4.4615,4.4615,4.4615,4.4615,4.3876,4.3809,4.4581,4.3713,4.3274,4.3274,4.2429,4.1721,4.111,4.1084,4.0635,2.7282,2.7696,2.8385,2.9627,3.1409,3.3132,3.4175,3.6507,3.8412,3.8222,3.921,4.0065,3.9848,4.0177,4.04,4.0158,4.0112,4.0112,4.0112,4.0112,4.0008,3.9733,3.8836,3.8099,3.7547,3.7008,3.6594,3.6318,3.6284,3.6284,3.6284,3.6284,3.6422,3.6697,3.6456,3.6422,3.6732,3.6422,3.6284,3.6284,3.6594,3.6732,3.6766,3.7547,3.803,3.8353,3.9595,4.0446,4.0894,4.0894,4.1067,4.1378,4.2137,4.2821,4.3503,4.4207,4.4712,4.5042,4.5022,4.4913,4.4803,4.4803,4.4692,4.4615,4.4615,4.4925,4.5466,4.621,4.6752,4.7293,4.8037,4.7868,4.7597,4.7838,4.8244,4.8545,4.8274,4.7834,4.7361,4.6887,4.6583,4.665,4.7394,4.7293,4.7361,4.8105,4.8206,4.8105,4.7868,4.7834,4.753,4.6819,4.6278,4.6036,4.6036,4.5568,4.55,4.5974,4.5568,4.5297,4.5297,4.4553,4.431,4.4615,4.4316,4.3882,4.3265,4.3023,4.2281,4.1073,4.0776,4.0426,2.7282,2.7282,2.7592,2.8834,2.9989,3.1029,3.1774,3.4286,3.6306,3.5797,3.7381,3.8839,3.8628,3.8816,3.9077,3.9295,3.9364,3.9364,3.9319,3.9319,3.925,3.8974,3.8099,3.7409,3.7133,3.6594,3.6284,3.6284,3.6284,3.6284,3.6284,3.6284,3.6284,3.6284,3.6284,3.6284,3.6284,3.6284,3.6284,3.6284,3.6284,3.6284,3.6318,3.6835,3.7236,3.7547,3.8525,3.9549,4.0515,4.0791,4.1067,4.1343,4.1826,4.2521,4.3357,4.3846,4.4399,4.494,4.4886,4.4803,4.472,4.472,4.4665,4.4615,4.4615,4.5128,4.5838,4.6583,4.7327,4.8041,4.8815,4.8646,4.8274,4.8274,4.8646,4.9018,4.9018,4.8612,4.8139,4.7631,4.7327,4.7394,4.8139,4.8041,4.8142,4.8883,4.9018,4.8917,4.868,4.8646,4.8376,4.7631,4.709,4.6786,4.6786,4.6346,4.6278,4.6752,4.6346,4.5974,4.5703,4.5229,4.4852,4.4615,4.4615,4.4288,4.367,4.3753,4.3111,4.1815,4.1513,4.103,0.0,0.0,0.0,2.8178,2.8416,2.8705,2.9468,3.1568,3.3315,3.3242,3.5731,3.7907,3.7687,3.7114,3.7073,3.8247,3.8602,3.8693,3.8582,3.8582,3.8284,3.7581,3.7478,3.7167,3.6387,3.6284,3.6284,3.6284,3.6284,3.6284,3.6284,3.6284,3.6284,3.6284,3.6284,3.6284,3.6284,3.6284,3.6284,3.6284,3.6284,3.6284,3.6284,3.6284,3.6732,3.7478,3.7512,3.8318,3.9733,4.0549,4.1309,4.1964,4.1974,4.2831,4.4044,4.392,4.4265,4.4776,4.4671,4.4615,4.4615,4.4615,4.4615,4.4615,4.4615,4.5128,4.5872,4.6583,4.7361,4.8075,4.8815,4.9018,4.9018,4.9018,4.9018,4.9018,4.9018,4.9018,4.9018,4.9018,4.8443,4.8173,4.8883,4.8409,4.8206,4.8883,4.9018,4.8748,4.8007,4.7906,4.7665,4.6921,4.6853,4.6819,4.6853,4.6819,4.6819,4.6853,4.6819,4.6481,4.5771,4.5703,4.5365,4.4615,4.4615,4.4615,4.4615,4.4615,4.4181,4.3375,4.3375,4.2591,2.7282,0.0,0.0,0.0,0.0,0.0,2.802,2.9815,3.1533,3.1638,3.3208,3.4587,3.4476,3.4356,3.4298,3.4461,3.5973,3.7274,3.7719,3.7823,3.7719,3.7512,3.6995,3.6525,3.6318,3.6284,3.6284,3.6284,3.5801,3.5732,3.6284,3.6284,3.6284,3.6284,3.6284,3.6284,3.6284,3.6284,3.6284,3.6284,3.6284,3.6284,3.6284,3.6284,3.6422,3.6697,3.7801,3.8525,3.8939,3.9698,4.0515,4.1274,4.1792,4.2446,4.3168,4.3689,4.4245,4.4671,4.4615,4.4615,4.4615,4.4615,4.4615,4.4615,4.4615,4.5495,4.6549,4.6718,4.7733,4.8748,4.8951,4.9018,4.9018,4.9018,4.9018,4.9018,4.9018,4.9018,4.9018,4.9018,4.8849,4.8781,4.8951,4.8849,4.8781,4.8984,4.9018,4.8951,4.8714,4.8714,4.8612,4.8409,4.7902,4.78,4.8342,4.7902,4.7834,4.8376,4.7902,4.7259,4.6515,4.5974,4.5365,4.4615,4.4615,4.4615,4.4615,4.4615,4.4181,4.3375,4.2861,4.2117,2.8213,2.8213,2.8213,2.8213,0.0,0.0,2.7454,2.8606,2.978,2.9501,3.0994,3.2212,3.1846,3.2091,3.2335,3.2121,3.3266,3.4718,3.6305,3.6546,3.665,3.6939,3.6594,3.6284,3.6284,3.6284,3.6284,3.6284,3.5904,3.5835,3.6284,3.6284,3.6284,3.6284,3.6284,3.6284,3.6284,3.6284,3.6284,3.6284,3.6284,3.6284,3.6284,3.6284,3.6284,3.6387,3.7616,3.8341,3.8663,3.9388,4.0146,4.0963,4.165,4.2234,4.2783,4.3515,4.413,4.4615,4.4615,4.4615,4.4615,4.4615,4.4615,4.4682,4.4987,4.5872,4.6853,4.7158,4.8105,4.9018,4.9018,4.9018,4.9018,4.9018,4.9018,4.9018,4.9018,4.9018,4.9018,4.9018,4.9018,4.9018,4.9018,4.9018,4.9018,4.9018,4.9018,4.9018,4.9018,4.9018,4.9018,4.9018,4.8612,4.8545,4.8951,4.8612,4.8545,4.8984,4.8612,4.8037,4.7293,4.6853,4.6143,4.506,4.506,4.4891,4.4615,4.4615,4.435,4.3876,4.3132,4.2523,2.9627,2.9627,2.9627,2.9627,2.9144,0.0,2.7608,2.7983,2.8308,2.7621,2.9206,3.0558,2.9949,3.0452,3.0956,3.0974,3.0941,3.1862,3.4565,3.5028,3.5318,3.5973,3.6146,3.6146,3.6042,3.6146,3.618,3.618,3.6249,3.6249,3.618,3.6249,3.6284,3.6284,3.6284,3.6284,3.6284,3.6284,3.6284,3.6284,3.6284,3.6284,3.6284,3.6284,3.6353,3.649,3.7305,3.803,3.8767,3.9526,4.025,4.0974,4.1656,4.2227,4.2783,4.3503,4.4116,4.4615,4.4615,4.4615,4.4615,4.4716,4.4716,4.4886,4.5602,4.6346,4.709,4.7804,4.8511,4.9018,4.9018,4.9018,4.9018,4.9018,4.9018,4.9018,4.9018,4.9018,4.9018,4.9018,4.9018,4.9018,4.9018,4.9018,4.9018,4.9018,4.9018,4.9018,4.9018,4.9018,4.9018,4.9018,4.9018,4.9018,4.9018,4.9018,4.9018,4.9018,4.9018,4.868,4.7906,4.7906,4.7225,4.5737,4.5635,4.5263,4.4615,4.4615,4.4615,4.4581,4.3876,4.3504,3.0282,3.0455,3.0455,3.0455,3.0369,0.0,2.8571,2.838,2.8497,2.8518,2.8816,2.9217,2.9787,2.9998,3.0227,3.0836,3.0872,3.1444,3.326,3.3963,3.4372,3.451,3.5042,3.518,3.4594,3.5076,3.5421,3.5421,3.5973,3.6042,3.5456,3.5973,3.6284,3.6284,3.6284,3.6284,3.6284,3.6284,3.6284,3.6284,3.6284,3.6284,3.6284,3.6284,3.6663,3.7305,3.8065,3.8801,3.9526,4.0342,4.0756,4.1009,4.2205,4.2697,4.2851,4.4082,4.4557,4.4615,4.4615,4.4615,4.4716,4.5297,4.55,4.5635,4.6346,4.709,4.7868,4.8578,4.8883,4.9018,4.9018,4.9018,4.9018,4.9018,4.9018,4.9018,4.9018,4.9018,4.9018,4.9018,4.9018,4.9018,4.9018,4.9018,4.9018,4.9018,4.9018,4.9018,4.9018,4.9018,4.9018,4.9018,4.9018,4.9018,4.9018,4.9018,4.9018,4.9018,4.9018,4.868,4.7906,4.7906,4.7225,4.5737,4.5128,4.475,4.4615,4.4615,4.4615,4.4615,4.4445,4.4012,3.1696,3.1524,3.1351,3.1696,3.1248,0.0,0.0,2.9349,2.9242,2.9723,2.9201,2.8781,2.926,2.9298,2.9282,2.9295,2.958,3.0333,3.1792,3.2549,3.3076,3.3455,3.349,3.349,3.349,3.3835,3.4214,3.4628,3.5663,3.5973,3.5249,3.5904,3.6284,3.6284,3.6284,3.6284,3.6284,3.6284,3.6284,3.6284,3.6284,3.6284,3.6284,3.6284,3.6732,3.7547,3.8284,3.9008,3.9767,4.0584,4.1088,4.1464,4.2414,4.2945,4.3257,4.4313,4.4671,4.4615,4.4615,4.4615,4.4716,4.5466,4.5703,4.5906,4.7022,4.7868,4.8545,4.8917,4.9018,4.9018,4.9018,4.9018,4.9018,4.9018,4.9018,4.9018,4.9018,4.9018,4.9018,4.9018,4.9018,4.9018,4.9018,4.9018,4.9018,4.9018,4.9018,4.9018,4.9018,4.9018,4.9018,4.9018,4.9018,4.9018,4.9018,4.9018,4.9018,4.9018,4.9018,4.8849,4.8477,4.8477,4.7936,4.6819,4.5703,4.5128,4.5128,4.4784,4.4615,4.4615,4.4615,4.4378,3.3145,3.28,3.2559,3.3007,3.2248,3.1232,0.0,0.0,0.0,3.0508,2.9707,2.8987,2.9222,2.9168,2.8903,2.8438,2.8868,2.9628,3.0733,3.1201,3.1715,3.2593,3.2041,3.1869,3.2628,3.2697,3.3076,3.4027,3.5042,3.5456,3.5007,3.5697,3.6077,3.6077,3.6215,3.6284,3.6284,3.6284,3.6284,3.6284,3.6284,3.6284,3.6284,3.6284,3.6801,3.7754,3.8318,3.9112,3.9974,4.0653,4.1247,4.1831,4.2458,4.3079,4.3695,4.4338,4.4615,4.4615,4.4615,4.4615,4.4716,4.5466,4.5906,4.638,4.7733,4.8545,4.9018,4.9018,4.9018,4.9018,4.9018,4.9018,4.9018,4.9018,4.9018,4.9018,4.9018,4.9018,4.9018,4.9018,4.9018,4.9018,4.9018,4.9018,4.9018,4.9018,4.9018,4.9018,4.9018,4.9018,4.9018,4.9018,4.9018,4.9018,4.9018,4.9018,4.9018,4.9018,4.9018,4.9018,4.9018,4.8883,4.8511,4.7906,4.6583,4.5906,4.5906,4.5162,4.475,4.4615,4.4615,4.4615,3.3958,3.4387,3.4663,3.413,3.3854,3.3218,3.1234,0.0,3.056,3.0103,0.0,3.0011,3.0774,0.0,0.0,3.072,3.083,3.0835,3.0907,3.0334,3.0422,3.1784,3.1248,3.111,3.1834,3.1903,3.2524,3.3992,3.3593,3.3559,3.4199,3.4904,3.5318,3.5318,3.5939,3.6284,3.6284,3.6284,3.6284,3.6284,3.6284,3.6284,3.6284,3.6284,3.7077,3.8479,3.856,3.9445,4.0791,4.086,4.1174,4.1681,4.2433,4.3079,4.3695,4.4338,4.4615,4.4615,4.4615,4.4615,4.4716,4.5466,4.6583,4.7804,4.8646,4.8951,4.9018,4.9018,4.9018,4.9018,4.9018,4.9018,4.9018,4.9018,4.9018,4.9018,4.9018,4.9018,4.9018,4.9018,4.9018,4.9018,4.9018,4.9018,4.9018,4.9018,4.9018,4.9018,4.9018,4.9018,4.9018,4.9018,4.9018,4.9018,4.9018,4.9018,4.9018,4.9018,4.9018,4.9018,4.9018,4.8376,4.7973,4.7906,4.709,4.6684,4.665,4.594,4.5229,4.4615,4.4615,4.4615,3.4234,3.4337,3.4683,3.5249,3.4731,3.3854,3.2926,3.241,3.2068,3.1811,0.0,0.0,0.0,0.0,0.0,0.0,3.0547,3.0465,3.0297,2.9204,2.9103,3.0921,3.011,2.9834,3.1041,3.1558,3.2076,3.2697,3.2835,3.3248,3.4061,3.48,3.5387,3.5801,3.6146,3.6284,3.6284,3.6284,3.6284,3.6284,3.6284,3.6284,3.6284,3.6284,3.7146,3.8594,3.8594,3.9457,4.0894,4.0834,4.1101,4.1656,4.233,4.2947,4.3586,4.431,4.4615,4.4615,4.4615,4.4857,4.5432,4.6616,4.7699,4.8612,4.8917,4.9018,4.9018,4.9018,4.9018,4.9018,4.9018,4.9018,4.9018,4.9018,4.9018,4.9018,4.9018,4.9018,4.9018,4.9018,4.9018,4.9018,4.9018,4.9018,4.9018,4.9018,4.9018,4.9018,4.9018,4.9018,4.9018,4.9018,4.9018,4.9018,4.9018,4.9018,4.9018,4.9018,4.9018,4.9018,4.9018,4.8714,4.8545,4.8545,4.7834,4.7462,4.7462,4.6684,4.5974,4.5229,4.4818,4.4615,3.4614,3.4545,3.4904,3.5766,3.518,3.4372,3.4165,3.3859,3.3625,3.3436,3.2784,0.0,0.0,0.0,3.1514,3.0778,0.0,3.0519,3.0107,2.8925,2.8773,3.0472,2.9868,2.9696,3.061,3.1179,3.1558,3.1765,3.211,3.2731,3.3697,3.449,3.5249,3.5973,3.618,3.6284,3.6284,3.6284,3.6284,3.6284,3.6284,3.6284,3.6284,3.6284,3.7146,3.8594,3.8572,3.9411,4.0823,4.068,4.0901,4.1332,4.2184,4.2732,4.3234,4.4242,4.4615,4.4615,4.4615,4.506,4.5906,4.7192,4.8105,4.8748,4.8951,4.9018,4.9018,4.9018,4.9018,4.9018,4.9018,4.9018,4.9018,4.9018,4.9018,4.9018,4.9018,4.9018,4.9018,4.9018,4.9018,4.9018,4.9018,4.9018,4.9018,4.9018,4.9018,4.9018,4.9018,4.9018,4.9018,4.9018,4.9018,4.9018,4.9018,4.9018,4.9018,4.9018,4.9018,4.9018,4.9018,4.9018,4.9018,4.9018,4.8477,4.8206,4.8206,4.7462,4.6819,4.6278,4.5331,4.4818,3.5352,3.5697,3.6077,3.5387,3.518,3.4973,3.4268,3.4648,3.4944,3.4283,3.4683,3.498,3.4418,3.3672,3.2907,3.2142,3.2037,0.0,0.0,3.011,2.9885,3.061,3.1282,3.142,3.0765,3.0714,3.1007,3.1731,3.1145,3.1386,3.2869,3.3697,3.4476,3.5214,3.5939,3.6284,3.6284,3.6284,3.6284,3.6284,3.6284,3.6284,3.6284,3.6284,3.7146,3.8594,3.8459,3.9272,4.0714,4.0558,4.0436,4.0492,4.1928,4.2426,4.2523,4.4039,4.4615,4.4615,4.4615,4.506,4.5838,4.6583,4.7327,4.8041,4.8781,4.9018,4.9018,4.9018,4.9018,4.9018,4.9018,4.9018,4.9018,4.9018,4.9018,4.9018,4.9018,4.9018,4.9018,4.9018,4.9018,4.9018,4.9018,4.9018,4.9018,4.9018,4.9018,4.9018,4.9018,4.9018,4.9018,4.9018,4.9018,4.9018,4.9018,4.9018,4.9018,4.9018,4.9018,4.9018,4.9018,4.9018,4.9018,4.9018,4.8984,4.8951,4.8951,4.824,4.7838,4.777,4.6346,4.5263,3.5387,3.5732,3.6249,3.5973,3.5939,3.5732,3.5007,3.5387,3.558,3.4377,3.4782,3.5099,3.4411,3.4102,3.3584,3.2316,3.2107,3.1619,0.0,3.0231,3.0438,3.0679,3.1351,3.1489,3.0765,3.0714,3.08,3.1041,3.0834,3.1558,3.3593,3.3938,3.4663,3.5904,3.618,3.6284,3.6284,3.6284,3.6284,3.6284,3.6284,3.6284,3.6318,3.6835,3.7585,3.8494,3.8929,3.9705,4.0558,4.0412,4.0644,4.1138,4.2019,4.2618,4.3166,4.4209,4.4615,4.4682,4.5162,4.5805,4.6549,4.7293,4.8037,4.868,4.8917,4.9018,4.9018,4.9018,4.9018,4.9018,4.9018,4.9018,4.9018,4.9018,4.9018,4.9018,4.9018,4.939,4.9593,4.9086,4.939,4.956,4.9086,4.9018,4.9018,4.9018,4.9018,4.9018,4.9018,4.9018,4.9018,4.9018,4.9018,4.9018,4.9018,4.9018,4.9018,4.9018,4.9018,4.9018,4.9018,4.9018,4.9018,4.9018,4.9018,4.9018,4.9018,4.8748,4.8376,4.7872,4.7365,4.6515,3.5732,3.5939,3.6284,3.6284,3.6284,3.618,3.5697,3.618,3.6387,3.5145,3.5517,3.5835,3.5074,3.4802,3.4252,3.3023,3.2572,3.1808,0.0,3.0628,3.0972,3.0731,3.1351,3.1593,3.1145,3.0852,3.0817,3.1076,3.0852,3.1715,3.3992,3.4096,3.4766,3.6249,3.6284,3.6284,3.6284,3.6284,3.6284,3.6284,3.6284,3.6297,3.631,3.7047,3.7772,3.8357,3.9063,3.9802,4.0446,4.0569,4.0892,4.1435,4.2313,4.2997,4.3477,4.4282,4.4615,4.4716,4.5432,4.6177,4.6921,4.7665,4.8409,4.9018,4.9018,4.9018,4.9018,4.9018,4.9018,4.9018,4.9018,4.9018,4.9018,4.9018,4.9018,4.9018,4.9018,4.9593,4.9965,4.9492,4.9999,5.0338,4.9864,4.9796,4.9695,4.9424,4.939,4.9492,4.9763,4.956,4.939,4.939,4.9154,4.9018,4.9018,4.9018,4.9018,4.9018,4.9018,4.9018,4.9018,4.9018,4.912,4.939,4.912,4.912,4.939,4.912,4.8781,4.8277,4.8007,4.7259]}]]